<?xml version="1.0" encoding="UTF-8" standalone="no" ?>
<gpx xmlns="http://www.topografix.com/GPX/1/1" xmlns:xsi="http://www.w3.org/2001/XMLSchema-instance" xsi:schemaLocation="http://www.topografix.com/GPX/1/1 http://www.topografix.com/GPX/1/1/gpx.xsd" version="1.1" creator="VisuGPX - https://www.visugpx.com">
  <metadata>
    <name>Robion Arles</name>
    <desc><![CDATA[Quatrième jour
Etape tranquille en dénivelé mais vent dans le nez: horrible
Toujours très froid ]]></desc>
  </metadata>
  <trk>
    <name><![CDATA[Robion Arles_1]]></name>
    <trkseg>
      <trkpt lat="43.86636" lon="5.10274">
        <ele>134.046</ele>
        <time>2019-04-29T07:28:03Z</time>
      </trkpt>
      <trkpt lat="43.86637" lon="5.10279">
        <ele>133.268</ele>
        <time>2019-04-29T07:28:13Z</time>
      </trkpt>
      <trkpt lat="43.86639" lon="5.10279">
        <ele>132.796</ele>
        <time>2019-04-29T07:28:24Z</time>
      </trkpt>
      <trkpt lat="43.86635" lon="5.10277">
        <ele>132.963</ele>
        <time>2019-04-29T07:28:34Z</time>
      </trkpt>
      <trkpt lat="43.86634" lon="5.10277">
        <ele>132.942</ele>
        <time>2019-04-29T07:28:45Z</time>
      </trkpt>
      <trkpt lat="43.86633" lon="5.10276">
        <ele>132.879</ele>
        <time>2019-04-29T07:28:55Z</time>
      </trkpt>
      <trkpt lat="43.86633" lon="5.10275">
        <ele>132.817</ele>
        <time>2019-04-29T07:29:06Z</time>
      </trkpt>
      <trkpt lat="43.86634" lon="5.10274">
        <ele>132.843</ele>
        <time>2019-04-29T07:29:16Z</time>
      </trkpt>
      <trkpt lat="43.86634" lon="5.10274">
        <ele>133.015</ele>
        <time>2019-04-29T07:29:26Z</time>
      </trkpt>
      <trkpt lat="43.86634" lon="5.10274">
        <ele>133.231</ele>
        <time>2019-04-29T07:29:37Z</time>
      </trkpt>
      <trkpt lat="43.86634" lon="5.10274">
        <ele>133.394</ele>
        <time>2019-04-29T07:29:47Z</time>
      </trkpt>
      <trkpt lat="43.86634" lon="5.10275">
        <ele>133.566</ele>
        <time>2019-04-29T07:29:57Z</time>
      </trkpt>
      <trkpt lat="43.86635" lon="5.10276">
        <ele>133.822</ele>
        <time>2019-04-29T07:30:07Z</time>
      </trkpt>
      <trkpt lat="43.86636" lon="5.10279">
        <ele>134.086</ele>
        <time>2019-04-29T07:30:17Z</time>
      </trkpt>
      <trkpt lat="43.86634" lon="5.10287">
        <ele>134.474</ele>
        <time>2019-04-29T07:30:28Z</time>
      </trkpt>
      <trkpt lat="43.86616" lon="5.10269">
        <ele>135.109</ele>
        <time>2019-04-29T07:30:39Z</time>
      </trkpt>
      <trkpt lat="43.86608" lon="5.10242">
        <ele>135.609</ele>
        <time>2019-04-29T07:30:49Z</time>
      </trkpt>
      <trkpt lat="43.86612" lon="5.10223">
        <ele>135.762</ele>
        <time>2019-04-29T07:31:00Z</time>
      </trkpt>
      <trkpt lat="43.86612" lon="5.10223">
        <ele>135.699</ele>
        <time>2019-04-29T07:31:10Z</time>
      </trkpt>
      <trkpt lat="43.86612" lon="5.10222">
        <ele>135.636</ele>
        <time>2019-04-29T07:31:21Z</time>
      </trkpt>
      <trkpt lat="43.86604" lon="5.10223">
        <ele>135.567</ele>
        <time>2019-04-29T07:31:31Z</time>
      </trkpt>
      <trkpt lat="43.86591" lon="5.10209">
        <ele>136.171</ele>
        <time>2019-04-29T07:31:42Z</time>
      </trkpt>
      <trkpt lat="43.8656" lon="5.10216">
        <ele>136.931</ele>
        <time>2019-04-29T07:31:52Z</time>
      </trkpt>
      <trkpt lat="43.86513" lon="5.10224">
        <ele>140.621</ele>
        <time>2019-04-29T07:32:03Z</time>
      </trkpt>
      <trkpt lat="43.86475" lon="5.10242">
        <ele>141.145</ele>
        <time>2019-04-29T07:32:13Z</time>
      </trkpt>
      <trkpt lat="43.86433" lon="5.10262">
        <ele>140.824</ele>
        <time>2019-04-29T07:32:24Z</time>
      </trkpt>
      <trkpt lat="43.86384" lon="5.1028">
        <ele>141.944</ele>
        <time>2019-04-29T07:32:35Z</time>
      </trkpt>
      <trkpt lat="43.86337" lon="5.10295">
        <ele>141.928</ele>
        <time>2019-04-29T07:32:45Z</time>
      </trkpt>
      <trkpt lat="43.86291" lon="5.10312">
        <ele>143.654</ele>
        <time>2019-04-29T07:32:55Z</time>
      </trkpt>
      <trkpt lat="43.86245" lon="5.1033">
        <ele>144.521</ele>
        <time>2019-04-29T07:33:06Z</time>
      </trkpt>
      <trkpt lat="43.86227" lon="5.10289">
        <ele>143.365</ele>
        <time>2019-04-29T07:33:17Z</time>
      </trkpt>
      <trkpt lat="43.86211" lon="5.10229">
        <ele>142.121</ele>
        <time>2019-04-29T07:33:28Z</time>
      </trkpt>
      <trkpt lat="43.86192" lon="5.10169">
        <ele>139.815</ele>
        <time>2019-04-29T07:33:39Z</time>
      </trkpt>
      <trkpt lat="43.86176" lon="5.10115">
        <ele>140.729</ele>
        <time>2019-04-29T07:33:50Z</time>
      </trkpt>
      <trkpt lat="43.86155" lon="5.10055">
        <ele>140.059</ele>
        <time>2019-04-29T07:34:01Z</time>
      </trkpt>
      <trkpt lat="43.86136" lon="5.10002">
        <ele>140.314</ele>
        <time>2019-04-29T07:34:11Z</time>
      </trkpt>
      <trkpt lat="43.86111" lon="5.09936">
        <ele>140.777</ele>
        <time>2019-04-29T07:34:22Z</time>
      </trkpt>
      <trkpt lat="43.86089" lon="5.09878">
        <ele>140.584</ele>
        <time>2019-04-29T07:34:32Z</time>
      </trkpt>
      <trkpt lat="43.86072" lon="5.09824">
        <ele>140.07</ele>
        <time>2019-04-29T07:34:42Z</time>
      </trkpt>
      <trkpt lat="43.86045" lon="5.09777">
        <ele>140.558</ele>
        <time>2019-04-29T07:34:52Z</time>
      </trkpt>
      <trkpt lat="43.86022" lon="5.09805">
        <ele>139.847</ele>
        <time>2019-04-29T07:35:03Z</time>
      </trkpt>
      <trkpt lat="43.86005" lon="5.09828">
        <ele>138.878</ele>
        <time>2019-04-29T07:35:13Z</time>
      </trkpt>
      <trkpt lat="43.85974" lon="5.09811">
        <ele>138.19</ele>
        <time>2019-04-29T07:35:23Z</time>
      </trkpt>
      <trkpt lat="43.85934" lon="5.09792">
        <ele>139.375</ele>
        <time>2019-04-29T07:35:34Z</time>
      </trkpt>
      <trkpt lat="43.85892" lon="5.09775">
        <ele>140.485</ele>
        <time>2019-04-29T07:35:44Z</time>
      </trkpt>
      <trkpt lat="43.85861" lon="5.09764">
        <ele>140.294</ele>
        <time>2019-04-29T07:35:54Z</time>
      </trkpt>
      <trkpt lat="43.85852" lon="5.09763">
        <ele>140.277</ele>
        <time>2019-04-29T07:36:05Z</time>
      </trkpt>
      <trkpt lat="43.85852" lon="5.09763">
        <ele>140.28</ele>
        <time>2019-04-29T07:36:15Z</time>
      </trkpt>
      <trkpt lat="43.85856" lon="5.09768">
        <ele>140.296</ele>
        <time>2019-04-29T07:36:26Z</time>
      </trkpt>
      <trkpt lat="43.85856" lon="5.09767">
        <ele>140.277</ele>
        <time>2019-04-29T07:36:36Z</time>
      </trkpt>
      <trkpt lat="43.85855" lon="5.09766">
        <ele>140.298</ele>
        <time>2019-04-29T07:36:47Z</time>
      </trkpt>
      <trkpt lat="43.85855" lon="5.09768">
        <ele>140.201</ele>
        <time>2019-04-29T07:36:57Z</time>
      </trkpt>
      <trkpt lat="43.85844" lon="5.09756">
        <ele>139.033</ele>
        <time>2019-04-29T07:37:08Z</time>
      </trkpt>
      <trkpt lat="43.85829" lon="5.09751">
        <ele>138.975</ele>
        <time>2019-04-29T07:37:18Z</time>
      </trkpt>
      <trkpt lat="43.85825" lon="5.09746">
        <ele>139.301</ele>
        <time>2019-04-29T07:37:28Z</time>
      </trkpt>
      <trkpt lat="43.85826" lon="5.09753">
        <ele>139.383</ele>
        <time>2019-04-29T07:37:39Z</time>
      </trkpt>
      <trkpt lat="43.85825" lon="5.09751">
        <ele>139.365</ele>
        <time>2019-04-29T07:37:50Z</time>
      </trkpt>
      <trkpt lat="43.85805" lon="5.09738">
        <ele>139.177</ele>
        <time>2019-04-29T07:38:00Z</time>
      </trkpt>
      <trkpt lat="43.85766" lon="5.09728">
        <ele>140.827</ele>
        <time>2019-04-29T07:38:11Z</time>
      </trkpt>
      <trkpt lat="43.85736" lon="5.09739">
        <ele>141.199</ele>
        <time>2019-04-29T07:38:22Z</time>
      </trkpt>
      <trkpt lat="43.85733" lon="5.09773">
        <ele>141.487</ele>
        <time>2019-04-29T07:38:33Z</time>
      </trkpt>
      <trkpt lat="43.85734" lon="5.09783">
        <ele>141.526</ele>
        <time>2019-04-29T07:38:43Z</time>
      </trkpt>
      <trkpt lat="43.85735" lon="5.09842">
        <ele>139.79</ele>
        <time>2019-04-29T07:38:53Z</time>
      </trkpt>
      <trkpt lat="43.85706" lon="5.09917">
        <ele>138.719</ele>
        <time>2019-04-29T07:39:04Z</time>
      </trkpt>
      <trkpt lat="43.85674" lon="5.09945">
        <ele>138.997</ele>
        <time>2019-04-29T07:39:15Z</time>
      </trkpt>
      <trkpt lat="43.85673" lon="5.09946">
        <ele>139.018</ele>
        <time>2019-04-29T07:39:25Z</time>
      </trkpt>
      <trkpt lat="43.85642" lon="5.09974">
        <ele>139.597</ele>
        <time>2019-04-29T07:39:36Z</time>
      </trkpt>
      <trkpt lat="43.85603" lon="5.10011">
        <ele>139.783</ele>
        <time>2019-04-29T07:39:46Z</time>
      </trkpt>
      <trkpt lat="43.85556" lon="5.10049">
        <ele>139.789</ele>
        <time>2019-04-29T07:39:57Z</time>
      </trkpt>
      <trkpt lat="43.85515" lon="5.10083">
        <ele>141.242</ele>
        <time>2019-04-29T07:40:08Z</time>
      </trkpt>
      <trkpt lat="43.85481" lon="5.10114">
        <ele>140.666</ele>
        <time>2019-04-29T07:40:19Z</time>
      </trkpt>
      <trkpt lat="43.85449" lon="5.1014">
        <ele>140.808</ele>
        <time>2019-04-29T07:40:30Z</time>
      </trkpt>
      <trkpt lat="43.85424" lon="5.10162">
        <ele>141.528</ele>
        <time>2019-04-29T07:40:40Z</time>
      </trkpt>
      <trkpt lat="43.85397" lon="5.10185">
        <ele>142.333</ele>
        <time>2019-04-29T07:40:51Z</time>
      </trkpt>
      <trkpt lat="43.8537" lon="5.10207">
        <ele>142.829</ele>
        <time>2019-04-29T07:41:01Z</time>
      </trkpt>
      <trkpt lat="43.85343" lon="5.10228">
        <ele>143.198</ele>
        <time>2019-04-29T07:41:11Z</time>
      </trkpt>
      <trkpt lat="43.85318" lon="5.1025">
        <ele>144.077</ele>
        <time>2019-04-29T07:41:22Z</time>
      </trkpt>
      <trkpt lat="43.85288" lon="5.10276">
        <ele>144.519</ele>
        <time>2019-04-29T07:41:33Z</time>
      </trkpt>
      <trkpt lat="43.85253" lon="5.10309">
        <ele>146.672</ele>
        <time>2019-04-29T07:41:44Z</time>
      </trkpt>
      <trkpt lat="43.85222" lon="5.10331">
        <ele>148.208</ele>
        <time>2019-04-29T07:41:54Z</time>
      </trkpt>
      <trkpt lat="43.85192" lon="5.10354">
        <ele>148.852</ele>
        <time>2019-04-29T07:42:05Z</time>
      </trkpt>
      <trkpt lat="43.85169" lon="5.10376">
        <ele>149.155</ele>
        <time>2019-04-29T07:42:15Z</time>
      </trkpt>
      <trkpt lat="43.85144" lon="5.10397">
        <ele>149.766</ele>
        <time>2019-04-29T07:42:26Z</time>
      </trkpt>
      <trkpt lat="43.85176" lon="5.10375">
        <ele>150.163</ele>
        <time>2019-04-29T07:42:37Z</time>
      </trkpt>
      <trkpt lat="43.85223" lon="5.10333">
        <ele>151.907</ele>
        <time>2019-04-29T07:42:48Z</time>
      </trkpt>
      <trkpt lat="43.85277" lon="5.1029">
        <ele>149.963</ele>
        <time>2019-04-29T07:42:58Z</time>
      </trkpt>
      <trkpt lat="43.85315" lon="5.1026">
        <ele>150.26</ele>
        <time>2019-04-29T07:43:08Z</time>
      </trkpt>
      <trkpt lat="43.85355" lon="5.10222">
        <ele>145.472</ele>
        <time>2019-04-29T07:43:18Z</time>
      </trkpt>
      <trkpt lat="43.85345" lon="5.10168">
        <ele>145.448</ele>
        <time>2019-04-29T07:43:28Z</time>
      </trkpt>
      <trkpt lat="43.85316" lon="5.101">
        <ele>144.29</ele>
        <time>2019-04-29T07:43:39Z</time>
      </trkpt>
      <trkpt lat="43.85283" lon="5.1004">
        <ele>144.259</ele>
        <time>2019-04-29T07:43:49Z</time>
      </trkpt>
      <trkpt lat="43.85242" lon="5.09983">
        <ele>144.038</ele>
        <time>2019-04-29T07:44:00Z</time>
      </trkpt>
      <trkpt lat="43.85192" lon="5.09915">
        <ele>143.707</ele>
        <time>2019-04-29T07:44:11Z</time>
      </trkpt>
      <trkpt lat="43.85141" lon="5.09845">
        <ele>143.08</ele>
        <time>2019-04-29T07:44:22Z</time>
      </trkpt>
      <trkpt lat="43.8509" lon="5.09777">
        <ele>143.578</ele>
        <time>2019-04-29T07:44:33Z</time>
      </trkpt>
      <trkpt lat="43.85038" lon="5.09729">
        <ele>143.529</ele>
        <time>2019-04-29T07:44:44Z</time>
      </trkpt>
      <trkpt lat="43.85009" lon="5.09692">
        <ele>141.226</ele>
        <time>2019-04-29T07:44:54Z</time>
      </trkpt>
      <trkpt lat="43.84984" lon="5.09632">
        <ele>140.961</ele>
        <time>2019-04-29T07:45:05Z</time>
      </trkpt>
      <trkpt lat="43.84966" lon="5.09574">
        <ele>141.297</ele>
        <time>2019-04-29T07:45:15Z</time>
      </trkpt>
      <trkpt lat="43.84951" lon="5.09508">
        <ele>141.827</ele>
        <time>2019-04-29T07:45:26Z</time>
      </trkpt>
      <trkpt lat="43.84939" lon="5.09443">
        <ele>140.921</ele>
        <time>2019-04-29T07:45:37Z</time>
      </trkpt>
      <trkpt lat="43.84937" lon="5.09379">
        <ele>141.72</ele>
        <time>2019-04-29T07:45:48Z</time>
      </trkpt>
      <trkpt lat="43.84929" lon="5.09321">
        <ele>143.704</ele>
        <time>2019-04-29T07:45:58Z</time>
      </trkpt>
      <trkpt lat="43.84933" lon="5.09253">
        <ele>143.291</ele>
        <time>2019-04-29T07:46:09Z</time>
      </trkpt>
      <trkpt lat="43.8494" lon="5.09185">
        <ele>141.838</ele>
        <time>2019-04-29T07:46:19Z</time>
      </trkpt>
      <trkpt lat="43.8491" lon="5.09118">
        <ele>140.654</ele>
        <time>2019-04-29T07:46:30Z</time>
      </trkpt>
      <trkpt lat="43.84874" lon="5.09093">
        <ele>140.461</ele>
        <time>2019-04-29T07:46:40Z</time>
      </trkpt>
      <trkpt lat="43.84833" lon="5.09061">
        <ele>140.031</ele>
        <time>2019-04-29T07:46:50Z</time>
      </trkpt>
      <trkpt lat="43.84794" lon="5.09006">
        <ele>138.624</ele>
        <time>2019-04-29T07:47:01Z</time>
      </trkpt>
      <trkpt lat="43.84776" lon="5.08948">
        <ele>139.761</ele>
        <time>2019-04-29T07:47:12Z</time>
      </trkpt>
      <trkpt lat="43.84778" lon="5.08935">
        <ele>140.226</ele>
        <time>2019-04-29T07:47:23Z</time>
      </trkpt>
      <trkpt lat="43.8477" lon="5.08922">
        <ele>140.228</ele>
        <time>2019-04-29T07:47:34Z</time>
      </trkpt>
      <trkpt lat="43.8474" lon="5.08866">
        <ele>139.775</ele>
        <time>2019-04-29T07:47:45Z</time>
      </trkpt>
      <trkpt lat="43.84708" lon="5.08804">
        <ele>139.158</ele>
        <time>2019-04-29T07:47:56Z</time>
      </trkpt>
      <trkpt lat="43.84675" lon="5.08743">
        <ele>138.311</ele>
        <time>2019-04-29T07:48:06Z</time>
      </trkpt>
      <trkpt lat="43.84634" lon="5.08688">
        <ele>137.757</ele>
        <time>2019-04-29T07:48:17Z</time>
      </trkpt>
      <trkpt lat="43.84586" lon="5.08676">
        <ele>136.633</ele>
        <time>2019-04-29T07:48:28Z</time>
      </trkpt>
      <trkpt lat="43.84547" lon="5.08672">
        <ele>137.398</ele>
        <time>2019-04-29T07:48:38Z</time>
      </trkpt>
      <trkpt lat="43.84526" lon="5.08644">
        <ele>137.721</ele>
        <time>2019-04-29T07:48:48Z</time>
      </trkpt>
      <trkpt lat="43.84489" lon="5.08652">
        <ele>138.545</ele>
        <time>2019-04-29T07:48:59Z</time>
      </trkpt>
      <trkpt lat="43.84449" lon="5.0863">
        <ele>139.809</ele>
        <time>2019-04-29T07:49:09Z</time>
      </trkpt>
      <trkpt lat="43.8441" lon="5.08608">
        <ele>139.944</ele>
        <time>2019-04-29T07:49:20Z</time>
      </trkpt>
      <trkpt lat="43.84399" lon="5.086">
        <ele>139.987</ele>
        <time>2019-04-29T07:49:30Z</time>
      </trkpt>
      <trkpt lat="43.84399" lon="5.086">
        <ele>139.954</ele>
        <time>2019-04-29T07:49:41Z</time>
      </trkpt>
      <trkpt lat="43.84395" lon="5.08598">
        <ele>139.933</ele>
        <time>2019-04-29T07:49:51Z</time>
      </trkpt>
      <trkpt lat="43.84395" lon="5.08598">
        <ele>139.914</ele>
        <time>2019-04-29T07:50:02Z</time>
      </trkpt>
      <trkpt lat="43.8439" lon="5.08598">
        <ele>139.802</ele>
        <time>2019-04-29T07:50:12Z</time>
      </trkpt>
      <trkpt lat="43.84362" lon="5.0858">
        <ele>139.353</ele>
        <time>2019-04-29T07:50:22Z</time>
      </trkpt>
      <trkpt lat="43.84318" lon="5.08559">
        <ele>139.561</ele>
        <time>2019-04-29T07:50:33Z</time>
      </trkpt>
      <trkpt lat="43.84281" lon="5.0854">
        <ele>139.37</ele>
        <time>2019-04-29T07:50:43Z</time>
      </trkpt>
      <trkpt lat="43.84233" lon="5.08519">
        <ele>139.804</ele>
        <time>2019-04-29T07:50:54Z</time>
      </trkpt>
      <trkpt lat="43.84191" lon="5.08497">
        <ele>140.691</ele>
        <time>2019-04-29T07:51:04Z</time>
      </trkpt>
      <trkpt lat="43.84141" lon="5.08469">
        <ele>142.115</ele>
        <time>2019-04-29T07:51:15Z</time>
      </trkpt>
      <trkpt lat="43.84095" lon="5.08443">
        <ele>142.892</ele>
        <time>2019-04-29T07:51:25Z</time>
      </trkpt>
      <trkpt lat="43.84043" lon="5.08426">
        <ele>143.088</ele>
        <time>2019-04-29T07:51:36Z</time>
      </trkpt>
      <trkpt lat="43.83993" lon="5.08407">
        <ele>142.435</ele>
        <time>2019-04-29T07:51:47Z</time>
      </trkpt>
      <trkpt lat="43.83945" lon="5.0839">
        <ele>142.381</ele>
        <time>2019-04-29T07:51:58Z</time>
      </trkpt>
      <trkpt lat="43.83899" lon="5.08373">
        <ele>142.538</ele>
        <time>2019-04-29T07:52:08Z</time>
      </trkpt>
      <trkpt lat="43.83851" lon="5.08355">
        <ele>143.083</ele>
        <time>2019-04-29T07:52:19Z</time>
      </trkpt>
      <trkpt lat="43.83801" lon="5.08336">
        <ele>143.608</ele>
        <time>2019-04-29T07:52:30Z</time>
      </trkpt>
      <trkpt lat="43.83749" lon="5.08321">
        <ele>144.122</ele>
        <time>2019-04-29T07:52:41Z</time>
      </trkpt>
      <trkpt lat="43.83696" lon="5.08318">
        <ele>143.813</ele>
        <time>2019-04-29T07:52:52Z</time>
      </trkpt>
      <trkpt lat="43.83657" lon="5.08309">
        <ele>143.531</ele>
        <time>2019-04-29T07:53:03Z</time>
      </trkpt>
      <trkpt lat="43.8364" lon="5.08288">
        <ele>143.694</ele>
        <time>2019-04-29T07:53:14Z</time>
      </trkpt>
      <trkpt lat="43.83633" lon="5.08226">
        <ele>142.381</ele>
        <time>2019-04-29T07:53:24Z</time>
      </trkpt>
      <trkpt lat="43.83626" lon="5.08159">
        <ele>138.427</ele>
        <time>2019-04-29T07:53:35Z</time>
      </trkpt>
      <trkpt lat="43.83612" lon="5.0808">
        <ele>134.336</ele>
        <time>2019-04-29T07:53:45Z</time>
      </trkpt>
      <trkpt lat="43.83593" lon="5.07996">
        <ele>133.128</ele>
        <time>2019-04-29T07:53:56Z</time>
      </trkpt>
      <trkpt lat="43.83576" lon="5.07922">
        <ele>133.905</ele>
        <time>2019-04-29T07:54:06Z</time>
      </trkpt>
      <trkpt lat="43.83555" lon="5.07844">
        <ele>132.862</ele>
        <time>2019-04-29T07:54:17Z</time>
      </trkpt>
      <trkpt lat="43.8354" lon="5.07754">
        <ele>131.715</ele>
        <time>2019-04-29T07:54:28Z</time>
      </trkpt>
      <trkpt lat="43.83532" lon="5.07674">
        <ele>130.194</ele>
        <time>2019-04-29T07:54:39Z</time>
      </trkpt>
      <trkpt lat="43.83521" lon="5.07603">
        <ele>130.415</ele>
        <time>2019-04-29T07:54:50Z</time>
      </trkpt>
      <trkpt lat="43.83508" lon="5.07526">
        <ele>129.797</ele>
        <time>2019-04-29T07:55:01Z</time>
      </trkpt>
      <trkpt lat="43.83495" lon="5.07445">
        <ele>129.456</ele>
        <time>2019-04-29T07:55:12Z</time>
      </trkpt>
      <trkpt lat="43.83485" lon="5.07376">
        <ele>129.153</ele>
        <time>2019-04-29T07:55:22Z</time>
      </trkpt>
      <trkpt lat="43.83476" lon="5.07331">
        <ele>129.294</ele>
        <time>2019-04-29T07:55:32Z</time>
      </trkpt>
      <trkpt lat="43.83466" lon="5.07284">
        <ele>129.446</ele>
        <time>2019-04-29T07:55:43Z</time>
      </trkpt>
      <trkpt lat="43.83459" lon="5.07228">
        <ele>129.523</ele>
        <time>2019-04-29T07:55:54Z</time>
      </trkpt>
      <trkpt lat="43.83456" lon="5.0717">
        <ele>129.764</ele>
        <time>2019-04-29T07:56:04Z</time>
      </trkpt>
      <trkpt lat="43.83453" lon="5.07108">
        <ele>130.242</ele>
        <time>2019-04-29T07:56:15Z</time>
      </trkpt>
      <trkpt lat="43.83449" lon="5.07041">
        <ele>129.333</ele>
        <time>2019-04-29T07:56:26Z</time>
      </trkpt>
      <trkpt lat="43.83446" lon="5.06979">
        <ele>127.539</ele>
        <time>2019-04-29T07:56:36Z</time>
      </trkpt>
      <trkpt lat="43.8344" lon="5.06913">
        <ele>126.932</ele>
        <time>2019-04-29T07:56:47Z</time>
      </trkpt>
      <trkpt lat="43.83435" lon="5.06844">
        <ele>127.086</ele>
        <time>2019-04-29T07:56:58Z</time>
      </trkpt>
      <trkpt lat="43.83428" lon="5.06782">
        <ele>127.075</ele>
        <time>2019-04-29T07:57:08Z</time>
      </trkpt>
      <trkpt lat="43.83423" lon="5.06723">
        <ele>126.54</ele>
        <time>2019-04-29T07:57:18Z</time>
      </trkpt>
      <trkpt lat="43.83415" lon="5.06652">
        <ele>125.362</ele>
        <time>2019-04-29T07:57:29Z</time>
      </trkpt>
      <trkpt lat="43.83406" lon="5.06592">
        <ele>124.983</ele>
        <time>2019-04-29T07:57:39Z</time>
      </trkpt>
      <trkpt lat="43.83397" lon="5.0653">
        <ele>125.426</ele>
        <time>2019-04-29T07:57:50Z</time>
      </trkpt>
      <trkpt lat="43.83394" lon="5.06475">
        <ele>125.089</ele>
        <time>2019-04-29T07:58:00Z</time>
      </trkpt>
      <trkpt lat="43.83388" lon="5.06411">
        <ele>124.091</ele>
        <time>2019-04-29T07:58:11Z</time>
      </trkpt>
      <trkpt lat="43.83384" lon="5.06352">
        <ele>123.711</ele>
        <time>2019-04-29T07:58:21Z</time>
      </trkpt>
      <trkpt lat="43.83376" lon="5.06328">
        <ele>125.435</ele>
        <time>2019-04-29T07:58:31Z</time>
      </trkpt>
      <trkpt lat="43.8336" lon="5.06271">
        <ele>124.156</ele>
        <time>2019-04-29T07:58:41Z</time>
      </trkpt>
      <trkpt lat="43.83357" lon="5.06261">
        <ele>124.139</ele>
        <time>2019-04-29T07:58:51Z</time>
      </trkpt>
      <trkpt lat="43.83357" lon="5.06261">
        <ele>124.19</ele>
        <time>2019-04-29T07:59:01Z</time>
      </trkpt>
      <trkpt lat="43.83357" lon="5.06261">
        <ele>124.235</ele>
        <time>2019-04-29T07:59:12Z</time>
      </trkpt>
      <trkpt lat="43.83357" lon="5.06261">
        <ele>124.271</ele>
        <time>2019-04-29T07:59:23Z</time>
      </trkpt>
      <trkpt lat="43.83357" lon="5.06261">
        <ele>124.294</ele>
        <time>2019-04-29T07:59:34Z</time>
      </trkpt>
      <trkpt lat="43.83357" lon="5.06261">
        <ele>124.307</ele>
        <time>2019-04-29T07:59:45Z</time>
      </trkpt>
      <trkpt lat="43.8335" lon="5.06254">
        <ele>124.29</ele>
        <time>2019-04-29T07:59:55Z</time>
      </trkpt>
      <trkpt lat="43.83332" lon="5.0621">
        <ele>124.019</ele>
        <time>2019-04-29T08:00:06Z</time>
      </trkpt>
      <trkpt lat="43.83311" lon="5.06166">
        <ele>123.478</ele>
        <time>2019-04-29T08:00:16Z</time>
      </trkpt>
      <trkpt lat="43.83285" lon="5.06132">
        <ele>123.436</ele>
        <time>2019-04-29T08:00:27Z</time>
      </trkpt>
      <trkpt lat="43.83274" lon="5.06133">
        <ele>124.069</ele>
        <time>2019-04-29T08:00:38Z</time>
      </trkpt>
      <trkpt lat="43.8331" lon="5.06181">
        <ele>123.487</ele>
        <time>2019-04-29T08:00:49Z</time>
      </trkpt>
      <trkpt lat="43.83342" lon="5.06239">
        <ele>124.527</ele>
        <time>2019-04-29T08:01:00Z</time>
      </trkpt>
      <trkpt lat="43.83368" lon="5.06298">
        <ele>124.791</ele>
        <time>2019-04-29T08:01:11Z</time>
      </trkpt>
      <trkpt lat="43.83392" lon="5.06339">
        <ele>125.189</ele>
        <time>2019-04-29T08:01:21Z</time>
      </trkpt>
      <trkpt lat="43.83417" lon="5.06379">
        <ele>125.737</ele>
        <time>2019-04-29T08:01:31Z</time>
      </trkpt>
      <trkpt lat="43.83443" lon="5.06416">
        <ele>125.832</ele>
        <time>2019-04-29T08:01:42Z</time>
      </trkpt>
      <trkpt lat="43.83466" lon="5.06448">
        <ele>125.861</ele>
        <time>2019-04-29T08:01:53Z</time>
      </trkpt>
      <trkpt lat="43.83493" lon="5.06481">
        <ele>125.936</ele>
        <time>2019-04-29T08:02:04Z</time>
      </trkpt>
      <trkpt lat="43.83501" lon="5.06495">
        <ele>126.088</ele>
        <time>2019-04-29T08:02:14Z</time>
      </trkpt>
      <trkpt lat="43.83502" lon="5.06495">
        <ele>126.142</ele>
        <time>2019-04-29T08:02:25Z</time>
      </trkpt>
      <trkpt lat="43.83502" lon="5.06494">
        <ele>126.212</ele>
        <time>2019-04-29T08:02:35Z</time>
      </trkpt>
      <trkpt lat="43.83501" lon="5.06494">
        <ele>126.284</ele>
        <time>2019-04-29T08:02:46Z</time>
      </trkpt>
      <trkpt lat="43.83501" lon="5.06494">
        <ele>126.321</ele>
        <time>2019-04-29T08:02:56Z</time>
      </trkpt>
      <trkpt lat="43.83503" lon="5.06496">
        <ele>126.951</ele>
        <time>2019-04-29T08:03:07Z</time>
      </trkpt>
      <trkpt lat="43.83508" lon="5.06482">
        <ele>127.095</ele>
        <time>2019-04-29T08:03:17Z</time>
      </trkpt>
      <trkpt lat="43.83512" lon="5.06471">
        <ele>126.84</ele>
        <time>2019-04-29T08:03:28Z</time>
      </trkpt>
      <trkpt lat="43.83506" lon="5.06462">
        <ele>126.675</ele>
        <time>2019-04-29T08:03:39Z</time>
      </trkpt>
      <trkpt lat="43.83484" lon="5.06433">
        <ele>126.301</ele>
        <time>2019-04-29T08:03:49Z</time>
      </trkpt>
      <trkpt lat="43.8345" lon="5.06385">
        <ele>127.025</ele>
        <time>2019-04-29T08:04:00Z</time>
      </trkpt>
      <trkpt lat="43.83416" lon="5.06334">
        <ele>127.059</ele>
        <time>2019-04-29T08:04:11Z</time>
      </trkpt>
      <trkpt lat="43.83385" lon="5.0628">
        <ele>125.635</ele>
        <time>2019-04-29T08:04:22Z</time>
      </trkpt>
      <trkpt lat="43.83368" lon="5.06229">
        <ele>123.497</ele>
        <time>2019-04-29T08:04:32Z</time>
      </trkpt>
      <trkpt lat="43.83359" lon="5.06172">
        <ele>124.661</ele>
        <time>2019-04-29T08:04:42Z</time>
      </trkpt>
      <trkpt lat="43.83346" lon="5.06119">
        <ele>125.429</ele>
        <time>2019-04-29T08:04:53Z</time>
      </trkpt>
      <trkpt lat="43.83335" lon="5.06067">
        <ele>125.894</ele>
        <time>2019-04-29T08:05:04Z</time>
      </trkpt>
      <trkpt lat="43.83328" lon="5.06006">
        <ele>125.251</ele>
        <time>2019-04-29T08:05:15Z</time>
      </trkpt>
      <trkpt lat="43.83332" lon="5.05939">
        <ele>125.141</ele>
        <time>2019-04-29T08:05:26Z</time>
      </trkpt>
      <trkpt lat="43.83345" lon="5.05887">
        <ele>126.662</ele>
        <time>2019-04-29T08:05:36Z</time>
      </trkpt>
      <trkpt lat="43.83355" lon="5.05834">
        <ele>125.582</ele>
        <time>2019-04-29T08:05:46Z</time>
      </trkpt>
      <trkpt lat="43.83368" lon="5.05773">
        <ele>126.792</ele>
        <time>2019-04-29T08:05:57Z</time>
      </trkpt>
      <trkpt lat="43.83387" lon="5.05711">
        <ele>128.676</ele>
        <time>2019-04-29T08:06:07Z</time>
      </trkpt>
      <trkpt lat="43.834" lon="5.05652">
        <ele>129.056</ele>
        <time>2019-04-29T08:06:18Z</time>
      </trkpt>
      <trkpt lat="43.8341" lon="5.056">
        <ele>127.177</ele>
        <time>2019-04-29T08:06:28Z</time>
      </trkpt>
      <trkpt lat="43.83421" lon="5.05548">
        <ele>125.12</ele>
        <time>2019-04-29T08:06:38Z</time>
      </trkpt>
      <trkpt lat="43.83443" lon="5.05502">
        <ele>125.237</ele>
        <time>2019-04-29T08:06:49Z</time>
      </trkpt>
      <trkpt lat="43.83464" lon="5.05464">
        <ele>125.038</ele>
        <time>2019-04-29T08:06:59Z</time>
      </trkpt>
      <trkpt lat="43.83482" lon="5.05425">
        <ele>124.742</ele>
        <time>2019-04-29T08:07:10Z</time>
      </trkpt>
      <trkpt lat="43.83511" lon="5.05383">
        <ele>124.175</ele>
        <time>2019-04-29T08:07:21Z</time>
      </trkpt>
      <trkpt lat="43.83536" lon="5.05353">
        <ele>123.597</ele>
        <time>2019-04-29T08:07:32Z</time>
      </trkpt>
      <trkpt lat="43.83558" lon="5.05352">
        <ele>123.573</ele>
        <time>2019-04-29T08:07:43Z</time>
      </trkpt>
      <trkpt lat="43.83587" lon="5.0535">
        <ele>123.961</ele>
        <time>2019-04-29T08:07:54Z</time>
      </trkpt>
      <trkpt lat="43.83621" lon="5.05352">
        <ele>124.991</ele>
        <time>2019-04-29T08:08:05Z</time>
      </trkpt>
      <trkpt lat="43.83651" lon="5.05346">
        <ele>125.393</ele>
        <time>2019-04-29T08:08:16Z</time>
      </trkpt>
      <trkpt lat="43.83682" lon="5.05335">
        <ele>126.142</ele>
        <time>2019-04-29T08:08:27Z</time>
      </trkpt>
      <trkpt lat="43.83682" lon="5.05285">
        <ele>122.407</ele>
        <time>2019-04-29T08:08:37Z</time>
      </trkpt>
      <trkpt lat="43.83676" lon="5.05219">
        <ele>121.666</ele>
        <time>2019-04-29T08:08:48Z</time>
      </trkpt>
      <trkpt lat="43.83673" lon="5.05153">
        <ele>123.472</ele>
        <time>2019-04-29T08:08:59Z</time>
      </trkpt>
      <trkpt lat="43.83668" lon="5.05093">
        <ele>123.227</ele>
        <time>2019-04-29T08:09:10Z</time>
      </trkpt>
      <trkpt lat="43.83665" lon="5.05044">
        <ele>122.764</ele>
        <time>2019-04-29T08:09:20Z</time>
      </trkpt>
      <trkpt lat="43.83665" lon="5.05035">
        <ele>122.675</ele>
        <time>2019-04-29T08:09:31Z</time>
      </trkpt>
      <trkpt lat="43.83665" lon="5.05035">
        <ele>122.673</ele>
        <time>2019-04-29T08:09:41Z</time>
      </trkpt>
      <trkpt lat="43.83665" lon="5.05035">
        <ele>122.699</ele>
        <time>2019-04-29T08:09:52Z</time>
      </trkpt>
      <trkpt lat="43.83665" lon="5.05035">
        <ele>122.723</ele>
        <time>2019-04-29T08:10:03Z</time>
      </trkpt>
      <trkpt lat="43.8366" lon="5.04998">
        <ele>123.008</ele>
        <time>2019-04-29T08:10:13Z</time>
      </trkpt>
      <trkpt lat="43.83651" lon="5.04942">
        <ele>123.764</ele>
        <time>2019-04-29T08:10:23Z</time>
      </trkpt>
      <trkpt lat="43.83642" lon="5.04881">
        <ele>122.718</ele>
        <time>2019-04-29T08:10:33Z</time>
      </trkpt>
      <trkpt lat="43.83631" lon="5.04825">
        <ele>126.363</ele>
        <time>2019-04-29T08:10:43Z</time>
      </trkpt>
      <trkpt lat="43.83614" lon="5.04763">
        <ele>126.401</ele>
        <time>2019-04-29T08:10:54Z</time>
      </trkpt>
      <trkpt lat="43.83602" lon="5.04704">
        <ele>125.238</ele>
        <time>2019-04-29T08:11:04Z</time>
      </trkpt>
      <trkpt lat="43.8359" lon="5.04642">
        <ele>125.381</ele>
        <time>2019-04-29T08:11:15Z</time>
      </trkpt>
      <trkpt lat="43.8358" lon="5.04587">
        <ele>124.678</ele>
        <time>2019-04-29T08:11:25Z</time>
      </trkpt>
      <trkpt lat="43.83577" lon="5.04525">
        <ele>122.666</ele>
        <time>2019-04-29T08:11:36Z</time>
      </trkpt>
      <trkpt lat="43.83577" lon="5.04469">
        <ele>122.763</ele>
        <time>2019-04-29T08:11:47Z</time>
      </trkpt>
      <trkpt lat="43.83582" lon="5.04422">
        <ele>122.84</ele>
        <time>2019-04-29T08:11:57Z</time>
      </trkpt>
      <trkpt lat="43.83615" lon="5.04407">
        <ele>123.185</ele>
        <time>2019-04-29T08:12:08Z</time>
      </trkpt>
      <trkpt lat="43.83652" lon="5.04395">
        <ele>123.443</ele>
        <time>2019-04-29T08:12:19Z</time>
      </trkpt>
      <trkpt lat="43.83684" lon="5.04383">
        <ele>124.227</ele>
        <time>2019-04-29T08:12:29Z</time>
      </trkpt>
      <trkpt lat="43.83725" lon="5.04372">
        <ele>124.093</ele>
        <time>2019-04-29T08:12:40Z</time>
      </trkpt>
      <trkpt lat="43.83755" lon="5.04363">
        <ele>124.062</ele>
        <time>2019-04-29T08:12:50Z</time>
      </trkpt>
      <trkpt lat="43.83769" lon="5.0434">
        <ele>124.864</ele>
        <time>2019-04-29T08:13:01Z</time>
      </trkpt>
      <trkpt lat="43.83761" lon="5.04305">
        <ele>124.138</ele>
        <time>2019-04-29T08:13:11Z</time>
      </trkpt>
      <trkpt lat="43.83749" lon="5.04326">
        <ele>123.454</ele>
        <time>2019-04-29T08:13:22Z</time>
      </trkpt>
      <trkpt lat="43.83761" lon="5.04341">
        <ele>123.56</ele>
        <time>2019-04-29T08:13:33Z</time>
      </trkpt>
      <trkpt lat="43.83768" lon="5.04302">
        <ele>121.384</ele>
        <time>2019-04-29T08:13:43Z</time>
      </trkpt>
      <trkpt lat="43.83743" lon="5.04254">
        <ele>121.24</ele>
        <time>2019-04-29T08:13:54Z</time>
      </trkpt>
      <trkpt lat="43.83711" lon="5.04234">
        <ele>123.831</ele>
        <time>2019-04-29T08:14:05Z</time>
      </trkpt>
      <trkpt lat="43.83682" lon="5.04254">
        <ele>125.181</ele>
        <time>2019-04-29T08:14:15Z</time>
      </trkpt>
      <trkpt lat="43.83636" lon="5.04265">
        <ele>125.851</ele>
        <time>2019-04-29T08:14:25Z</time>
      </trkpt>
      <trkpt lat="43.83611" lon="5.04272">
        <ele>125.944</ele>
        <time>2019-04-29T08:14:36Z</time>
      </trkpt>
      <trkpt lat="43.83603" lon="5.04273">
        <ele>125.919</ele>
        <time>2019-04-29T08:14:47Z</time>
      </trkpt>
      <trkpt lat="43.8356" lon="5.04279">
        <ele>124.309</ele>
        <time>2019-04-29T08:14:58Z</time>
      </trkpt>
      <trkpt lat="43.83502" lon="5.04303">
        <ele>125.976</ele>
        <time>2019-04-29T08:15:09Z</time>
      </trkpt>
      <trkpt lat="43.83454" lon="5.04308">
        <ele>128.108</ele>
        <time>2019-04-29T08:15:19Z</time>
      </trkpt>
      <trkpt lat="43.83452" lon="5.0424">
        <ele>133.182</ele>
        <time>2019-04-29T08:15:30Z</time>
      </trkpt>
      <trkpt lat="43.83448" lon="5.04181">
        <ele>138.937</ele>
        <time>2019-04-29T08:15:40Z</time>
      </trkpt>
      <trkpt lat="43.83457" lon="5.04122">
        <ele>145.828</ele>
        <time>2019-04-29T08:15:50Z</time>
      </trkpt>
      <trkpt lat="43.83429" lon="5.04085">
        <ele>144.595</ele>
        <time>2019-04-29T08:16:00Z</time>
      </trkpt>
      <trkpt lat="43.83399" lon="5.0408">
        <ele>141.958</ele>
        <time>2019-04-29T08:16:10Z</time>
      </trkpt>
      <trkpt lat="43.83365" lon="5.04065">
        <ele>137.334</ele>
        <time>2019-04-29T08:16:21Z</time>
      </trkpt>
      <trkpt lat="43.83318" lon="5.04052">
        <ele>131.138</ele>
        <time>2019-04-29T08:16:32Z</time>
      </trkpt>
      <trkpt lat="43.83279" lon="5.04034">
        <ele>136.05</ele>
        <time>2019-04-29T08:16:42Z</time>
      </trkpt>
      <trkpt lat="43.83227" lon="5.03997">
        <ele>132.601</ele>
        <time>2019-04-29T08:16:52Z</time>
      </trkpt>
      <trkpt lat="43.83182" lon="5.03956">
        <ele>125.481</ele>
        <time>2019-04-29T08:17:03Z</time>
      </trkpt>
      <trkpt lat="43.83167" lon="5.03935">
        <ele>126.598</ele>
        <time>2019-04-29T08:17:14Z</time>
      </trkpt>
      <trkpt lat="43.83153" lon="5.03917">
        <ele>126.127</ele>
        <time>2019-04-29T08:17:25Z</time>
      </trkpt>
      <trkpt lat="43.83124" lon="5.03866">
        <ele>124.231</ele>
        <time>2019-04-29T08:17:36Z</time>
      </trkpt>
      <trkpt lat="43.8309" lon="5.03802">
        <ele>121.611</ele>
        <time>2019-04-29T08:17:47Z</time>
      </trkpt>
      <trkpt lat="43.83056" lon="5.0374">
        <ele>121.814</ele>
        <time>2019-04-29T08:17:58Z</time>
      </trkpt>
      <trkpt lat="43.83022" lon="5.03682">
        <ele>121.074</ele>
        <time>2019-04-29T08:18:09Z</time>
      </trkpt>
      <trkpt lat="43.82995" lon="5.03634">
        <ele>121.885</ele>
        <time>2019-04-29T08:18:20Z</time>
      </trkpt>
      <trkpt lat="43.82966" lon="5.03591">
        <ele>125.168</ele>
        <time>2019-04-29T08:18:31Z</time>
      </trkpt>
      <trkpt lat="43.82933" lon="5.03538">
        <ele>126.14</ele>
        <time>2019-04-29T08:18:41Z</time>
      </trkpt>
      <trkpt lat="43.82901" lon="5.03477">
        <ele>125.108</ele>
        <time>2019-04-29T08:18:52Z</time>
      </trkpt>
      <trkpt lat="43.82875" lon="5.03434">
        <ele>125.145</ele>
        <time>2019-04-29T08:19:02Z</time>
      </trkpt>
      <trkpt lat="43.82832" lon="5.03403">
        <ele>124.838</ele>
        <time>2019-04-29T08:19:13Z</time>
      </trkpt>
      <trkpt lat="43.82811" lon="5.03368">
        <ele>124.472</ele>
        <time>2019-04-29T08:19:23Z</time>
      </trkpt>
      <trkpt lat="43.82793" lon="5.03348">
        <ele>124.598</ele>
        <time>2019-04-29T08:19:34Z</time>
      </trkpt>
      <trkpt lat="43.82786" lon="5.03308">
        <ele>124.797</ele>
        <time>2019-04-29T08:19:45Z</time>
      </trkpt>
      <trkpt lat="43.82778" lon="5.03272">
        <ele>124.549</ele>
        <time>2019-04-29T08:19:55Z</time>
      </trkpt>
      <trkpt lat="43.82762" lon="5.03237">
        <ele>124.718</ele>
        <time>2019-04-29T08:20:05Z</time>
      </trkpt>
      <trkpt lat="43.82742" lon="5.03199">
        <ele>125.272</ele>
        <time>2019-04-29T08:20:16Z</time>
      </trkpt>
      <trkpt lat="43.82719" lon="5.03156">
        <ele>127.17</ele>
        <time>2019-04-29T08:20:27Z</time>
      </trkpt>
      <trkpt lat="43.82695" lon="5.03115">
        <ele>128.744</ele>
        <time>2019-04-29T08:20:37Z</time>
      </trkpt>
      <trkpt lat="43.82668" lon="5.03066">
        <ele>130.543</ele>
        <time>2019-04-29T08:20:48Z</time>
      </trkpt>
      <trkpt lat="43.8264" lon="5.03016">
        <ele>129.453</ele>
        <time>2019-04-29T08:20:59Z</time>
      </trkpt>
      <trkpt lat="43.82609" lon="5.02964">
        <ele>129.034</ele>
        <time>2019-04-29T08:21:09Z</time>
      </trkpt>
      <trkpt lat="43.82575" lon="5.02902">
        <ele>128.75</ele>
        <time>2019-04-29T08:21:20Z</time>
      </trkpt>
      <trkpt lat="43.82557" lon="5.02868">
        <ele>128.706</ele>
        <time>2019-04-29T08:21:31Z</time>
      </trkpt>
      <trkpt lat="43.82535" lon="5.02834">
        <ele>128.229</ele>
        <time>2019-04-29T08:21:41Z</time>
      </trkpt>
      <trkpt lat="43.8251" lon="5.02791">
        <ele>128.234</ele>
        <time>2019-04-29T08:21:52Z</time>
      </trkpt>
      <trkpt lat="43.82487" lon="5.02753">
        <ele>128.01</ele>
        <time>2019-04-29T08:22:02Z</time>
      </trkpt>
      <trkpt lat="43.82465" lon="5.02714">
        <ele>128.091</ele>
        <time>2019-04-29T08:22:13Z</time>
      </trkpt>
      <trkpt lat="43.82445" lon="5.02681">
        <ele>128.619</ele>
        <time>2019-04-29T08:22:24Z</time>
      </trkpt>
      <trkpt lat="43.82426" lon="5.02649">
        <ele>129.632</ele>
        <time>2019-04-29T08:22:34Z</time>
      </trkpt>
      <trkpt lat="43.82405" lon="5.02613">
        <ele>130.906</ele>
        <time>2019-04-29T08:22:44Z</time>
      </trkpt>
      <trkpt lat="43.82373" lon="5.02554">
        <ele>131.003</ele>
        <time>2019-04-29T08:22:55Z</time>
      </trkpt>
      <trkpt lat="43.82357" lon="5.02521">
        <ele>128.245</ele>
        <time>2019-04-29T08:23:06Z</time>
      </trkpt>
      <trkpt lat="43.82358" lon="5.02525">
        <ele>128.007</ele>
        <time>2019-04-29T08:23:16Z</time>
      </trkpt>
      <trkpt lat="43.82357" lon="5.02524">
        <ele>127.918</ele>
        <time>2019-04-29T08:23:27Z</time>
      </trkpt>
      <trkpt lat="43.82338" lon="5.02491">
        <ele>125.103</ele>
        <time>2019-04-29T08:23:38Z</time>
      </trkpt>
      <trkpt lat="43.82328" lon="5.02474">
        <ele>123.835</ele>
        <time>2019-04-29T08:23:49Z</time>
      </trkpt>
      <trkpt lat="43.82328" lon="5.02474">
        <ele>123.759</ele>
        <time>2019-04-29T08:24:00Z</time>
      </trkpt>
      <trkpt lat="43.82328" lon="5.02474">
        <ele>123.712</ele>
        <time>2019-04-29T08:24:11Z</time>
      </trkpt>
      <trkpt lat="43.82327" lon="5.02473">
        <ele>123.436</ele>
        <time>2019-04-29T08:24:22Z</time>
      </trkpt>
      <trkpt lat="43.82327" lon="5.02472">
        <ele>123.372</ele>
        <time>2019-04-29T08:24:32Z</time>
      </trkpt>
      <trkpt lat="43.82328" lon="5.02472">
        <ele>123.349</ele>
        <time>2019-04-29T08:24:43Z</time>
      </trkpt>
      <trkpt lat="43.82328" lon="5.02473">
        <ele>122.905</ele>
        <time>2019-04-29T08:24:53Z</time>
      </trkpt>
      <trkpt lat="43.82328" lon="5.02474">
        <ele>122.656</ele>
        <time>2019-04-29T08:25:04Z</time>
      </trkpt>
      <trkpt lat="43.82328" lon="5.02474">
        <ele>122.566</ele>
        <time>2019-04-29T08:25:14Z</time>
      </trkpt>
      <trkpt lat="43.82328" lon="5.02475">
        <ele>122.376</ele>
        <time>2019-04-29T08:25:24Z</time>
      </trkpt>
      <trkpt lat="43.82328" lon="5.02475">
        <ele>122.187</ele>
        <time>2019-04-29T08:25:35Z</time>
      </trkpt>
      <trkpt lat="43.82326" lon="5.02472">
        <ele>122.481</ele>
        <time>2019-04-29T08:25:45Z</time>
      </trkpt>
      <trkpt lat="43.82323" lon="5.02465">
        <ele>122.696</ele>
        <time>2019-04-29T08:25:55Z</time>
      </trkpt>
      <trkpt lat="43.82292" lon="5.02414">
        <ele>122.853</ele>
        <time>2019-04-29T08:26:05Z</time>
      </trkpt>
      <trkpt lat="43.8225" lon="5.02345">
        <ele>121.16</ele>
        <time>2019-04-29T08:26:16Z</time>
      </trkpt>
      <trkpt lat="43.8221" lon="5.02278">
        <ele>121.373</ele>
        <time>2019-04-29T08:26:27Z</time>
      </trkpt>
      <trkpt lat="43.82188" lon="5.02218">
        <ele>116.925</ele>
        <time>2019-04-29T08:26:37Z</time>
      </trkpt>
      <trkpt lat="43.82178" lon="5.02181">
        <ele>117.666</ele>
        <time>2019-04-29T08:26:48Z</time>
      </trkpt>
      <trkpt lat="43.82177" lon="5.02181">
        <ele>117.693</ele>
        <time>2019-04-29T08:26:58Z</time>
      </trkpt>
      <trkpt lat="43.82178" lon="5.02181">
        <ele>117.695</ele>
        <time>2019-04-29T08:27:09Z</time>
      </trkpt>
      <trkpt lat="43.8218" lon="5.02155">
        <ele>117.978</ele>
        <time>2019-04-29T08:27:19Z</time>
      </trkpt>
      <trkpt lat="43.82155" lon="5.02117">
        <ele>122.638</ele>
        <time>2019-04-29T08:27:29Z</time>
      </trkpt>
      <trkpt lat="43.82137" lon="5.02112">
        <ele>122.632</ele>
        <time>2019-04-29T08:27:40Z</time>
      </trkpt>
      <trkpt lat="43.82134" lon="5.02108">
        <ele>122.587</ele>
        <time>2019-04-29T08:27:51Z</time>
      </trkpt>
      <trkpt lat="43.82134" lon="5.02108">
        <ele>122.581</ele>
        <time>2019-04-29T08:28:02Z</time>
      </trkpt>
      <trkpt lat="43.82116" lon="5.02083">
        <ele>121.694</ele>
        <time>2019-04-29T08:28:12Z</time>
      </trkpt>
      <trkpt lat="43.82091" lon="5.02027">
        <ele>120.409</ele>
        <time>2019-04-29T08:28:23Z</time>
      </trkpt>
      <trkpt lat="43.82067" lon="5.01972">
        <ele>121.171</ele>
        <time>2019-04-29T08:28:33Z</time>
      </trkpt>
      <trkpt lat="43.82032" lon="5.01907">
        <ele>119.875</ele>
        <time>2019-04-29T08:28:43Z</time>
      </trkpt>
      <trkpt lat="43.81997" lon="5.01843">
        <ele>118.463</ele>
        <time>2019-04-29T08:28:54Z</time>
      </trkpt>
      <trkpt lat="43.81967" lon="5.01781">
        <ele>119.093</ele>
        <time>2019-04-29T08:29:05Z</time>
      </trkpt>
      <trkpt lat="43.81942" lon="5.01729">
        <ele>123.328</ele>
        <time>2019-04-29T08:29:15Z</time>
      </trkpt>
      <trkpt lat="43.81917" lon="5.01686">
        <ele>123.797</ele>
        <time>2019-04-29T08:29:26Z</time>
      </trkpt>
      <trkpt lat="43.8189" lon="5.01635">
        <ele>124.33</ele>
        <time>2019-04-29T08:29:36Z</time>
      </trkpt>
      <trkpt lat="43.81866" lon="5.01596">
        <ele>124.063</ele>
        <time>2019-04-29T08:29:47Z</time>
      </trkpt>
      <trkpt lat="43.81847" lon="5.01544">
        <ele>123.029</ele>
        <time>2019-04-29T08:29:58Z</time>
      </trkpt>
      <trkpt lat="43.81816" lon="5.01585">
        <ele>122.927</ele>
        <time>2019-04-29T08:30:08Z</time>
      </trkpt>
      <trkpt lat="43.81785" lon="5.01617">
        <ele>120.663</ele>
        <time>2019-04-29T08:30:19Z</time>
      </trkpt>
      <trkpt lat="43.81791" lon="5.01626">
        <ele>120.541</ele>
        <time>2019-04-29T08:30:29Z</time>
      </trkpt>
      <trkpt lat="43.81802" lon="5.01617">
        <ele>120.002</ele>
        <time>2019-04-29T08:30:40Z</time>
      </trkpt>
      <trkpt lat="43.81844" lon="5.01607">
        <ele>120.156</ele>
        <time>2019-04-29T08:30:50Z</time>
      </trkpt>
      <trkpt lat="43.8188" lon="5.01653">
        <ele>122.623</ele>
        <time>2019-04-29T08:31:01Z</time>
      </trkpt>
      <trkpt lat="43.81901" lon="5.01699">
        <ele>122.592</ele>
        <time>2019-04-29T08:31:12Z</time>
      </trkpt>
      <trkpt lat="43.81919" lon="5.01747">
        <ele>121.696</ele>
        <time>2019-04-29T08:31:22Z</time>
      </trkpt>
      <trkpt lat="43.81941" lon="5.01795">
        <ele>118.639</ele>
        <time>2019-04-29T08:31:32Z</time>
      </trkpt>
      <trkpt lat="43.81967" lon="5.01849">
        <ele>119.926</ele>
        <time>2019-04-29T08:31:43Z</time>
      </trkpt>
      <trkpt lat="43.8199" lon="5.01894">
        <ele>121.827</ele>
        <time>2019-04-29T08:31:53Z</time>
      </trkpt>
      <trkpt lat="43.82015" lon="5.01938">
        <ele>123.499</ele>
        <time>2019-04-29T08:32:03Z</time>
      </trkpt>
      <trkpt lat="43.82042" lon="5.0199">
        <ele>123.579</ele>
        <time>2019-04-29T08:32:14Z</time>
      </trkpt>
      <trkpt lat="43.82062" lon="5.02031">
        <ele>123.635</ele>
        <time>2019-04-29T08:32:24Z</time>
      </trkpt>
      <trkpt lat="43.82027" lon="5.02097">
        <ele>119.411</ele>
        <time>2019-04-29T08:32:35Z</time>
      </trkpt>
      <trkpt lat="43.81987" lon="5.02165">
        <ele>118.513</ele>
        <time>2019-04-29T08:32:46Z</time>
      </trkpt>
      <trkpt lat="43.81951" lon="5.02224">
        <ele>118.1</ele>
        <time>2019-04-29T08:32:56Z</time>
      </trkpt>
      <trkpt lat="43.81918" lon="5.02282">
        <ele>118.654</ele>
        <time>2019-04-29T08:33:06Z</time>
      </trkpt>
      <trkpt lat="43.81881" lon="5.0234">
        <ele>117.029</ele>
        <time>2019-04-29T08:33:16Z</time>
      </trkpt>
      <trkpt lat="43.81843" lon="5.02406">
        <ele>118.104</ele>
        <time>2019-04-29T08:33:27Z</time>
      </trkpt>
      <trkpt lat="43.81813" lon="5.02464">
        <ele>120.379</ele>
        <time>2019-04-29T08:33:37Z</time>
      </trkpt>
      <trkpt lat="43.81777" lon="5.02522">
        <ele>120.582</ele>
        <time>2019-04-29T08:33:47Z</time>
      </trkpt>
      <trkpt lat="43.8174" lon="5.02587">
        <ele>121.733</ele>
        <time>2019-04-29T08:33:58Z</time>
      </trkpt>
      <trkpt lat="43.81702" lon="5.02648">
        <ele>122.355</ele>
        <time>2019-04-29T08:34:09Z</time>
      </trkpt>
      <trkpt lat="43.81669" lon="5.02708">
        <ele>121.64</ele>
        <time>2019-04-29T08:34:20Z</time>
      </trkpt>
      <trkpt lat="43.81631" lon="5.02763">
        <ele>120.444</ele>
        <time>2019-04-29T08:34:30Z</time>
      </trkpt>
      <trkpt lat="43.81601" lon="5.02819">
        <ele>119.314</ele>
        <time>2019-04-29T08:34:40Z</time>
      </trkpt>
      <trkpt lat="43.81567" lon="5.0288">
        <ele>122.263</ele>
        <time>2019-04-29T08:34:51Z</time>
      </trkpt>
      <trkpt lat="43.81533" lon="5.02933">
        <ele>122.588</ele>
        <time>2019-04-29T08:35:02Z</time>
      </trkpt>
      <trkpt lat="43.81502" lon="5.02989">
        <ele>124.843</ele>
        <time>2019-04-29T08:35:12Z</time>
      </trkpt>
      <trkpt lat="43.81461" lon="5.03038">
        <ele>122.024</ele>
        <time>2019-04-29T08:35:23Z</time>
      </trkpt>
      <trkpt lat="43.81419" lon="5.03083">
        <ele>119.758</ele>
        <time>2019-04-29T08:35:34Z</time>
      </trkpt>
      <trkpt lat="43.81386" lon="5.03122">
        <ele>120.494</ele>
        <time>2019-04-29T08:35:44Z</time>
      </trkpt>
      <trkpt lat="43.81346" lon="5.03168">
        <ele>120.062</ele>
        <time>2019-04-29T08:35:55Z</time>
      </trkpt>
      <trkpt lat="43.81312" lon="5.03203">
        <ele>119.479</ele>
        <time>2019-04-29T08:36:06Z</time>
      </trkpt>
      <trkpt lat="43.81312" lon="5.03203">
        <ele>119.681</ele>
        <time>2019-04-29T08:36:16Z</time>
      </trkpt>
      <trkpt lat="43.81312" lon="5.03203">
        <ele>119.767</ele>
        <time>2019-04-29T08:36:27Z</time>
      </trkpt>
      <trkpt lat="43.81312" lon="5.03203">
        <ele>119.86</ele>
        <time>2019-04-29T08:36:38Z</time>
      </trkpt>
      <trkpt lat="43.81312" lon="5.03203">
        <ele>119.938</ele>
        <time>2019-04-29T08:36:48Z</time>
      </trkpt>
      <trkpt lat="43.81312" lon="5.03203">
        <ele>119.986</ele>
        <time>2019-04-29T08:36:58Z</time>
      </trkpt>
      <trkpt lat="43.8131" lon="5.03206">
        <ele>120.211</ele>
        <time>2019-04-29T08:37:09Z</time>
      </trkpt>
      <trkpt lat="43.81289" lon="5.03232">
        <ele>120.95</ele>
        <time>2019-04-29T08:37:19Z</time>
      </trkpt>
      <trkpt lat="43.81255" lon="5.03273">
        <ele>128.536</ele>
        <time>2019-04-29T08:37:30Z</time>
      </trkpt>
      <trkpt lat="43.81221" lon="5.03311">
        <ele>131.094</ele>
        <time>2019-04-29T08:37:40Z</time>
      </trkpt>
      <trkpt lat="43.81183" lon="5.03353">
        <ele>132.116</ele>
        <time>2019-04-29T08:37:51Z</time>
      </trkpt>
      <trkpt lat="43.81145" lon="5.03399">
        <ele>131.601</ele>
        <time>2019-04-29T08:38:01Z</time>
      </trkpt>
      <trkpt lat="43.81096" lon="5.03442">
        <ele>128.642</ele>
        <time>2019-04-29T08:38:12Z</time>
      </trkpt>
      <trkpt lat="43.81044" lon="5.0345">
        <ele>127.423</ele>
        <time>2019-04-29T08:38:23Z</time>
      </trkpt>
      <trkpt lat="43.80996" lon="5.03453">
        <ele>127.628</ele>
        <time>2019-04-29T08:38:33Z</time>
      </trkpt>
      <trkpt lat="43.80944" lon="5.03462">
        <ele>125.782</ele>
        <time>2019-04-29T08:38:44Z</time>
      </trkpt>
      <trkpt lat="43.80898" lon="5.03487">
        <ele>126.576</ele>
        <time>2019-04-29T08:38:55Z</time>
      </trkpt>
      <trkpt lat="43.80856" lon="5.03513">
        <ele>127.407</ele>
        <time>2019-04-29T08:39:05Z</time>
      </trkpt>
      <trkpt lat="43.80811" lon="5.03551">
        <ele>126.753</ele>
        <time>2019-04-29T08:39:16Z</time>
      </trkpt>
      <trkpt lat="43.80765" lon="5.03582">
        <ele>127.336</ele>
        <time>2019-04-29T08:39:26Z</time>
      </trkpt>
      <trkpt lat="43.80719" lon="5.03599">
        <ele>127.825</ele>
        <time>2019-04-29T08:39:36Z</time>
      </trkpt>
      <trkpt lat="43.80673" lon="5.03616">
        <ele>130.808</ele>
        <time>2019-04-29T08:39:47Z</time>
      </trkpt>
      <trkpt lat="43.8062" lon="5.03643">
        <ele>133.377</ele>
        <time>2019-04-29T08:39:58Z</time>
      </trkpt>
      <trkpt lat="43.80579" lon="5.03674">
        <ele>132.971</ele>
        <time>2019-04-29T08:40:09Z</time>
      </trkpt>
      <trkpt lat="43.80537" lon="5.03712">
        <ele>131.941</ele>
        <time>2019-04-29T08:40:20Z</time>
      </trkpt>
      <trkpt lat="43.80487" lon="5.03737">
        <ele>133.768</ele>
        <time>2019-04-29T08:40:31Z</time>
      </trkpt>
      <trkpt lat="43.80436" lon="5.03747">
        <ele>135.46</ele>
        <time>2019-04-29T08:40:42Z</time>
      </trkpt>
      <trkpt lat="43.80389" lon="5.0377">
        <ele>137.458</ele>
        <time>2019-04-29T08:40:53Z</time>
      </trkpt>
      <trkpt lat="43.80341" lon="5.03793">
        <ele>144.771</ele>
        <time>2019-04-29T08:41:03Z</time>
      </trkpt>
      <trkpt lat="43.80295" lon="5.03826">
        <ele>152.373</ele>
        <time>2019-04-29T08:41:14Z</time>
      </trkpt>
      <trkpt lat="43.80249" lon="5.03859">
        <ele>152.266</ele>
        <time>2019-04-29T08:41:25Z</time>
      </trkpt>
      <trkpt lat="43.80202" lon="5.03885">
        <ele>153.238</ele>
        <time>2019-04-29T08:41:36Z</time>
      </trkpt>
      <trkpt lat="43.80156" lon="5.03885">
        <ele>141.12</ele>
        <time>2019-04-29T08:41:46Z</time>
      </trkpt>
      <trkpt lat="43.801" lon="5.03891">
        <ele>133.789</ele>
        <time>2019-04-29T08:41:57Z</time>
      </trkpt>
      <trkpt lat="43.80042" lon="5.03912">
        <ele>133.778</ele>
        <time>2019-04-29T08:42:08Z</time>
      </trkpt>
      <trkpt lat="43.79989" lon="5.0393">
        <ele>133.211</ele>
        <time>2019-04-29T08:42:19Z</time>
      </trkpt>
      <trkpt lat="43.79945" lon="5.03931">
        <ele>134.314</ele>
        <time>2019-04-29T08:42:29Z</time>
      </trkpt>
      <trkpt lat="43.79895" lon="5.03932">
        <ele>132.767</ele>
        <time>2019-04-29T08:42:40Z</time>
      </trkpt>
      <trkpt lat="43.79846" lon="5.03935">
        <ele>131.795</ele>
        <time>2019-04-29T08:42:51Z</time>
      </trkpt>
      <trkpt lat="43.79804" lon="5.03933">
        <ele>130.224</ele>
        <time>2019-04-29T08:43:02Z</time>
      </trkpt>
      <trkpt lat="43.79797" lon="5.03937">
        <ele>131.229</ele>
        <time>2019-04-29T08:43:12Z</time>
      </trkpt>
      <trkpt lat="43.79787" lon="5.03937">
        <ele>131.252</ele>
        <time>2019-04-29T08:43:23Z</time>
      </trkpt>
      <trkpt lat="43.79746" lon="5.03937">
        <ele>131.584</ele>
        <time>2019-04-29T08:43:34Z</time>
      </trkpt>
      <trkpt lat="43.79693" lon="5.03944">
        <ele>133.315</ele>
        <time>2019-04-29T08:43:45Z</time>
      </trkpt>
      <trkpt lat="43.79645" lon="5.03952">
        <ele>131.586</ele>
        <time>2019-04-29T08:43:55Z</time>
      </trkpt>
      <trkpt lat="43.79594" lon="5.03968">
        <ele>133.887</ele>
        <time>2019-04-29T08:44:06Z</time>
      </trkpt>
      <trkpt lat="43.79547" lon="5.04009">
        <ele>130.206</ele>
        <time>2019-04-29T08:44:16Z</time>
      </trkpt>
      <trkpt lat="43.79501" lon="5.04037">
        <ele>128.879</ele>
        <time>2019-04-29T08:44:27Z</time>
      </trkpt>
      <trkpt lat="43.79458" lon="5.0405">
        <ele>132.219</ele>
        <time>2019-04-29T08:44:37Z</time>
      </trkpt>
      <trkpt lat="43.79433" lon="5.04056">
        <ele>133.676</ele>
        <time>2019-04-29T08:44:48Z</time>
      </trkpt>
      <trkpt lat="43.79426" lon="5.04054">
        <ele>133.743</ele>
        <time>2019-04-29T08:44:58Z</time>
      </trkpt>
      <trkpt lat="43.79425" lon="5.04055">
        <ele>133.657</ele>
        <time>2019-04-29T08:45:08Z</time>
      </trkpt>
      <trkpt lat="43.79425" lon="5.04057">
        <ele>133.461</ele>
        <time>2019-04-29T08:45:19Z</time>
      </trkpt>
      <trkpt lat="43.79429" lon="5.04062">
        <ele>130.825</ele>
        <time>2019-04-29T08:45:29Z</time>
      </trkpt>
      <trkpt lat="43.79427" lon="5.0408">
        <ele>130.922</ele>
        <time>2019-04-29T08:45:40Z</time>
      </trkpt>
      <trkpt lat="43.79384" lon="5.04104">
        <ele>131.524</ele>
        <time>2019-04-29T08:45:50Z</time>
      </trkpt>
      <trkpt lat="43.79336" lon="5.04128">
        <ele>132.056</ele>
        <time>2019-04-29T08:46:00Z</time>
      </trkpt>
      <trkpt lat="43.79288" lon="5.04162">
        <ele>132.292</ele>
        <time>2019-04-29T08:46:11Z</time>
      </trkpt>
      <trkpt lat="43.79234" lon="5.04194">
        <ele>133.379</ele>
        <time>2019-04-29T08:46:22Z</time>
      </trkpt>
      <trkpt lat="43.79185" lon="5.04226">
        <ele>134.744</ele>
        <time>2019-04-29T08:46:33Z</time>
      </trkpt>
      <trkpt lat="43.79146" lon="5.04259">
        <ele>134.487</ele>
        <time>2019-04-29T08:46:44Z</time>
      </trkpt>
      <trkpt lat="43.79121" lon="5.04286">
        <ele>134.267</ele>
        <time>2019-04-29T08:46:55Z</time>
      </trkpt>
      <trkpt lat="43.79106" lon="5.04261">
        <ele>135.27</ele>
        <time>2019-04-29T08:47:06Z</time>
      </trkpt>
      <trkpt lat="43.791" lon="5.04247">
        <ele>136.297</ele>
        <time>2019-04-29T08:47:16Z</time>
      </trkpt>
      <trkpt lat="43.79089" lon="5.0426">
        <ele>135.764</ele>
        <time>2019-04-29T08:47:26Z</time>
      </trkpt>
      <trkpt lat="43.79083" lon="5.04266">
        <ele>134.626</ele>
        <time>2019-04-29T08:47:37Z</time>
      </trkpt>
      <trkpt lat="43.79082" lon="5.04271">
        <ele>131.827</ele>
        <time>2019-04-29T08:47:48Z</time>
      </trkpt>
      <trkpt lat="43.79084" lon="5.04269">
        <ele>131.444</ele>
        <time>2019-04-29T08:47:58Z</time>
      </trkpt>
      <trkpt lat="43.79084" lon="5.04268">
        <ele>131.487</ele>
        <time>2019-04-29T08:48:08Z</time>
      </trkpt>
      <trkpt lat="43.79084" lon="5.04269">
        <ele>131.33</ele>
        <time>2019-04-29T08:48:18Z</time>
      </trkpt>
      <trkpt lat="43.79087" lon="5.04267">
        <ele>130.61</ele>
        <time>2019-04-29T08:48:29Z</time>
      </trkpt>
      <trkpt lat="43.79095" lon="5.04253">
        <ele>131.923</ele>
        <time>2019-04-29T08:48:39Z</time>
      </trkpt>
      <trkpt lat="43.79117" lon="5.04206">
        <ele>132.345</ele>
        <time>2019-04-29T08:48:50Z</time>
      </trkpt>
      <trkpt lat="43.79137" lon="5.0416">
        <ele>134.507</ele>
        <time>2019-04-29T08:49:00Z</time>
      </trkpt>
      <trkpt lat="43.7916" lon="5.04116">
        <ele>134.554</ele>
        <time>2019-04-29T08:49:11Z</time>
      </trkpt>
      <trkpt lat="43.79171" lon="5.04075">
        <ele>135.053</ele>
        <time>2019-04-29T08:49:21Z</time>
      </trkpt>
      <trkpt lat="43.79167" lon="5.04045">
        <ele>135.732</ele>
        <time>2019-04-29T08:49:31Z</time>
      </trkpt>
      <trkpt lat="43.79136" lon="5.04044">
        <ele>136.389</ele>
        <time>2019-04-29T08:49:42Z</time>
      </trkpt>
      <trkpt lat="43.79101" lon="5.04038">
        <ele>137.36</ele>
        <time>2019-04-29T08:49:52Z</time>
      </trkpt>
      <trkpt lat="43.79077" lon="5.04023">
        <ele>137.682</ele>
        <time>2019-04-29T08:50:02Z</time>
      </trkpt>
      <trkpt lat="43.79068" lon="5.03997">
        <ele>138.549</ele>
        <time>2019-04-29T08:50:13Z</time>
      </trkpt>
      <trkpt lat="43.79055" lon="5.03977">
        <ele>139.366</ele>
        <time>2019-04-29T08:50:23Z</time>
      </trkpt>
      <trkpt lat="43.79038" lon="5.03971">
        <ele>140.391</ele>
        <time>2019-04-29T08:50:34Z</time>
      </trkpt>
      <trkpt lat="43.79016" lon="5.0397">
        <ele>141.939</ele>
        <time>2019-04-29T08:50:44Z</time>
      </trkpt>
      <trkpt lat="43.7901" lon="5.03947">
        <ele>143.918</ele>
        <time>2019-04-29T08:50:55Z</time>
      </trkpt>
      <trkpt lat="43.79012" lon="5.03924">
        <ele>144.277</ele>
        <time>2019-04-29T08:51:06Z</time>
      </trkpt>
      <trkpt lat="43.79006" lon="5.03917">
        <ele>144.591</ele>
        <time>2019-04-29T08:51:16Z</time>
      </trkpt>
      <trkpt lat="43.79005" lon="5.03928">
        <ele>145.082</ele>
        <time>2019-04-29T08:51:27Z</time>
      </trkpt>
      <trkpt lat="43.79004" lon="5.03903">
        <ele>145.502</ele>
        <time>2019-04-29T08:51:37Z</time>
      </trkpt>
      <trkpt lat="43.79" lon="5.03883">
        <ele>146.277</ele>
        <time>2019-04-29T08:51:48Z</time>
      </trkpt>
      <trkpt lat="43.79004" lon="5.03859">
        <ele>146.853</ele>
        <time>2019-04-29T08:51:59Z</time>
      </trkpt>
      <trkpt lat="43.79007" lon="5.03838">
        <ele>147.729</ele>
        <time>2019-04-29T08:52:10Z</time>
      </trkpt>
      <trkpt lat="43.79013" lon="5.0382">
        <ele>148.967</ele>
        <time>2019-04-29T08:52:20Z</time>
      </trkpt>
      <trkpt lat="43.79018" lon="5.03799">
        <ele>150.426</ele>
        <time>2019-04-29T08:52:31Z</time>
      </trkpt>
      <trkpt lat="43.79025" lon="5.03778">
        <ele>151.624</ele>
        <time>2019-04-29T08:52:42Z</time>
      </trkpt>
      <trkpt lat="43.79029" lon="5.03759">
        <ele>152.795</ele>
        <time>2019-04-29T08:52:52Z</time>
      </trkpt>
      <trkpt lat="43.79037" lon="5.03744">
        <ele>153.888</ele>
        <time>2019-04-29T08:53:03Z</time>
      </trkpt>
      <trkpt lat="43.79063" lon="5.03756">
        <ele>154.743</ele>
        <time>2019-04-29T08:53:14Z</time>
      </trkpt>
      <trkpt lat="43.7908" lon="5.03739">
        <ele>154.986</ele>
        <time>2019-04-29T08:53:24Z</time>
      </trkpt>
      <trkpt lat="43.7908" lon="5.03689">
        <ele>156.944</ele>
        <time>2019-04-29T08:53:35Z</time>
      </trkpt>
      <trkpt lat="43.791" lon="5.03657">
        <ele>155.195</ele>
        <time>2019-04-29T08:53:45Z</time>
      </trkpt>
      <trkpt lat="43.79106" lon="5.03652">
        <ele>154.277</ele>
        <time>2019-04-29T08:53:56Z</time>
      </trkpt>
      <trkpt lat="43.79109" lon="5.03644">
        <ele>153.688</ele>
        <time>2019-04-29T08:54:07Z</time>
      </trkpt>
      <trkpt lat="43.79109" lon="5.03645">
        <ele>153.709</ele>
        <time>2019-04-29T08:54:17Z</time>
      </trkpt>
      <trkpt lat="43.79117" lon="5.03643">
        <ele>153.751</ele>
        <time>2019-04-29T08:54:27Z</time>
      </trkpt>
      <trkpt lat="43.79125" lon="5.03602">
        <ele>152.894</ele>
        <time>2019-04-29T08:54:38Z</time>
      </trkpt>
      <trkpt lat="43.79136" lon="5.03529">
        <ele>149.444</ele>
        <time>2019-04-29T08:54:49Z</time>
      </trkpt>
      <trkpt lat="43.79137" lon="5.03523">
        <ele>149.001</ele>
        <time>2019-04-29T08:55:00Z</time>
      </trkpt>
      <trkpt lat="43.79137" lon="5.03523">
        <ele>148.909</ele>
        <time>2019-04-29T08:55:10Z</time>
      </trkpt>
      <trkpt lat="43.79137" lon="5.03524">
        <ele>148.686</ele>
        <time>2019-04-29T08:55:20Z</time>
      </trkpt>
      <trkpt lat="43.7914" lon="5.03495">
        <ele>147.756</ele>
        <time>2019-04-29T08:55:31Z</time>
      </trkpt>
      <trkpt lat="43.79148" lon="5.03451">
        <ele>146.93</ele>
        <time>2019-04-29T08:55:42Z</time>
      </trkpt>
      <trkpt lat="43.79158" lon="5.03412">
        <ele>146.705</ele>
        <time>2019-04-29T08:55:52Z</time>
      </trkpt>
      <trkpt lat="43.79164" lon="5.03367">
        <ele>146.678</ele>
        <time>2019-04-29T08:56:02Z</time>
      </trkpt>
      <trkpt lat="43.79175" lon="5.03312">
        <ele>148.018</ele>
        <time>2019-04-29T08:56:12Z</time>
      </trkpt>
      <trkpt lat="43.79184" lon="5.0326">
        <ele>147.96</ele>
        <time>2019-04-29T08:56:22Z</time>
      </trkpt>
      <trkpt lat="43.79194" lon="5.03206">
        <ele>147.826</ele>
        <time>2019-04-29T08:56:33Z</time>
      </trkpt>
      <trkpt lat="43.79202" lon="5.03153">
        <ele>147.581</ele>
        <time>2019-04-29T08:56:43Z</time>
      </trkpt>
      <trkpt lat="43.79211" lon="5.03109">
        <ele>146.977</ele>
        <time>2019-04-29T08:56:53Z</time>
      </trkpt>
      <trkpt lat="43.79224" lon="5.03065">
        <ele>146.562</ele>
        <time>2019-04-29T08:57:04Z</time>
      </trkpt>
      <trkpt lat="43.79255" lon="5.03052">
        <ele>146.6</ele>
        <time>2019-04-29T08:57:15Z</time>
      </trkpt>
      <trkpt lat="43.79254" lon="5.03051">
        <ele>146.658</ele>
        <time>2019-04-29T08:57:25Z</time>
      </trkpt>
      <trkpt lat="43.79254" lon="5.03051">
        <ele>146.729</ele>
        <time>2019-04-29T08:57:35Z</time>
      </trkpt>
      <trkpt lat="43.79253" lon="5.03052">
        <ele>147.085</ele>
        <time>2019-04-29T08:57:46Z</time>
      </trkpt>
      <trkpt lat="43.79253" lon="5.03051">
        <ele>147.348</ele>
        <time>2019-04-29T08:57:57Z</time>
      </trkpt>
      <trkpt lat="43.79253" lon="5.03051">
        <ele>147.45</ele>
        <time>2019-04-29T08:58:07Z</time>
      </trkpt>
      <trkpt lat="43.79253" lon="5.03052">
        <ele>147.52</ele>
        <time>2019-04-29T08:58:18Z</time>
      </trkpt>
      <trkpt lat="43.7925" lon="5.03048">
        <ele>147.903</ele>
        <time>2019-04-29T08:58:29Z</time>
      </trkpt>
      <trkpt lat="43.79261" lon="5.03009">
        <ele>147.68</ele>
        <time>2019-04-29T08:58:39Z</time>
      </trkpt>
      <trkpt lat="43.79253" lon="5.02974">
        <ele>147.148</ele>
        <time>2019-04-29T08:58:49Z</time>
      </trkpt>
      <trkpt lat="43.79284" lon="5.02941">
        <ele>145.002</ele>
        <time>2019-04-29T08:59:00Z</time>
      </trkpt>
      <trkpt lat="43.79277" lon="5.02878">
        <ele>146.35</ele>
        <time>2019-04-29T08:59:11Z</time>
      </trkpt>
      <trkpt lat="43.79232" lon="5.02895">
        <ele>147.685</ele>
        <time>2019-04-29T08:59:22Z</time>
      </trkpt>
      <trkpt lat="43.79186" lon="5.0289">
        <ele>147.384</ele>
        <time>2019-04-29T08:59:32Z</time>
      </trkpt>
      <trkpt lat="43.7915" lon="5.02865">
        <ele>147.561</ele>
        <time>2019-04-29T08:59:43Z</time>
      </trkpt>
      <trkpt lat="43.79126" lon="5.02826">
        <ele>147.902</ele>
        <time>2019-04-29T08:59:54Z</time>
      </trkpt>
      <trkpt lat="43.79108" lon="5.02793">
        <ele>148.748</ele>
        <time>2019-04-29T09:00:04Z</time>
      </trkpt>
      <trkpt lat="43.79088" lon="5.02761">
        <ele>149.958</ele>
        <time>2019-04-29T09:00:15Z</time>
      </trkpt>
      <trkpt lat="43.79069" lon="5.02733">
        <ele>150.856</ele>
        <time>2019-04-29T09:00:25Z</time>
      </trkpt>
      <trkpt lat="43.79047" lon="5.02708">
        <ele>151.733</ele>
        <time>2019-04-29T09:00:35Z</time>
      </trkpt>
      <trkpt lat="43.7902" lon="5.02684">
        <ele>152.829</ele>
        <time>2019-04-29T09:00:46Z</time>
      </trkpt>
      <trkpt lat="43.78994" lon="5.02668">
        <ele>153.998</ele>
        <time>2019-04-29T09:00:56Z</time>
      </trkpt>
      <trkpt lat="43.78963" lon="5.02653">
        <ele>155.055</ele>
        <time>2019-04-29T09:01:07Z</time>
      </trkpt>
      <trkpt lat="43.78934" lon="5.02643">
        <ele>156.211</ele>
        <time>2019-04-29T09:01:18Z</time>
      </trkpt>
      <trkpt lat="43.78905" lon="5.02633">
        <ele>157.996</ele>
        <time>2019-04-29T09:01:29Z</time>
      </trkpt>
      <trkpt lat="43.78904" lon="5.026">
        <ele>158.919</ele>
        <time>2019-04-29T09:01:39Z</time>
      </trkpt>
      <trkpt lat="43.78904" lon="5.026">
        <ele>158.884</ele>
        <time>2019-04-29T09:01:49Z</time>
      </trkpt>
      <trkpt lat="43.78894" lon="5.02595">
        <ele>158.586</ele>
        <time>2019-04-29T09:02:00Z</time>
      </trkpt>
      <trkpt lat="43.78894" lon="5.02595">
        <ele>158.584</ele>
        <time>2019-04-29T09:02:11Z</time>
      </trkpt>
      <trkpt lat="43.78895" lon="5.02596">
        <ele>158.512</ele>
        <time>2019-04-29T09:02:22Z</time>
      </trkpt>
      <trkpt lat="43.78895" lon="5.02596">
        <ele>158.393</ele>
        <time>2019-04-29T09:02:33Z</time>
      </trkpt>
      <trkpt lat="43.78896" lon="5.02596">
        <ele>158.272</ele>
        <time>2019-04-29T09:02:43Z</time>
      </trkpt>
      <trkpt lat="43.78896" lon="5.02596">
        <ele>158.193</ele>
        <time>2019-04-29T09:02:54Z</time>
      </trkpt>
      <trkpt lat="43.78896" lon="5.02596">
        <ele>158.095</ele>
        <time>2019-04-29T09:03:05Z</time>
      </trkpt>
      <trkpt lat="43.78896" lon="5.02596">
        <ele>158.03</ele>
        <time>2019-04-29T09:03:15Z</time>
      </trkpt>
      <trkpt lat="43.78895" lon="5.02596">
        <ele>157.974</ele>
        <time>2019-04-29T09:03:26Z</time>
      </trkpt>
      <trkpt lat="43.78895" lon="5.02596">
        <ele>157.954</ele>
        <time>2019-04-29T09:03:36Z</time>
      </trkpt>
      <trkpt lat="43.78895" lon="5.02597">
        <ele>157.926</ele>
        <time>2019-04-29T09:03:47Z</time>
      </trkpt>
      <trkpt lat="43.78895" lon="5.02597">
        <ele>157.886</ele>
        <time>2019-04-29T09:03:57Z</time>
      </trkpt>
      <trkpt lat="43.78895" lon="5.02597">
        <ele>157.842</ele>
        <time>2019-04-29T09:04:08Z</time>
      </trkpt>
      <trkpt lat="43.78895" lon="5.02598">
        <ele>157.743</ele>
        <time>2019-04-29T09:04:18Z</time>
      </trkpt>
      <trkpt lat="43.78895" lon="5.02598">
        <ele>157.665</ele>
        <time>2019-04-29T09:04:29Z</time>
      </trkpt>
      <trkpt lat="43.78895" lon="5.02598">
        <ele>157.548</ele>
        <time>2019-04-29T09:04:39Z</time>
      </trkpt>
      <trkpt lat="43.78895" lon="5.02598">
        <ele>157.456</ele>
        <time>2019-04-29T09:04:50Z</time>
      </trkpt>
      <trkpt lat="43.78894" lon="5.02598">
        <ele>157.413</ele>
        <time>2019-04-29T09:05:00Z</time>
      </trkpt>
      <trkpt lat="43.78894" lon="5.02597">
        <ele>157.353</ele>
        <time>2019-04-29T09:05:11Z</time>
      </trkpt>
      <trkpt lat="43.78894" lon="5.02598">
        <ele>157.314</ele>
        <time>2019-04-29T09:05:21Z</time>
      </trkpt>
      <trkpt lat="43.78894" lon="5.02598">
        <ele>157.321</ele>
        <time>2019-04-29T09:05:32Z</time>
      </trkpt>
      <trkpt lat="43.78894" lon="5.02598">
        <ele>157.359</ele>
        <time>2019-04-29T09:05:42Z</time>
      </trkpt>
      <trkpt lat="43.78894" lon="5.02598">
        <ele>157.409</ele>
        <time>2019-04-29T09:05:53Z</time>
      </trkpt>
      <trkpt lat="43.78894" lon="5.02598">
        <ele>157.455</ele>
        <time>2019-04-29T09:06:04Z</time>
      </trkpt>
      <trkpt lat="43.78894" lon="5.02598">
        <ele>157.463</ele>
        <time>2019-04-29T09:06:15Z</time>
      </trkpt>
      <trkpt lat="43.78894" lon="5.02598">
        <ele>157.464</ele>
        <time>2019-04-29T09:06:25Z</time>
      </trkpt>
      <trkpt lat="43.78894" lon="5.02599">
        <ele>157.498</ele>
        <time>2019-04-29T09:06:35Z</time>
      </trkpt>
      <trkpt lat="43.78894" lon="5.02598">
        <ele>157.54</ele>
        <time>2019-04-29T09:06:46Z</time>
      </trkpt>
      <trkpt lat="43.78894" lon="5.02598">
        <ele>157.562</ele>
        <time>2019-04-29T09:06:56Z</time>
      </trkpt>
      <trkpt lat="43.78893" lon="5.02597">
        <ele>157.657</ele>
        <time>2019-04-29T09:07:07Z</time>
      </trkpt>
      <trkpt lat="43.78901" lon="5.02605">
        <ele>157.683</ele>
        <time>2019-04-29T09:07:18Z</time>
      </trkpt>
      <trkpt lat="43.789" lon="5.02615">
        <ele>157.843</ele>
        <time>2019-04-29T09:07:29Z</time>
      </trkpt>
      <trkpt lat="43.78886" lon="5.02624">
        <ele>158.958</ele>
        <time>2019-04-29T09:07:39Z</time>
      </trkpt>
      <trkpt lat="43.7886" lon="5.02616">
        <ele>160.552</ele>
        <time>2019-04-29T09:07:50Z</time>
      </trkpt>
      <trkpt lat="43.78837" lon="5.02606">
        <ele>162.143</ele>
        <time>2019-04-29T09:08:00Z</time>
      </trkpt>
      <trkpt lat="43.78809" lon="5.02593">
        <ele>164.028</ele>
        <time>2019-04-29T09:08:11Z</time>
      </trkpt>
      <trkpt lat="43.7878" lon="5.02582">
        <ele>165.026</ele>
        <time>2019-04-29T09:08:21Z</time>
      </trkpt>
      <trkpt lat="43.78751" lon="5.02573">
        <ele>165.669</ele>
        <time>2019-04-29T09:08:32Z</time>
      </trkpt>
      <trkpt lat="43.78721" lon="5.02566">
        <ele>165.993</ele>
        <time>2019-04-29T09:08:42Z</time>
      </trkpt>
      <trkpt lat="43.78684" lon="5.02558">
        <ele>167.019</ele>
        <time>2019-04-29T09:08:53Z</time>
      </trkpt>
      <trkpt lat="43.7865" lon="5.02543">
        <ele>168.036</ele>
        <time>2019-04-29T09:09:03Z</time>
      </trkpt>
      <trkpt lat="43.78625" lon="5.02519">
        <ele>168.856</ele>
        <time>2019-04-29T09:09:14Z</time>
      </trkpt>
      <trkpt lat="43.78599" lon="5.02491">
        <ele>169.48</ele>
        <time>2019-04-29T09:09:24Z</time>
      </trkpt>
      <trkpt lat="43.78578" lon="5.02454">
        <ele>170.094</ele>
        <time>2019-04-29T09:09:34Z</time>
      </trkpt>
      <trkpt lat="43.78556" lon="5.02408">
        <ele>168.812</ele>
        <time>2019-04-29T09:09:44Z</time>
      </trkpt>
      <trkpt lat="43.78541" lon="5.02353">
        <ele>167.518</ele>
        <time>2019-04-29T09:09:54Z</time>
      </trkpt>
      <trkpt lat="43.78523" lon="5.02286">
        <ele>165.941</ele>
        <time>2019-04-29T09:10:05Z</time>
      </trkpt>
      <trkpt lat="43.78511" lon="5.02216">
        <ele>164.042</ele>
        <time>2019-04-29T09:10:15Z</time>
      </trkpt>
      <trkpt lat="43.78495" lon="5.02132">
        <ele>165.28</ele>
        <time>2019-04-29T09:10:26Z</time>
      </trkpt>
      <trkpt lat="43.7847" lon="5.02054">
        <ele>163.583</ele>
        <time>2019-04-29T09:10:37Z</time>
      </trkpt>
      <trkpt lat="43.78451" lon="5.01985">
        <ele>162.437</ele>
        <time>2019-04-29T09:10:48Z</time>
      </trkpt>
      <trkpt lat="43.78432" lon="5.01935">
        <ele>163.228</ele>
        <time>2019-04-29T09:10:59Z</time>
      </trkpt>
      <trkpt lat="43.78449" lon="5.01916">
        <ele>163.413</ele>
        <time>2019-04-29T09:11:09Z</time>
      </trkpt>
      <trkpt lat="43.78446" lon="5.01914">
        <ele>163.438</ele>
        <time>2019-04-29T09:11:20Z</time>
      </trkpt>
      <trkpt lat="43.78446" lon="5.01913">
        <ele>163.552</ele>
        <time>2019-04-29T09:11:31Z</time>
      </trkpt>
      <trkpt lat="43.78447" lon="5.01913">
        <ele>163.451</ele>
        <time>2019-04-29T09:11:41Z</time>
      </trkpt>
      <trkpt lat="43.78447" lon="5.01913">
        <ele>163.39</ele>
        <time>2019-04-29T09:11:51Z</time>
      </trkpt>
      <trkpt lat="43.78447" lon="5.01914">
        <ele>163.261</ele>
        <time>2019-04-29T09:12:02Z</time>
      </trkpt>
      <trkpt lat="43.78448" lon="5.01914">
        <ele>163.388</ele>
        <time>2019-04-29T09:12:12Z</time>
      </trkpt>
      <trkpt lat="43.78446" lon="5.01913">
        <ele>163.282</ele>
        <time>2019-04-29T09:12:23Z</time>
      </trkpt>
      <trkpt lat="43.78444" lon="5.01921">
        <ele>163.479</ele>
        <time>2019-04-29T09:12:33Z</time>
      </trkpt>
      <trkpt lat="43.78435" lon="5.01928">
        <ele>164.022</ele>
        <time>2019-04-29T09:12:44Z</time>
      </trkpt>
      <trkpt lat="43.78429" lon="5.01925">
        <ele>165.4</ele>
        <time>2019-04-29T09:12:55Z</time>
      </trkpt>
      <trkpt lat="43.7842" lon="5.01918">
        <ele>165.395</ele>
        <time>2019-04-29T09:13:05Z</time>
      </trkpt>
      <trkpt lat="43.78405" lon="5.01858">
        <ele>164.145</ele>
        <time>2019-04-29T09:13:16Z</time>
      </trkpt>
      <trkpt lat="43.78389" lon="5.01778">
        <ele>163.708</ele>
        <time>2019-04-29T09:13:27Z</time>
      </trkpt>
      <trkpt lat="43.78372" lon="5.01708">
        <ele>163.316</ele>
        <time>2019-04-29T09:13:38Z</time>
      </trkpt>
      <trkpt lat="43.78357" lon="5.01647">
        <ele>161.205</ele>
        <time>2019-04-29T09:13:48Z</time>
      </trkpt>
      <trkpt lat="43.7834" lon="5.01577">
        <ele>160.537</ele>
        <time>2019-04-29T09:13:59Z</time>
      </trkpt>
      <trkpt lat="43.78311" lon="5.0153">
        <ele>163.083</ele>
        <time>2019-04-29T09:14:09Z</time>
      </trkpt>
      <trkpt lat="43.78278" lon="5.01497">
        <ele>165.052</ele>
        <time>2019-04-29T09:14:19Z</time>
      </trkpt>
      <trkpt lat="43.78243" lon="5.01448">
        <ele>165.505</ele>
        <time>2019-04-29T09:14:30Z</time>
      </trkpt>
      <trkpt lat="43.78219" lon="5.0139">
        <ele>162.245</ele>
        <time>2019-04-29T09:14:41Z</time>
      </trkpt>
      <trkpt lat="43.78197" lon="5.01322">
        <ele>161.596</ele>
        <time>2019-04-29T09:14:51Z</time>
      </trkpt>
      <trkpt lat="43.78159" lon="5.01242">
        <ele>161.866</ele>
        <time>2019-04-29T09:15:02Z</time>
      </trkpt>
      <trkpt lat="43.78115" lon="5.01197">
        <ele>164.265</ele>
        <time>2019-04-29T09:15:12Z</time>
      </trkpt>
      <trkpt lat="43.78079" lon="5.01141">
        <ele>166.576</ele>
        <time>2019-04-29T09:15:23Z</time>
      </trkpt>
      <trkpt lat="43.78057" lon="5.01095">
        <ele>166.036</ele>
        <time>2019-04-29T09:15:33Z</time>
      </trkpt>
      <trkpt lat="43.78026" lon="5.01041">
        <ele>165.79</ele>
        <time>2019-04-29T09:15:44Z</time>
      </trkpt>
      <trkpt lat="43.77991" lon="5.00981">
        <ele>168.056</ele>
        <time>2019-04-29T09:15:55Z</time>
      </trkpt>
      <trkpt lat="43.77963" lon="5.00913">
        <ele>166.401</ele>
        <time>2019-04-29T09:16:06Z</time>
      </trkpt>
      <trkpt lat="43.77934" lon="5.00848">
        <ele>163.199</ele>
        <time>2019-04-29T09:16:16Z</time>
      </trkpt>
      <trkpt lat="43.77898" lon="5.00774">
        <ele>166.275</ele>
        <time>2019-04-29T09:16:27Z</time>
      </trkpt>
      <trkpt lat="43.77861" lon="5.00709">
        <ele>169.744</ele>
        <time>2019-04-29T09:16:37Z</time>
      </trkpt>
      <trkpt lat="43.77821" lon="5.00633">
        <ele>168.817</ele>
        <time>2019-04-29T09:16:48Z</time>
      </trkpt>
      <trkpt lat="43.77778" lon="5.00581">
        <ele>163.812</ele>
        <time>2019-04-29T09:16:58Z</time>
      </trkpt>
      <trkpt lat="43.77734" lon="5.00517">
        <ele>163.176</ele>
        <time>2019-04-29T09:17:09Z</time>
      </trkpt>
      <trkpt lat="43.77702" lon="5.0045">
        <ele>162.366</ele>
        <time>2019-04-29T09:17:19Z</time>
      </trkpt>
      <trkpt lat="43.77667" lon="5.00384">
        <ele>161.097</ele>
        <time>2019-04-29T09:17:30Z</time>
      </trkpt>
      <trkpt lat="43.77643" lon="5.00333">
        <ele>161.819</ele>
        <time>2019-04-29T09:17:40Z</time>
      </trkpt>
      <trkpt lat="43.77619" lon="5.00277">
        <ele>163.448</ele>
        <time>2019-04-29T09:17:51Z</time>
      </trkpt>
      <trkpt lat="43.77585" lon="5.00226">
        <ele>162.576</ele>
        <time>2019-04-29T09:18:02Z</time>
      </trkpt>
      <trkpt lat="43.77558" lon="5.0018">
        <ele>162.684</ele>
        <time>2019-04-29T09:18:12Z</time>
      </trkpt>
      <trkpt lat="43.77529" lon="5.00127">
        <ele>163.81</ele>
        <time>2019-04-29T09:18:23Z</time>
      </trkpt>
      <trkpt lat="43.77501" lon="5.00078">
        <ele>164.417</ele>
        <time>2019-04-29T09:18:33Z</time>
      </trkpt>
      <trkpt lat="43.7747" lon="5.00021">
        <ele>164.598</ele>
        <time>2019-04-29T09:18:44Z</time>
      </trkpt>
      <trkpt lat="43.77443" lon="4.99952">
        <ele>163.434</ele>
        <time>2019-04-29T09:18:55Z</time>
      </trkpt>
      <trkpt lat="43.7742" lon="4.99875">
        <ele>162.245</ele>
        <time>2019-04-29T09:19:05Z</time>
      </trkpt>
      <trkpt lat="43.77394" lon="4.99806">
        <ele>162.143</ele>
        <time>2019-04-29T09:19:16Z</time>
      </trkpt>
      <trkpt lat="43.77369" lon="4.99741">
        <ele>158.981</ele>
        <time>2019-04-29T09:19:26Z</time>
      </trkpt>
      <trkpt lat="43.77346" lon="4.99679">
        <ele>158.501</ele>
        <time>2019-04-29T09:19:36Z</time>
      </trkpt>
      <trkpt lat="43.7732" lon="4.99604">
        <ele>159.041</ele>
        <time>2019-04-29T09:19:47Z</time>
      </trkpt>
      <trkpt lat="43.77292" lon="4.99523">
        <ele>158.059</ele>
        <time>2019-04-29T09:19:57Z</time>
      </trkpt>
      <trkpt lat="43.77266" lon="4.99429">
        <ele>156.991</ele>
        <time>2019-04-29T09:20:08Z</time>
      </trkpt>
      <trkpt lat="43.77253" lon="4.9935">
        <ele>155.921</ele>
        <time>2019-04-29T09:20:18Z</time>
      </trkpt>
      <trkpt lat="43.7724" lon="4.99262">
        <ele>154.194</ele>
        <time>2019-04-29T09:20:29Z</time>
      </trkpt>
      <trkpt lat="43.77236" lon="4.99185">
        <ele>153.332</ele>
        <time>2019-04-29T09:20:40Z</time>
      </trkpt>
      <trkpt lat="43.77232" lon="4.99111">
        <ele>152.984</ele>
        <time>2019-04-29T09:20:50Z</time>
      </trkpt>
      <trkpt lat="43.77226" lon="4.99048">
        <ele>152.977</ele>
        <time>2019-04-29T09:21:00Z</time>
      </trkpt>
      <trkpt lat="43.77208" lon="4.98985">
        <ele>152.945</ele>
        <time>2019-04-29T09:21:11Z</time>
      </trkpt>
      <trkpt lat="43.77177" lon="4.98939">
        <ele>153.368</ele>
        <time>2019-04-29T09:21:22Z</time>
      </trkpt>
      <trkpt lat="43.77156" lon="4.98886">
        <ele>154.227</ele>
        <time>2019-04-29T09:21:33Z</time>
      </trkpt>
      <trkpt lat="43.77138" lon="4.9884">
        <ele>154.402</ele>
        <time>2019-04-29T09:21:43Z</time>
      </trkpt>
      <trkpt lat="43.77116" lon="4.98793">
        <ele>154.67</ele>
        <time>2019-04-29T09:21:54Z</time>
      </trkpt>
      <trkpt lat="43.77093" lon="4.98741">
        <ele>156.221</ele>
        <time>2019-04-29T09:22:05Z</time>
      </trkpt>
      <trkpt lat="43.7707" lon="4.98694">
        <ele>156.943</ele>
        <time>2019-04-29T09:22:16Z</time>
      </trkpt>
      <trkpt lat="43.77048" lon="4.98658">
        <ele>157.069</ele>
        <time>2019-04-29T09:22:26Z</time>
      </trkpt>
      <trkpt lat="43.77021" lon="4.98613">
        <ele>157.586</ele>
        <time>2019-04-29T09:22:37Z</time>
      </trkpt>
      <trkpt lat="43.76995" lon="4.98564">
        <ele>158.004</ele>
        <time>2019-04-29T09:22:48Z</time>
      </trkpt>
      <trkpt lat="43.76973" lon="4.98519">
        <ele>158.659</ele>
        <time>2019-04-29T09:22:58Z</time>
      </trkpt>
      <trkpt lat="43.76946" lon="4.98476">
        <ele>159.764</ele>
        <time>2019-04-29T09:23:09Z</time>
      </trkpt>
      <trkpt lat="43.76908" lon="4.98433">
        <ele>161.489</ele>
        <time>2019-04-29T09:23:20Z</time>
      </trkpt>
      <trkpt lat="43.76875" lon="4.98396">
        <ele>161.846</ele>
        <time>2019-04-29T09:23:30Z</time>
      </trkpt>
      <trkpt lat="43.76837" lon="4.98352">
        <ele>162.599</ele>
        <time>2019-04-29T09:23:41Z</time>
      </trkpt>
      <trkpt lat="43.768" lon="4.98307">
        <ele>162.252</ele>
        <time>2019-04-29T09:23:51Z</time>
      </trkpt>
      <trkpt lat="43.76764" lon="4.98262">
        <ele>162.376</ele>
        <time>2019-04-29T09:24:01Z</time>
      </trkpt>
      <trkpt lat="43.76725" lon="4.98207">
        <ele>162.384</ele>
        <time>2019-04-29T09:24:12Z</time>
      </trkpt>
      <trkpt lat="43.76686" lon="4.9815">
        <ele>162.619</ele>
        <time>2019-04-29T09:24:23Z</time>
      </trkpt>
      <trkpt lat="43.7665" lon="4.98092">
        <ele>162.258</ele>
        <time>2019-04-29T09:24:34Z</time>
      </trkpt>
      <trkpt lat="43.76622" lon="4.98045">
        <ele>162.517</ele>
        <time>2019-04-29T09:24:44Z</time>
      </trkpt>
      <trkpt lat="43.766" lon="4.98007">
        <ele>162.668</ele>
        <time>2019-04-29T09:24:55Z</time>
      </trkpt>
      <trkpt lat="43.7658" lon="4.97966">
        <ele>163.371</ele>
        <time>2019-04-29T09:25:05Z</time>
      </trkpt>
      <trkpt lat="43.76566" lon="4.97913">
        <ele>163.657</ele>
        <time>2019-04-29T09:25:16Z</time>
      </trkpt>
      <trkpt lat="43.7655" lon="4.97858">
        <ele>164.468</ele>
        <time>2019-04-29T09:25:27Z</time>
      </trkpt>
      <trkpt lat="43.76534" lon="4.97784">
        <ele>164.139</ele>
        <time>2019-04-29T09:25:38Z</time>
      </trkpt>
      <trkpt lat="43.76519" lon="4.97708">
        <ele>161.61</ele>
        <time>2019-04-29T09:25:48Z</time>
      </trkpt>
      <trkpt lat="43.76498" lon="4.97611">
        <ele>159.442</ele>
        <time>2019-04-29T09:25:59Z</time>
      </trkpt>
      <trkpt lat="43.76482" lon="4.97521">
        <ele>158.351</ele>
        <time>2019-04-29T09:26:10Z</time>
      </trkpt>
      <trkpt lat="43.76454" lon="4.97431">
        <ele>158.238</ele>
        <time>2019-04-29T09:26:21Z</time>
      </trkpt>
      <trkpt lat="43.76424" lon="4.97338">
        <ele>157.991</ele>
        <time>2019-04-29T09:26:31Z</time>
      </trkpt>
      <trkpt lat="43.76404" lon="4.97232">
        <ele>155.448</ele>
        <time>2019-04-29T09:26:42Z</time>
      </trkpt>
      <trkpt lat="43.764" lon="4.97116">
        <ele>153.988</ele>
        <time>2019-04-29T09:26:53Z</time>
      </trkpt>
      <trkpt lat="43.76381" lon="4.97017">
        <ele>152.622</ele>
        <time>2019-04-29T09:27:04Z</time>
      </trkpt>
      <trkpt lat="43.7637" lon="4.96936">
        <ele>151.538</ele>
        <time>2019-04-29T09:27:15Z</time>
      </trkpt>
      <trkpt lat="43.76362" lon="4.96871">
        <ele>150.461</ele>
        <time>2019-04-29T09:27:26Z</time>
      </trkpt>
      <trkpt lat="43.76353" lon="4.96809">
        <ele>149.59</ele>
        <time>2019-04-29T09:27:36Z</time>
      </trkpt>
      <trkpt lat="43.76344" lon="4.96739">
        <ele>148.995</ele>
        <time>2019-04-29T09:27:47Z</time>
      </trkpt>
      <trkpt lat="43.76331" lon="4.96688">
        <ele>148.796</ele>
        <time>2019-04-29T09:27:57Z</time>
      </trkpt>
      <trkpt lat="43.76315" lon="4.96623">
        <ele>148.747</ele>
        <time>2019-04-29T09:28:08Z</time>
      </trkpt>
      <trkpt lat="43.76296" lon="4.96544">
        <ele>148.594</ele>
        <time>2019-04-29T09:28:19Z</time>
      </trkpt>
      <trkpt lat="43.76277" lon="4.96469">
        <ele>148.183</ele>
        <time>2019-04-29T09:28:30Z</time>
      </trkpt>
      <trkpt lat="43.76259" lon="4.96396">
        <ele>147.37</ele>
        <time>2019-04-29T09:28:41Z</time>
      </trkpt>
      <trkpt lat="43.76244" lon="4.96334">
        <ele>146.926</ele>
        <time>2019-04-29T09:28:51Z</time>
      </trkpt>
      <trkpt lat="43.76229" lon="4.96267">
        <ele>146.593</ele>
        <time>2019-04-29T09:29:02Z</time>
      </trkpt>
      <trkpt lat="43.76216" lon="4.96208">
        <ele>146.236</ele>
        <time>2019-04-29T09:29:12Z</time>
      </trkpt>
      <trkpt lat="43.76201" lon="4.96144">
        <ele>146.131</ele>
        <time>2019-04-29T09:29:23Z</time>
      </trkpt>
      <trkpt lat="43.76191" lon="4.96086">
        <ele>146.2</ele>
        <time>2019-04-29T09:29:33Z</time>
      </trkpt>
      <trkpt lat="43.76177" lon="4.96027">
        <ele>146.368</ele>
        <time>2019-04-29T09:29:44Z</time>
      </trkpt>
      <trkpt lat="43.76166" lon="4.95972">
        <ele>146.734</ele>
        <time>2019-04-29T09:29:54Z</time>
      </trkpt>
      <trkpt lat="43.76151" lon="4.95907">
        <ele>147.3</ele>
        <time>2019-04-29T09:30:05Z</time>
      </trkpt>
      <trkpt lat="43.76137" lon="4.95839">
        <ele>148.139</ele>
        <time>2019-04-29T09:30:16Z</time>
      </trkpt>
      <trkpt lat="43.76125" lon="4.95783">
        <ele>148.886</ele>
        <time>2019-04-29T09:30:26Z</time>
      </trkpt>
      <trkpt lat="43.76114" lon="4.95719">
        <ele>149.079</ele>
        <time>2019-04-29T09:30:37Z</time>
      </trkpt>
      <trkpt lat="43.76105" lon="4.95655">
        <ele>149.067</ele>
        <time>2019-04-29T09:30:48Z</time>
      </trkpt>
      <trkpt lat="43.761" lon="4.95591">
        <ele>149.041</ele>
        <time>2019-04-29T09:30:59Z</time>
      </trkpt>
      <trkpt lat="43.76094" lon="4.95527">
        <ele>149.402</ele>
        <time>2019-04-29T09:31:10Z</time>
      </trkpt>
      <trkpt lat="43.76086" lon="4.95463">
        <ele>150.182</ele>
        <time>2019-04-29T09:31:21Z</time>
      </trkpt>
      <trkpt lat="43.76078" lon="4.95398">
        <ele>151.036</ele>
        <time>2019-04-29T09:31:32Z</time>
      </trkpt>
      <trkpt lat="43.76072" lon="4.95342">
        <ele>151.13</ele>
        <time>2019-04-29T09:31:42Z</time>
      </trkpt>
      <trkpt lat="43.76069" lon="4.95286">
        <ele>151.243</ele>
        <time>2019-04-29T09:31:53Z</time>
      </trkpt>
      <trkpt lat="43.76066" lon="4.95236">
        <ele>151.483</ele>
        <time>2019-04-29T09:32:04Z</time>
      </trkpt>
      <trkpt lat="43.76066" lon="4.9519">
        <ele>152.607</ele>
        <time>2019-04-29T09:32:14Z</time>
      </trkpt>
      <trkpt lat="43.76066" lon="4.9514">
        <ele>153.844</ele>
        <time>2019-04-29T09:32:25Z</time>
      </trkpt>
      <trkpt lat="43.76063" lon="4.95092">
        <ele>154.812</ele>
        <time>2019-04-29T09:32:36Z</time>
      </trkpt>
      <trkpt lat="43.76071" lon="4.95048">
        <ele>155.849</ele>
        <time>2019-04-29T09:32:46Z</time>
      </trkpt>
      <trkpt lat="43.76078" lon="4.95017">
        <ele>157.152</ele>
        <time>2019-04-29T09:32:57Z</time>
      </trkpt>
      <trkpt lat="43.76069" lon="4.95003">
        <ele>158.507</ele>
        <time>2019-04-29T09:33:08Z</time>
      </trkpt>
      <trkpt lat="43.76051" lon="4.95015">
        <ele>159.414</ele>
        <time>2019-04-29T09:33:19Z</time>
      </trkpt>
      <trkpt lat="43.7605" lon="4.9501">
        <ele>160.634</ele>
        <time>2019-04-29T09:33:29Z</time>
      </trkpt>
      <trkpt lat="43.7605" lon="4.95008">
        <ele>160.79</ele>
        <time>2019-04-29T09:33:40Z</time>
      </trkpt>
      <trkpt lat="43.76051" lon="4.95008">
        <ele>160.947</ele>
        <time>2019-04-29T09:33:50Z</time>
      </trkpt>
      <trkpt lat="43.76051" lon="4.95008">
        <ele>161.059</ele>
        <time>2019-04-29T09:34:00Z</time>
      </trkpt>
      <trkpt lat="43.76052" lon="4.95007">
        <ele>161.157</ele>
        <time>2019-04-29T09:34:11Z</time>
      </trkpt>
      <trkpt lat="43.76054" lon="4.95004">
        <ele>161.503</ele>
        <time>2019-04-29T09:34:22Z</time>
      </trkpt>
      <trkpt lat="43.76058" lon="4.95004">
        <ele>162.018</ele>
        <time>2019-04-29T09:34:33Z</time>
      </trkpt>
      <trkpt lat="43.76059" lon="4.95006">
        <ele>162.43</ele>
        <time>2019-04-29T09:34:44Z</time>
      </trkpt>
      <trkpt lat="43.7606" lon="4.95004">
        <ele>162.474</ele>
        <time>2019-04-29T09:34:55Z</time>
      </trkpt>
      <trkpt lat="43.7606" lon="4.95005">
        <ele>162.549</ele>
        <time>2019-04-29T09:35:06Z</time>
      </trkpt>
      <trkpt lat="43.76061" lon="4.95005">
        <ele>162.512</ele>
        <time>2019-04-29T09:35:17Z</time>
      </trkpt>
      <trkpt lat="43.76058" lon="4.95009">
        <ele>162.371</ele>
        <time>2019-04-29T09:35:28Z</time>
      </trkpt>
      <trkpt lat="43.76057" lon="4.95012">
        <ele>162.652</ele>
        <time>2019-04-29T09:35:38Z</time>
      </trkpt>
      <trkpt lat="43.76057" lon="4.95012">
        <ele>162.697</ele>
        <time>2019-04-29T09:35:48Z</time>
      </trkpt>
      <trkpt lat="43.76058" lon="4.95014">
        <ele>163.042</ele>
        <time>2019-04-29T09:35:59Z</time>
      </trkpt>
      <trkpt lat="43.76057" lon="4.95013">
        <ele>163.295</ele>
        <time>2019-04-29T09:36:09Z</time>
      </trkpt>
      <trkpt lat="43.76058" lon="4.95017">
        <ele>169.161</ele>
        <time>2019-04-29T09:36:20Z</time>
      </trkpt>
      <trkpt lat="43.76055" lon="4.95016">
        <ele>170.935</ele>
        <time>2019-04-29T09:36:31Z</time>
      </trkpt>
      <trkpt lat="43.76055" lon="4.95016">
        <ele>170.922</ele>
        <time>2019-04-29T09:36:42Z</time>
      </trkpt>
      <trkpt lat="43.76055" lon="4.95016">
        <ele>170.894</ele>
        <time>2019-04-29T09:36:52Z</time>
      </trkpt>
      <trkpt lat="43.76055" lon="4.95015">
        <ele>170.782</ele>
        <time>2019-04-29T09:37:03Z</time>
      </trkpt>
      <trkpt lat="43.76055" lon="4.95014">
        <ele>170.706</ele>
        <time>2019-04-29T09:37:13Z</time>
      </trkpt>
      <trkpt lat="43.76055" lon="4.95013">
        <ele>170.723</ele>
        <time>2019-04-29T09:37:24Z</time>
      </trkpt>
      <trkpt lat="43.76055" lon="4.95013">
        <ele>170.843</ele>
        <time>2019-04-29T09:37:35Z</time>
      </trkpt>
      <trkpt lat="43.76056" lon="4.95012">
        <ele>170.932</ele>
        <time>2019-04-29T09:37:46Z</time>
      </trkpt>
      <trkpt lat="43.76056" lon="4.95011">
        <ele>170.935</ele>
        <time>2019-04-29T09:37:56Z</time>
      </trkpt>
      <trkpt lat="43.76057" lon="4.9501">
        <ele>170.883</ele>
        <time>2019-04-29T09:38:07Z</time>
      </trkpt>
      <trkpt lat="43.76057" lon="4.95009">
        <ele>170.616</ele>
        <time>2019-04-29T09:38:18Z</time>
      </trkpt>
      <trkpt lat="43.76054" lon="4.95009">
        <ele>169.937</ele>
        <time>2019-04-29T09:38:28Z</time>
      </trkpt>
      <trkpt lat="43.76057" lon="4.9502">
        <ele>169.642</ele>
        <time>2019-04-29T09:38:39Z</time>
      </trkpt>
      <trkpt lat="43.76062" lon="4.95006">
        <ele>169.031</ele>
        <time>2019-04-29T09:38:50Z</time>
      </trkpt>
      <trkpt lat="43.76062" lon="4.95004">
        <ele>168.577</ele>
        <time>2019-04-29T09:39:00Z</time>
      </trkpt>
      <trkpt lat="43.76062" lon="4.95003">
        <ele>168.472</ele>
        <time>2019-04-29T09:39:11Z</time>
      </trkpt>
      <trkpt lat="43.76062" lon="4.95003">
        <ele>168.39</ele>
        <time>2019-04-29T09:39:21Z</time>
      </trkpt>
      <trkpt lat="43.76063" lon="4.95006">
        <ele>168.341</ele>
        <time>2019-04-29T09:39:32Z</time>
      </trkpt>
      <trkpt lat="43.76063" lon="4.95007">
        <ele>168.14</ele>
        <time>2019-04-29T09:39:42Z</time>
      </trkpt>
      <trkpt lat="43.76063" lon="4.95007">
        <ele>167.912</ele>
        <time>2019-04-29T09:39:53Z</time>
      </trkpt>
      <trkpt lat="43.76063" lon="4.95007">
        <ele>167.811</ele>
        <time>2019-04-29T09:40:03Z</time>
      </trkpt>
      <trkpt lat="43.76069" lon="4.95005">
        <ele>169.867</ele>
        <time>2019-04-29T09:40:13Z</time>
      </trkpt>
      <trkpt lat="43.76063" lon="4.95001">
        <ele>169.817</ele>
        <time>2019-04-29T09:40:24Z</time>
      </trkpt>
      <trkpt lat="43.76063" lon="4.95001">
        <ele>169.6</ele>
        <time>2019-04-29T09:40:34Z</time>
      </trkpt>
      <trkpt lat="43.76062" lon="4.95001">
        <ele>169.012</ele>
        <time>2019-04-29T09:40:45Z</time>
      </trkpt>
      <trkpt lat="43.76062" lon="4.95">
        <ele>168.8</ele>
        <time>2019-04-29T09:40:55Z</time>
      </trkpt>
      <trkpt lat="43.76062" lon="4.95">
        <ele>168.55</ele>
        <time>2019-04-29T09:41:06Z</time>
      </trkpt>
      <trkpt lat="43.76062" lon="4.95">
        <ele>168.294</ele>
        <time>2019-04-29T09:41:17Z</time>
      </trkpt>
      <trkpt lat="43.76062" lon="4.95">
        <ele>168.045</ele>
        <time>2019-04-29T09:41:28Z</time>
      </trkpt>
      <trkpt lat="43.76062" lon="4.95">
        <ele>167.824</ele>
        <time>2019-04-29T09:41:38Z</time>
      </trkpt>
      <trkpt lat="43.76062" lon="4.95">
        <ele>167.594</ele>
        <time>2019-04-29T09:41:49Z</time>
      </trkpt>
      <trkpt lat="43.76062" lon="4.95">
        <ele>167.184</ele>
        <time>2019-04-29T09:42:00Z</time>
      </trkpt>
      <trkpt lat="43.76061" lon="4.95">
        <ele>166.947</ele>
        <time>2019-04-29T09:42:11Z</time>
      </trkpt>
      <trkpt lat="43.76061" lon="4.94999">
        <ele>166.528</ele>
        <time>2019-04-29T09:42:22Z</time>
      </trkpt>
      <trkpt lat="43.76061" lon="4.94999">
        <ele>166.312</ele>
        <time>2019-04-29T09:42:33Z</time>
      </trkpt>
      <trkpt lat="43.76062" lon="4.95">
        <ele>166.098</ele>
        <time>2019-04-29T09:42:44Z</time>
      </trkpt>
      <trkpt lat="43.76062" lon="4.95">
        <ele>165.911</ele>
        <time>2019-04-29T09:42:54Z</time>
      </trkpt>
      <trkpt lat="43.76062" lon="4.95">
        <ele>165.706</ele>
        <time>2019-04-29T09:43:05Z</time>
      </trkpt>
      <trkpt lat="43.76062" lon="4.95">
        <ele>165.538</ele>
        <time>2019-04-29T09:43:15Z</time>
      </trkpt>
      <trkpt lat="43.76061" lon="4.95">
        <ele>165.33</ele>
        <time>2019-04-29T09:43:26Z</time>
      </trkpt>
      <trkpt lat="43.76061" lon="4.95">
        <ele>165.114</ele>
        <time>2019-04-29T09:43:37Z</time>
      </trkpt>
      <trkpt lat="43.76061" lon="4.95">
        <ele>164.936</ele>
        <time>2019-04-29T09:43:48Z</time>
      </trkpt>
      <trkpt lat="43.76061" lon="4.95001">
        <ele>164.79</ele>
        <time>2019-04-29T09:43:59Z</time>
      </trkpt>
      <trkpt lat="43.76061" lon="4.95001">
        <ele>164.659</ele>
        <time>2019-04-29T09:44:10Z</time>
      </trkpt>
      <trkpt lat="43.76061" lon="4.95001">
        <ele>164.551</ele>
        <time>2019-04-29T09:44:21Z</time>
      </trkpt>
      <trkpt lat="43.76061" lon="4.95002">
        <ele>164.473</ele>
        <time>2019-04-29T09:44:31Z</time>
      </trkpt>
      <trkpt lat="43.76061" lon="4.95002">
        <ele>164.379</ele>
        <time>2019-04-29T09:44:42Z</time>
      </trkpt>
      <trkpt lat="43.76061" lon="4.95003">
        <ele>164.302</ele>
        <time>2019-04-29T09:44:53Z</time>
      </trkpt>
      <trkpt lat="43.76061" lon="4.95003">
        <ele>164.312</ele>
        <time>2019-04-29T09:45:03Z</time>
      </trkpt>
      <trkpt lat="43.76061" lon="4.95003">
        <ele>164.213</ele>
        <time>2019-04-29T09:45:14Z</time>
      </trkpt>
      <trkpt lat="43.7606" lon="4.95003">
        <ele>163.813</ele>
        <time>2019-04-29T09:45:24Z</time>
      </trkpt>
      <trkpt lat="43.7606" lon="4.95003">
        <ele>163.687</ele>
        <time>2019-04-29T09:45:35Z</time>
      </trkpt>
      <trkpt lat="43.7606" lon="4.95003">
        <ele>163.599</ele>
        <time>2019-04-29T09:45:46Z</time>
      </trkpt>
      <trkpt lat="43.7606" lon="4.95003">
        <ele>163.45</ele>
        <time>2019-04-29T09:45:57Z</time>
      </trkpt>
      <trkpt lat="43.76061" lon="4.95003">
        <ele>163.315</ele>
        <time>2019-04-29T09:46:08Z</time>
      </trkpt>
      <trkpt lat="43.76061" lon="4.95002">
        <ele>163.128</ele>
        <time>2019-04-29T09:46:19Z</time>
      </trkpt>
      <trkpt lat="43.7606" lon="4.95002">
        <ele>162.989</ele>
        <time>2019-04-29T09:46:29Z</time>
      </trkpt>
      <trkpt lat="43.76061" lon="4.95002">
        <ele>162.849</ele>
        <time>2019-04-29T09:46:40Z</time>
      </trkpt>
      <trkpt lat="43.76061" lon="4.95003">
        <ele>162.852</ele>
        <time>2019-04-29T09:46:50Z</time>
      </trkpt>
      <trkpt lat="43.76061" lon="4.95003">
        <ele>162.77</ele>
        <time>2019-04-29T09:47:01Z</time>
      </trkpt>
      <trkpt lat="43.76061" lon="4.95003">
        <ele>162.689</ele>
        <time>2019-04-29T09:47:12Z</time>
      </trkpt>
      <trkpt lat="43.76061" lon="4.95003">
        <ele>162.603</ele>
        <time>2019-04-29T09:47:23Z</time>
      </trkpt>
      <trkpt lat="43.76061" lon="4.95003">
        <ele>162.554</ele>
        <time>2019-04-29T09:47:33Z</time>
      </trkpt>
      <trkpt lat="43.76061" lon="4.95003">
        <ele>162.505</ele>
        <time>2019-04-29T09:47:44Z</time>
      </trkpt>
      <trkpt lat="43.7606" lon="4.95003">
        <ele>162.502</ele>
        <time>2019-04-29T09:47:54Z</time>
      </trkpt>
      <trkpt lat="43.7606" lon="4.95004">
        <ele>162.473</ele>
        <time>2019-04-29T09:48:05Z</time>
      </trkpt>
      <trkpt lat="43.7606" lon="4.95003">
        <ele>162.369</ele>
        <time>2019-04-29T09:48:16Z</time>
      </trkpt>
      <trkpt lat="43.7606" lon="4.95003">
        <ele>162.241</ele>
        <time>2019-04-29T09:48:27Z</time>
      </trkpt>
      <trkpt lat="43.7606" lon="4.95003">
        <ele>162.198</ele>
        <time>2019-04-29T09:48:37Z</time>
      </trkpt>
      <trkpt lat="43.7606" lon="4.95004">
        <ele>162.216</ele>
        <time>2019-04-29T09:48:47Z</time>
      </trkpt>
      <trkpt lat="43.7606" lon="4.95006">
        <ele>162.297</ele>
        <time>2019-04-29T09:48:57Z</time>
      </trkpt>
      <trkpt lat="43.7606" lon="4.95007">
        <ele>162.41</ele>
        <time>2019-04-29T09:49:08Z</time>
      </trkpt>
      <trkpt lat="43.7606" lon="4.95007">
        <ele>162.511</ele>
        <time>2019-04-29T09:49:18Z</time>
      </trkpt>
      <trkpt lat="43.7606" lon="4.95008">
        <ele>162.617</ele>
        <time>2019-04-29T09:49:29Z</time>
      </trkpt>
      <trkpt lat="43.76059" lon="4.95009">
        <ele>162.716</ele>
        <time>2019-04-29T09:49:39Z</time>
      </trkpt>
      <trkpt lat="43.76059" lon="4.95009">
        <ele>162.816</ele>
        <time>2019-04-29T09:49:50Z</time>
      </trkpt>
      <trkpt lat="43.76059" lon="4.95008">
        <ele>162.843</ele>
        <time>2019-04-29T09:50:00Z</time>
      </trkpt>
      <trkpt lat="43.7606" lon="4.95008">
        <ele>162.818</ele>
        <time>2019-04-29T09:50:11Z</time>
      </trkpt>
      <trkpt lat="43.7606" lon="4.95008">
        <ele>162.754</ele>
        <time>2019-04-29T09:50:22Z</time>
      </trkpt>
      <trkpt lat="43.76061" lon="4.95007">
        <ele>162.565</ele>
        <time>2019-04-29T09:50:32Z</time>
      </trkpt>
      <trkpt lat="43.7606" lon="4.95006">
        <ele>162.497</ele>
        <time>2019-04-29T09:50:43Z</time>
      </trkpt>
      <trkpt lat="43.7606" lon="4.95006">
        <ele>162.494</ele>
        <time>2019-04-29T09:50:54Z</time>
      </trkpt>
      <trkpt lat="43.7606" lon="4.95005">
        <ele>162.502</ele>
        <time>2019-04-29T09:51:04Z</time>
      </trkpt>
      <trkpt lat="43.7606" lon="4.95005">
        <ele>162.505</ele>
        <time>2019-04-29T09:51:15Z</time>
      </trkpt>
      <trkpt lat="43.7606" lon="4.95005">
        <ele>162.501</ele>
        <time>2019-04-29T09:51:25Z</time>
      </trkpt>
      <trkpt lat="43.76059" lon="4.95005">
        <ele>162.497</ele>
        <time>2019-04-29T09:51:35Z</time>
      </trkpt>
      <trkpt lat="43.76059" lon="4.95005">
        <ele>162.5</ele>
        <time>2019-04-29T09:51:46Z</time>
      </trkpt>
      <trkpt lat="43.76059" lon="4.95005">
        <ele>162.504</ele>
        <time>2019-04-29T09:51:57Z</time>
      </trkpt>
      <trkpt lat="43.76059" lon="4.95005">
        <ele>162.501</ele>
        <time>2019-04-29T09:52:08Z</time>
      </trkpt>
      <trkpt lat="43.76059" lon="4.95005">
        <ele>162.51</ele>
        <time>2019-04-29T09:52:18Z</time>
      </trkpt>
      <trkpt lat="43.76059" lon="4.95005">
        <ele>162.496</ele>
        <time>2019-04-29T09:52:29Z</time>
      </trkpt>
      <trkpt lat="43.76059" lon="4.95005">
        <ele>162.479</ele>
        <time>2019-04-29T09:52:40Z</time>
      </trkpt>
      <trkpt lat="43.76053" lon="4.95006">
        <ele>162.523</ele>
        <time>2019-04-29T09:52:51Z</time>
      </trkpt>
      <trkpt lat="43.76053" lon="4.95006">
        <ele>162.776</ele>
        <time>2019-04-29T09:53:02Z</time>
      </trkpt>
      <trkpt lat="43.76053" lon="4.95007">
        <ele>162.917</ele>
        <time>2019-04-29T09:53:13Z</time>
      </trkpt>
      <trkpt lat="43.76053" lon="4.95009">
        <ele>163.269</ele>
        <time>2019-04-29T09:53:24Z</time>
      </trkpt>
      <trkpt lat="43.76053" lon="4.95009">
        <ele>163.493</ele>
        <time>2019-04-29T09:53:34Z</time>
      </trkpt>
      <trkpt lat="43.76052" lon="4.95008">
        <ele>163.699</ele>
        <time>2019-04-29T09:53:45Z</time>
      </trkpt>
      <trkpt lat="43.76052" lon="4.95006">
        <ele>164.18</ele>
        <time>2019-04-29T09:53:56Z</time>
      </trkpt>
      <trkpt lat="43.76057" lon="4.95011">
        <ele>165.152</ele>
        <time>2019-04-29T09:54:06Z</time>
      </trkpt>
      <trkpt lat="43.76071" lon="4.95013">
        <ele>164.98</ele>
        <time>2019-04-29T09:54:16Z</time>
      </trkpt>
      <trkpt lat="43.76091" lon="4.94995">
        <ele>164.008</ele>
        <time>2019-04-29T09:54:27Z</time>
      </trkpt>
      <trkpt lat="43.76119" lon="4.94971">
        <ele>163.779</ele>
        <time>2019-04-29T09:54:38Z</time>
      </trkpt>
      <trkpt lat="43.76142" lon="4.94952">
        <ele>163.811</ele>
        <time>2019-04-29T09:54:48Z</time>
      </trkpt>
      <trkpt lat="43.76163" lon="4.94934">
        <ele>164.043</ele>
        <time>2019-04-29T09:54:58Z</time>
      </trkpt>
      <trkpt lat="43.76182" lon="4.9492">
        <ele>164.088</ele>
        <time>2019-04-29T09:55:08Z</time>
      </trkpt>
      <trkpt lat="43.76204" lon="4.94909">
        <ele>164.217</ele>
        <time>2019-04-29T09:55:19Z</time>
      </trkpt>
      <trkpt lat="43.76216" lon="4.94899">
        <ele>165.305</ele>
        <time>2019-04-29T09:55:30Z</time>
      </trkpt>
      <trkpt lat="43.7622" lon="4.94897">
        <ele>165.719</ele>
        <time>2019-04-29T09:55:41Z</time>
      </trkpt>
      <trkpt lat="43.7622" lon="4.94902">
        <ele>166.915</ele>
        <time>2019-04-29T09:55:51Z</time>
      </trkpt>
      <trkpt lat="43.76222" lon="4.94899">
        <ele>168.102</ele>
        <time>2019-04-29T09:56:02Z</time>
      </trkpt>
      <trkpt lat="43.76223" lon="4.94898">
        <ele>168.277</ele>
        <time>2019-04-29T09:56:13Z</time>
      </trkpt>
      <trkpt lat="43.76224" lon="4.94898">
        <ele>168.321</ele>
        <time>2019-04-29T09:56:24Z</time>
      </trkpt>
      <trkpt lat="43.76224" lon="4.94897">
        <ele>168.478</ele>
        <time>2019-04-29T09:56:34Z</time>
      </trkpt>
      <trkpt lat="43.76224" lon="4.94896">
        <ele>168.624</ele>
        <time>2019-04-29T09:56:45Z</time>
      </trkpt>
      <trkpt lat="43.76224" lon="4.94895">
        <ele>168.73</ele>
        <time>2019-04-29T09:56:56Z</time>
      </trkpt>
      <trkpt lat="43.76224" lon="4.94894">
        <ele>168.881</ele>
        <time>2019-04-29T09:57:06Z</time>
      </trkpt>
      <trkpt lat="43.76224" lon="4.94894">
        <ele>169.058</ele>
        <time>2019-04-29T09:57:17Z</time>
      </trkpt>
      <trkpt lat="43.76222" lon="4.94898">
        <ele>169.753</ele>
        <time>2019-04-29T09:57:27Z</time>
      </trkpt>
      <trkpt lat="43.7621" lon="4.94905">
        <ele>170.207</ele>
        <time>2019-04-29T09:57:37Z</time>
      </trkpt>
      <trkpt lat="43.76208" lon="4.94871">
        <ele>170.174</ele>
        <time>2019-04-29T09:57:47Z</time>
      </trkpt>
      <trkpt lat="43.76206" lon="4.9482">
        <ele>168.04</ele>
        <time>2019-04-29T09:57:58Z</time>
      </trkpt>
      <trkpt lat="43.76211" lon="4.94807">
        <ele>167.836</ele>
        <time>2019-04-29T09:58:08Z</time>
      </trkpt>
      <trkpt lat="43.76199" lon="4.94805">
        <ele>167.79</ele>
        <time>2019-04-29T09:58:19Z</time>
      </trkpt>
      <trkpt lat="43.76173" lon="4.94821">
        <ele>166.449</ele>
        <time>2019-04-29T09:58:29Z</time>
      </trkpt>
      <trkpt lat="43.76126" lon="4.94841">
        <ele>162.325</ele>
        <time>2019-04-29T09:58:40Z</time>
      </trkpt>
      <trkpt lat="43.76088" lon="4.94843">
        <ele>161.358</ele>
        <time>2019-04-29T09:58:50Z</time>
      </trkpt>
      <trkpt lat="43.76069" lon="4.94812">
        <ele>160.833</ele>
        <time>2019-04-29T09:59:00Z</time>
      </trkpt>
      <trkpt lat="43.76069" lon="4.94758">
        <ele>159.701</ele>
        <time>2019-04-29T09:59:11Z</time>
      </trkpt>
      <trkpt lat="43.76068" lon="4.94702">
        <ele>156.816</ele>
        <time>2019-04-29T09:59:21Z</time>
      </trkpt>
      <trkpt lat="43.76069" lon="4.94643">
        <ele>155.521</ele>
        <time>2019-04-29T09:59:32Z</time>
      </trkpt>
      <trkpt lat="43.76071" lon="4.94577">
        <ele>156.464</ele>
        <time>2019-04-29T09:59:43Z</time>
      </trkpt>
      <trkpt lat="43.76075" lon="4.94576">
        <ele>156.151</ele>
        <time>2019-04-29T09:59:53Z</time>
      </trkpt>
      <trkpt lat="43.76071" lon="4.94582">
        <ele>156.306</ele>
        <time>2019-04-29T10:00:04Z</time>
      </trkpt>
      <trkpt lat="43.76072" lon="4.94582">
        <ele>156.263</ele>
        <time>2019-04-29T10:00:14Z</time>
      </trkpt>
      <trkpt lat="43.76071" lon="4.94581">
        <ele>156.203</ele>
        <time>2019-04-29T10:00:24Z</time>
      </trkpt>
      <trkpt lat="43.76071" lon="4.94578">
        <ele>156.042</ele>
        <time>2019-04-29T10:00:35Z</time>
      </trkpt>
      <trkpt lat="43.76068" lon="4.9455">
        <ele>156.208</ele>
        <time>2019-04-29T10:00:45Z</time>
      </trkpt>
      <trkpt lat="43.76064" lon="4.94498">
        <ele>156.06</ele>
        <time>2019-04-29T10:00:55Z</time>
      </trkpt>
      <trkpt lat="43.76059" lon="4.94438">
        <ele>149.999</ele>
        <time>2019-04-29T10:01:05Z</time>
      </trkpt>
      <trkpt lat="43.76063" lon="4.94369">
        <ele>153.213</ele>
        <time>2019-04-29T10:01:16Z</time>
      </trkpt>
      <trkpt lat="43.76068" lon="4.94303">
        <ele>152.805</ele>
        <time>2019-04-29T10:01:26Z</time>
      </trkpt>
      <trkpt lat="43.76078" lon="4.94237">
        <ele>152.423</ele>
        <time>2019-04-29T10:01:36Z</time>
      </trkpt>
      <trkpt lat="43.7609" lon="4.94176">
        <ele>155.266</ele>
        <time>2019-04-29T10:01:46Z</time>
      </trkpt>
      <trkpt lat="43.76095" lon="4.94103">
        <ele>154.199</ele>
        <time>2019-04-29T10:01:57Z</time>
      </trkpt>
      <trkpt lat="43.76106" lon="4.9403">
        <ele>151.065</ele>
        <time>2019-04-29T10:02:08Z</time>
      </trkpt>
      <trkpt lat="43.76122" lon="4.93961">
        <ele>150.216</ele>
        <time>2019-04-29T10:02:19Z</time>
      </trkpt>
      <trkpt lat="43.76147" lon="4.93892">
        <ele>151.097</ele>
        <time>2019-04-29T10:02:30Z</time>
      </trkpt>
      <trkpt lat="43.7617" lon="4.93826">
        <ele>151.796</ele>
        <time>2019-04-29T10:02:41Z</time>
      </trkpt>
      <trkpt lat="43.76194" lon="4.93773">
        <ele>151.874</ele>
        <time>2019-04-29T10:02:51Z</time>
      </trkpt>
      <trkpt lat="43.76218" lon="4.93721">
        <ele>148.561</ele>
        <time>2019-04-29T10:03:02Z</time>
      </trkpt>
      <trkpt lat="43.76234" lon="4.93669">
        <ele>149.696</ele>
        <time>2019-04-29T10:03:13Z</time>
      </trkpt>
      <trkpt lat="43.76244" lon="4.93619">
        <ele>151.657</ele>
        <time>2019-04-29T10:03:24Z</time>
      </trkpt>
      <trkpt lat="43.76252" lon="4.93562">
        <ele>152.294</ele>
        <time>2019-04-29T10:03:35Z</time>
      </trkpt>
      <trkpt lat="43.76262" lon="4.93509">
        <ele>151.078</ele>
        <time>2019-04-29T10:03:46Z</time>
      </trkpt>
      <trkpt lat="43.7627" lon="4.93496">
        <ele>151.847</ele>
        <time>2019-04-29T10:03:57Z</time>
      </trkpt>
      <trkpt lat="43.76283" lon="4.93415">
        <ele>145.707</ele>
        <time>2019-04-29T10:04:07Z</time>
      </trkpt>
      <trkpt lat="43.76294" lon="4.93329">
        <ele>144.266</ele>
        <time>2019-04-29T10:04:17Z</time>
      </trkpt>
      <trkpt lat="43.7633" lon="4.93263">
        <ele>145.923</ele>
        <time>2019-04-29T10:04:28Z</time>
      </trkpt>
      <trkpt lat="43.76355" lon="4.93207">
        <ele>148.782</ele>
        <time>2019-04-29T10:04:38Z</time>
      </trkpt>
      <trkpt lat="43.76373" lon="4.93143">
        <ele>148.15</ele>
        <time>2019-04-29T10:04:49Z</time>
      </trkpt>
      <trkpt lat="43.76402" lon="4.93091">
        <ele>147.186</ele>
        <time>2019-04-29T10:05:00Z</time>
      </trkpt>
      <trkpt lat="43.76427" lon="4.93045">
        <ele>147.017</ele>
        <time>2019-04-29T10:05:11Z</time>
      </trkpt>
      <trkpt lat="43.76448" lon="4.93008">
        <ele>147.511</ele>
        <time>2019-04-29T10:05:21Z</time>
      </trkpt>
      <trkpt lat="43.76473" lon="4.92956">
        <ele>148.511</ele>
        <time>2019-04-29T10:05:32Z</time>
      </trkpt>
      <trkpt lat="43.765" lon="4.92907">
        <ele>148.792</ele>
        <time>2019-04-29T10:05:43Z</time>
      </trkpt>
      <trkpt lat="43.76536" lon="4.92841">
        <ele>147.694</ele>
        <time>2019-04-29T10:05:54Z</time>
      </trkpt>
      <trkpt lat="43.76572" lon="4.92774">
        <ele>147.219</ele>
        <time>2019-04-29T10:06:05Z</time>
      </trkpt>
      <trkpt lat="43.76605" lon="4.92723">
        <ele>145.982</ele>
        <time>2019-04-29T10:06:15Z</time>
      </trkpt>
      <trkpt lat="43.76629" lon="4.92679">
        <ele>145.073</ele>
        <time>2019-04-29T10:06:26Z</time>
      </trkpt>
      <trkpt lat="43.76646" lon="4.92648">
        <ele>145.28</ele>
        <time>2019-04-29T10:06:36Z</time>
      </trkpt>
      <trkpt lat="43.76653" lon="4.92612">
        <ele>145.133</ele>
        <time>2019-04-29T10:06:47Z</time>
      </trkpt>
      <trkpt lat="43.76626" lon="4.92605">
        <ele>144.721</ele>
        <time>2019-04-29T10:06:57Z</time>
      </trkpt>
      <trkpt lat="43.76597" lon="4.92599">
        <ele>145.135</ele>
        <time>2019-04-29T10:07:07Z</time>
      </trkpt>
      <trkpt lat="43.76568" lon="4.92592">
        <ele>146.192</ele>
        <time>2019-04-29T10:07:18Z</time>
      </trkpt>
      <trkpt lat="43.76536" lon="4.92586">
        <ele>148.736</ele>
        <time>2019-04-29T10:07:28Z</time>
      </trkpt>
      <trkpt lat="43.76503" lon="4.92577">
        <ele>149.2</ele>
        <time>2019-04-29T10:07:39Z</time>
      </trkpt>
      <trkpt lat="43.76467" lon="4.92572">
        <ele>151.19</ele>
        <time>2019-04-29T10:07:49Z</time>
      </trkpt>
      <trkpt lat="43.76433" lon="4.92566">
        <ele>151.064</ele>
        <time>2019-04-29T10:07:59Z</time>
      </trkpt>
      <trkpt lat="43.76401" lon="4.92567">
        <ele>151.526</ele>
        <time>2019-04-29T10:08:10Z</time>
      </trkpt>
      <trkpt lat="43.76362" lon="4.92562">
        <ele>152.173</ele>
        <time>2019-04-29T10:08:21Z</time>
      </trkpt>
      <trkpt lat="43.76327" lon="4.92557">
        <ele>153.109</ele>
        <time>2019-04-29T10:08:31Z</time>
      </trkpt>
      <trkpt lat="43.76297" lon="4.92557">
        <ele>154.181</ele>
        <time>2019-04-29T10:08:42Z</time>
      </trkpt>
      <trkpt lat="43.76263" lon="4.92554">
        <ele>154.977</ele>
        <time>2019-04-29T10:08:52Z</time>
      </trkpt>
      <trkpt lat="43.76229" lon="4.9255">
        <ele>156.117</ele>
        <time>2019-04-29T10:09:03Z</time>
      </trkpt>
      <trkpt lat="43.76191" lon="4.92546">
        <ele>157.463</ele>
        <time>2019-04-29T10:09:14Z</time>
      </trkpt>
      <trkpt lat="43.76161" lon="4.92545">
        <ele>159.167</ele>
        <time>2019-04-29T10:09:24Z</time>
      </trkpt>
      <trkpt lat="43.76129" lon="4.92541">
        <ele>160.621</ele>
        <time>2019-04-29T10:09:35Z</time>
      </trkpt>
      <trkpt lat="43.76092" lon="4.92537">
        <ele>162.048</ele>
        <time>2019-04-29T10:09:46Z</time>
      </trkpt>
      <trkpt lat="43.76058" lon="4.92533">
        <ele>164.026</ele>
        <time>2019-04-29T10:09:57Z</time>
      </trkpt>
      <trkpt lat="43.76035" lon="4.92534">
        <ele>165.491</ele>
        <time>2019-04-29T10:10:07Z</time>
      </trkpt>
      <trkpt lat="43.76007" lon="4.92528">
        <ele>170.534</ele>
        <time>2019-04-29T10:10:18Z</time>
      </trkpt>
      <trkpt lat="43.75955" lon="4.92528">
        <ele>172.286</ele>
        <time>2019-04-29T10:10:28Z</time>
      </trkpt>
      <trkpt lat="43.75898" lon="4.92516">
        <ele>174.465</ele>
        <time>2019-04-29T10:10:39Z</time>
      </trkpt>
      <trkpt lat="43.7584" lon="4.92507">
        <ele>171.862</ele>
        <time>2019-04-29T10:10:50Z</time>
      </trkpt>
      <trkpt lat="43.75789" lon="4.92494">
        <ele>170.998</ele>
        <time>2019-04-29T10:11:00Z</time>
      </trkpt>
      <trkpt lat="43.75736" lon="4.92482">
        <ele>171.104</ele>
        <time>2019-04-29T10:11:10Z</time>
      </trkpt>
      <trkpt lat="43.75677" lon="4.92468">
        <ele>171.208</ele>
        <time>2019-04-29T10:11:21Z</time>
      </trkpt>
      <trkpt lat="43.7562" lon="4.9246">
        <ele>172.118</ele>
        <time>2019-04-29T10:11:31Z</time>
      </trkpt>
      <trkpt lat="43.75556" lon="4.92452">
        <ele>172.292</ele>
        <time>2019-04-29T10:11:42Z</time>
      </trkpt>
      <trkpt lat="43.75498" lon="4.92428">
        <ele>172.341</ele>
        <time>2019-04-29T10:11:52Z</time>
      </trkpt>
      <trkpt lat="43.75444" lon="4.92394">
        <ele>173.679</ele>
        <time>2019-04-29T10:12:03Z</time>
      </trkpt>
      <trkpt lat="43.75399" lon="4.92364">
        <ele>175.215</ele>
        <time>2019-04-29T10:12:14Z</time>
      </trkpt>
      <trkpt lat="43.75356" lon="4.92338">
        <ele>176.084</ele>
        <time>2019-04-29T10:12:25Z</time>
      </trkpt>
      <trkpt lat="43.75315" lon="4.92313">
        <ele>176.68</ele>
        <time>2019-04-29T10:12:35Z</time>
      </trkpt>
      <trkpt lat="43.75272" lon="4.92286">
        <ele>177.241</ele>
        <time>2019-04-29T10:12:46Z</time>
      </trkpt>
      <trkpt lat="43.75233" lon="4.92261">
        <ele>177.972</ele>
        <time>2019-04-29T10:12:57Z</time>
      </trkpt>
      <trkpt lat="43.75197" lon="4.92242">
        <ele>178.644</ele>
        <time>2019-04-29T10:13:07Z</time>
      </trkpt>
      <trkpt lat="43.75156" lon="4.92233">
        <ele>179.01</ele>
        <time>2019-04-29T10:13:18Z</time>
      </trkpt>
      <trkpt lat="43.75122" lon="4.92233">
        <ele>179.345</ele>
        <time>2019-04-29T10:13:29Z</time>
      </trkpt>
      <trkpt lat="43.75091" lon="4.92229">
        <ele>179.814</ele>
        <time>2019-04-29T10:13:40Z</time>
      </trkpt>
      <trkpt lat="43.7506" lon="4.92214">
        <ele>180.547</ele>
        <time>2019-04-29T10:13:51Z</time>
      </trkpt>
      <trkpt lat="43.75039" lon="4.922">
        <ele>181.585</ele>
        <time>2019-04-29T10:14:02Z</time>
      </trkpt>
      <trkpt lat="43.75012" lon="4.92186">
        <ele>182.762</ele>
        <time>2019-04-29T10:14:12Z</time>
      </trkpt>
      <trkpt lat="43.74978" lon="4.92166">
        <ele>184.2</ele>
        <time>2019-04-29T10:14:23Z</time>
      </trkpt>
      <trkpt lat="43.74948" lon="4.92146">
        <ele>185.528</ele>
        <time>2019-04-29T10:14:34Z</time>
      </trkpt>
      <trkpt lat="43.74918" lon="4.92124">
        <ele>186.811</ele>
        <time>2019-04-29T10:14:45Z</time>
      </trkpt>
      <trkpt lat="43.74889" lon="4.92103">
        <ele>188.265</ele>
        <time>2019-04-29T10:14:56Z</time>
      </trkpt>
      <trkpt lat="43.74859" lon="4.92082">
        <ele>189.635</ele>
        <time>2019-04-29T10:15:07Z</time>
      </trkpt>
      <trkpt lat="43.74829" lon="4.92068">
        <ele>190.845</ele>
        <time>2019-04-29T10:15:18Z</time>
      </trkpt>
      <trkpt lat="43.74797" lon="4.92061">
        <ele>191.738</ele>
        <time>2019-04-29T10:15:28Z</time>
      </trkpt>
      <trkpt lat="43.74763" lon="4.9207">
        <ele>192.682</ele>
        <time>2019-04-29T10:15:39Z</time>
      </trkpt>
      <trkpt lat="43.74734" lon="4.9208">
        <ele>193.668</ele>
        <time>2019-04-29T10:15:49Z</time>
      </trkpt>
      <trkpt lat="43.74705" lon="4.92091">
        <ele>194.871</ele>
        <time>2019-04-29T10:15:59Z</time>
      </trkpt>
      <trkpt lat="43.74673" lon="4.92107">
        <ele>195.938</ele>
        <time>2019-04-29T10:16:10Z</time>
      </trkpt>
      <trkpt lat="43.74641" lon="4.92089">
        <ele>196.722</ele>
        <time>2019-04-29T10:16:20Z</time>
      </trkpt>
      <trkpt lat="43.74595" lon="4.92077">
        <ele>200.133</ele>
        <time>2019-04-29T10:16:31Z</time>
      </trkpt>
      <trkpt lat="43.74548" lon="4.92072">
        <ele>200.384</ele>
        <time>2019-04-29T10:16:41Z</time>
      </trkpt>
      <trkpt lat="43.74499" lon="4.92065">
        <ele>200.65</ele>
        <time>2019-04-29T10:16:52Z</time>
      </trkpt>
      <trkpt lat="43.74459" lon="4.92059">
        <ele>202.404</ele>
        <time>2019-04-29T10:17:02Z</time>
      </trkpt>
      <trkpt lat="43.74421" lon="4.92051">
        <ele>202.793</ele>
        <time>2019-04-29T10:17:13Z</time>
      </trkpt>
      <trkpt lat="43.74391" lon="4.92022">
        <ele>203.7</ele>
        <time>2019-04-29T10:17:24Z</time>
      </trkpt>
      <trkpt lat="43.74378" lon="4.91984">
        <ele>204.782</ele>
        <time>2019-04-29T10:17:35Z</time>
      </trkpt>
      <trkpt lat="43.74377" lon="4.91951">
        <ele>205.649</ele>
        <time>2019-04-29T10:17:46Z</time>
      </trkpt>
      <trkpt lat="43.7438" lon="4.91922">
        <ele>206.228</ele>
        <time>2019-04-29T10:17:56Z</time>
      </trkpt>
      <trkpt lat="43.74386" lon="4.91893">
        <ele>206.731</ele>
        <time>2019-04-29T10:18:07Z</time>
      </trkpt>
      <trkpt lat="43.74397" lon="4.91866">
        <ele>207.507</ele>
        <time>2019-04-29T10:18:18Z</time>
      </trkpt>
      <trkpt lat="43.74404" lon="4.91834">
        <ele>207.93</ele>
        <time>2019-04-29T10:18:29Z</time>
      </trkpt>
      <trkpt lat="43.74409" lon="4.91803">
        <ele>208.55</ele>
        <time>2019-04-29T10:18:39Z</time>
      </trkpt>
      <trkpt lat="43.74405" lon="4.91778">
        <ele>209.812</ele>
        <time>2019-04-29T10:18:50Z</time>
      </trkpt>
      <trkpt lat="43.74402" lon="4.91751">
        <ele>211.266</ele>
        <time>2019-04-29T10:19:00Z</time>
      </trkpt>
      <trkpt lat="43.74397" lon="4.91717">
        <ele>213.157</ele>
        <time>2019-04-29T10:19:11Z</time>
      </trkpt>
      <trkpt lat="43.74393" lon="4.91681">
        <ele>214.745</ele>
        <time>2019-04-29T10:19:21Z</time>
      </trkpt>
      <trkpt lat="43.74389" lon="4.91653">
        <ele>216.579</ele>
        <time>2019-04-29T10:19:32Z</time>
      </trkpt>
      <trkpt lat="43.74392" lon="4.91624">
        <ele>218.35</ele>
        <time>2019-04-29T10:19:42Z</time>
      </trkpt>
      <trkpt lat="43.74386" lon="4.91589">
        <ele>220.282</ele>
        <time>2019-04-29T10:19:52Z</time>
      </trkpt>
      <trkpt lat="43.74385" lon="4.91548">
        <ele>222.11</ele>
        <time>2019-04-29T10:20:03Z</time>
      </trkpt>
      <trkpt lat="43.74383" lon="4.91515">
        <ele>223.354</ele>
        <time>2019-04-29T10:20:13Z</time>
      </trkpt>
      <trkpt lat="43.74381" lon="4.91478">
        <ele>224.646</ele>
        <time>2019-04-29T10:20:24Z</time>
      </trkpt>
      <trkpt lat="43.74379" lon="4.91446">
        <ele>225.6</ele>
        <time>2019-04-29T10:20:34Z</time>
      </trkpt>
      <trkpt lat="43.74378" lon="4.91414">
        <ele>226.202</ele>
        <time>2019-04-29T10:20:45Z</time>
      </trkpt>
      <trkpt lat="43.74379" lon="4.91385">
        <ele>227.313</ele>
        <time>2019-04-29T10:20:55Z</time>
      </trkpt>
      <trkpt lat="43.74376" lon="4.91353">
        <ele>229.293</ele>
        <time>2019-04-29T10:21:06Z</time>
      </trkpt>
      <trkpt lat="43.74371" lon="4.91322">
        <ele>230.897</ele>
        <time>2019-04-29T10:21:17Z</time>
      </trkpt>
      <trkpt lat="43.74365" lon="4.91288">
        <ele>232.467</ele>
        <time>2019-04-29T10:21:28Z</time>
      </trkpt>
      <trkpt lat="43.74361" lon="4.91255">
        <ele>233.622</ele>
        <time>2019-04-29T10:21:39Z</time>
      </trkpt>
      <trkpt lat="43.7436" lon="4.91222">
        <ele>234.791</ele>
        <time>2019-04-29T10:21:50Z</time>
      </trkpt>
      <trkpt lat="43.74353" lon="4.91192">
        <ele>236.508</ele>
        <time>2019-04-29T10:22:00Z</time>
      </trkpt>
      <trkpt lat="43.74353" lon="4.91161">
        <ele>238.095</ele>
        <time>2019-04-29T10:22:11Z</time>
      </trkpt>
      <trkpt lat="43.74345" lon="4.91129">
        <ele>239.851</ele>
        <time>2019-04-29T10:22:22Z</time>
      </trkpt>
      <trkpt lat="43.74342" lon="4.91101">
        <ele>240.7</ele>
        <time>2019-04-29T10:22:32Z</time>
      </trkpt>
      <trkpt lat="43.74345" lon="4.91071">
        <ele>241.84</ele>
        <time>2019-04-29T10:22:43Z</time>
      </trkpt>
      <trkpt lat="43.74341" lon="4.91042">
        <ele>242.778</ele>
        <time>2019-04-29T10:22:53Z</time>
      </trkpt>
      <trkpt lat="43.74349" lon="4.91011">
        <ele>243.387</ele>
        <time>2019-04-29T10:23:04Z</time>
      </trkpt>
      <trkpt lat="43.74348" lon="4.90982">
        <ele>244.948</ele>
        <time>2019-04-29T10:23:15Z</time>
      </trkpt>
      <trkpt lat="43.74346" lon="4.90955">
        <ele>246.6</ele>
        <time>2019-04-29T10:23:25Z</time>
      </trkpt>
      <trkpt lat="43.74342" lon="4.90924">
        <ele>248.515</ele>
        <time>2019-04-29T10:23:36Z</time>
      </trkpt>
      <trkpt lat="43.74343" lon="4.9089">
        <ele>250.09</ele>
        <time>2019-04-29T10:23:47Z</time>
      </trkpt>
      <trkpt lat="43.74343" lon="4.90855">
        <ele>251.032</ele>
        <time>2019-04-29T10:23:57Z</time>
      </trkpt>
      <trkpt lat="43.74346" lon="4.9082">
        <ele>251.431</ele>
        <time>2019-04-29T10:24:08Z</time>
      </trkpt>
      <trkpt lat="43.7435" lon="4.90788">
        <ele>251.934</ele>
        <time>2019-04-29T10:24:19Z</time>
      </trkpt>
      <trkpt lat="43.74359" lon="4.90758">
        <ele>252.551</ele>
        <time>2019-04-29T10:24:30Z</time>
      </trkpt>
      <trkpt lat="43.74362" lon="4.9073">
        <ele>254.086</ele>
        <time>2019-04-29T10:24:41Z</time>
      </trkpt>
      <trkpt lat="43.74364" lon="4.90697">
        <ele>255.709</ele>
        <time>2019-04-29T10:24:51Z</time>
      </trkpt>
      <trkpt lat="43.74366" lon="4.90661">
        <ele>257.628</ele>
        <time>2019-04-29T10:25:02Z</time>
      </trkpt>
      <trkpt lat="43.74366" lon="4.90634">
        <ele>259.391</ele>
        <time>2019-04-29T10:25:13Z</time>
      </trkpt>
      <trkpt lat="43.74371" lon="4.90602">
        <ele>261.517</ele>
        <time>2019-04-29T10:25:24Z</time>
      </trkpt>
      <trkpt lat="43.74357" lon="4.90551">
        <ele>264.119</ele>
        <time>2019-04-29T10:25:35Z</time>
      </trkpt>
      <trkpt lat="43.74302" lon="4.90543">
        <ele>261.993</ele>
        <time>2019-04-29T10:25:46Z</time>
      </trkpt>
      <trkpt lat="43.7422" lon="4.90611">
        <ele>257.305</ele>
        <time>2019-04-29T10:25:56Z</time>
      </trkpt>
      <trkpt lat="43.74122" lon="4.90676">
        <ele>254.547</ele>
        <time>2019-04-29T10:26:07Z</time>
      </trkpt>
      <trkpt lat="43.74035" lon="4.90733">
        <ele>251.446</ele>
        <time>2019-04-29T10:26:17Z</time>
      </trkpt>
      <trkpt lat="43.73956" lon="4.90841">
        <ele>247.59</ele>
        <time>2019-04-29T10:26:28Z</time>
      </trkpt>
      <trkpt lat="43.73867" lon="4.90913">
        <ele>243.896</ele>
        <time>2019-04-29T10:26:38Z</time>
      </trkpt>
      <trkpt lat="43.73758" lon="4.90964">
        <ele>241.692</ele>
        <time>2019-04-29T10:26:49Z</time>
      </trkpt>
      <trkpt lat="43.73649" lon="4.90964">
        <ele>237.523</ele>
        <time>2019-04-29T10:27:00Z</time>
      </trkpt>
      <trkpt lat="43.73543" lon="4.90925">
        <ele>234.115</ele>
        <time>2019-04-29T10:27:10Z</time>
      </trkpt>
      <trkpt lat="43.73437" lon="4.90884">
        <ele>228.862</ele>
        <time>2019-04-29T10:27:20Z</time>
      </trkpt>
      <trkpt lat="43.73338" lon="4.90808">
        <ele>224.191</ele>
        <time>2019-04-29T10:27:31Z</time>
      </trkpt>
      <trkpt lat="43.73257" lon="4.90717">
        <ele>219.469</ele>
        <time>2019-04-29T10:27:41Z</time>
      </trkpt>
      <trkpt lat="43.73195" lon="4.90607">
        <ele>214.602</ele>
        <time>2019-04-29T10:27:52Z</time>
      </trkpt>
      <trkpt lat="43.73124" lon="4.90549">
        <ele>210.002</ele>
        <time>2019-04-29T10:28:02Z</time>
      </trkpt>
      <trkpt lat="43.73028" lon="4.90566">
        <ele>205.618</ele>
        <time>2019-04-29T10:28:13Z</time>
      </trkpt>
      <trkpt lat="43.72936" lon="4.90568">
        <ele>201.53</ele>
        <time>2019-04-29T10:28:24Z</time>
      </trkpt>
      <trkpt lat="43.72843" lon="4.90517">
        <ele>197.761</ele>
        <time>2019-04-29T10:28:35Z</time>
      </trkpt>
      <trkpt lat="43.72763" lon="4.90469">
        <ele>194.06</ele>
        <time>2019-04-29T10:28:45Z</time>
      </trkpt>
      <trkpt lat="43.72673" lon="4.90435">
        <ele>190.627</ele>
        <time>2019-04-29T10:28:56Z</time>
      </trkpt>
      <trkpt lat="43.72655" lon="4.90427">
        <ele>190.165</ele>
        <time>2019-04-29T10:29:06Z</time>
      </trkpt>
      <trkpt lat="43.72655" lon="4.90427">
        <ele>190.184</ele>
        <time>2019-04-29T10:29:17Z</time>
      </trkpt>
      <trkpt lat="43.72655" lon="4.90427">
        <ele>190.188</ele>
        <time>2019-04-29T10:29:27Z</time>
      </trkpt>
      <trkpt lat="43.72655" lon="4.90427">
        <ele>190.133</ele>
        <time>2019-04-29T10:29:38Z</time>
      </trkpt>
      <trkpt lat="43.72628" lon="4.90417">
        <ele>189.782</ele>
        <time>2019-04-29T10:29:48Z</time>
      </trkpt>
      <trkpt lat="43.72562" lon="4.90435">
        <ele>187.018</ele>
        <time>2019-04-29T10:29:59Z</time>
      </trkpt>
      <trkpt lat="43.72493" lon="4.90513">
        <ele>182.539</ele>
        <time>2019-04-29T10:30:10Z</time>
      </trkpt>
      <trkpt lat="43.72414" lon="4.90493">
        <ele>180.274</ele>
        <time>2019-04-29T10:30:20Z</time>
      </trkpt>
      <trkpt lat="43.72331" lon="4.90505">
        <ele>177.939</ele>
        <time>2019-04-29T10:30:30Z</time>
      </trkpt>
      <trkpt lat="43.72244" lon="4.90459">
        <ele>174.754</ele>
        <time>2019-04-29T10:30:41Z</time>
      </trkpt>
      <trkpt lat="43.72163" lon="4.90385">
        <ele>171.828</ele>
        <time>2019-04-29T10:30:52Z</time>
      </trkpt>
      <trkpt lat="43.72076" lon="4.90308">
        <ele>169.755</ele>
        <time>2019-04-29T10:31:03Z</time>
      </trkpt>
      <trkpt lat="43.72009" lon="4.90233">
        <ele>166.856</ele>
        <time>2019-04-29T10:31:13Z</time>
      </trkpt>
      <trkpt lat="43.71972" lon="4.90111">
        <ele>163.99</ele>
        <time>2019-04-29T10:31:24Z</time>
      </trkpt>
      <trkpt lat="43.71938" lon="4.90004">
        <ele>161.51</ele>
        <time>2019-04-29T10:31:34Z</time>
      </trkpt>
      <trkpt lat="43.71889" lon="4.8991">
        <ele>156.258</ele>
        <time>2019-04-29T10:31:44Z</time>
      </trkpt>
      <trkpt lat="43.71832" lon="4.89816">
        <ele>151.545</ele>
        <time>2019-04-29T10:31:55Z</time>
      </trkpt>
      <trkpt lat="43.7178" lon="4.89721">
        <ele>150.703</ele>
        <time>2019-04-29T10:32:06Z</time>
      </trkpt>
      <trkpt lat="43.71728" lon="4.89631">
        <ele>150.312</ele>
        <time>2019-04-29T10:32:17Z</time>
      </trkpt>
      <trkpt lat="43.71712" lon="4.89598">
        <ele>149.218</ele>
        <time>2019-04-29T10:32:28Z</time>
      </trkpt>
      <trkpt lat="43.71709" lon="4.89599">
        <ele>148.851</ele>
        <time>2019-04-29T10:32:39Z</time>
      </trkpt>
      <trkpt lat="43.71709" lon="4.89599">
        <ele>148.35</ele>
        <time>2019-04-29T10:32:50Z</time>
      </trkpt>
      <trkpt lat="43.71707" lon="4.89599">
        <ele>148.02</ele>
        <time>2019-04-29T10:33:01Z</time>
      </trkpt>
      <trkpt lat="43.71707" lon="4.89597">
        <ele>147.696</ele>
        <time>2019-04-29T10:33:12Z</time>
      </trkpt>
      <trkpt lat="43.71707" lon="4.89597">
        <ele>147.52</ele>
        <time>2019-04-29T10:33:23Z</time>
      </trkpt>
      <trkpt lat="43.71707" lon="4.89597">
        <ele>147.451</ele>
        <time>2019-04-29T10:33:34Z</time>
      </trkpt>
      <trkpt lat="43.71707" lon="4.89598">
        <ele>147.121</ele>
        <time>2019-04-29T10:33:45Z</time>
      </trkpt>
      <trkpt lat="43.71708" lon="4.89602">
        <ele>145.697</ele>
        <time>2019-04-29T10:33:56Z</time>
      </trkpt>
      <trkpt lat="43.71725" lon="4.89597">
        <ele>144.418</ele>
        <time>2019-04-29T10:34:07Z</time>
      </trkpt>
      <trkpt lat="43.71732" lon="4.89563">
        <ele>144.125</ele>
        <time>2019-04-29T10:34:18Z</time>
      </trkpt>
      <trkpt lat="43.71737" lon="4.89525">
        <ele>143.654</ele>
        <time>2019-04-29T10:34:29Z</time>
      </trkpt>
      <trkpt lat="43.71744" lon="4.89494">
        <ele>143.51</ele>
        <time>2019-04-29T10:34:40Z</time>
      </trkpt>
      <trkpt lat="43.71755" lon="4.89466">
        <ele>143.684</ele>
        <time>2019-04-29T10:34:50Z</time>
      </trkpt>
      <trkpt lat="43.71775" lon="4.89449">
        <ele>144.143</ele>
        <time>2019-04-29T10:35:00Z</time>
      </trkpt>
      <trkpt lat="43.71789" lon="4.89429">
        <ele>144.729</ele>
        <time>2019-04-29T10:35:11Z</time>
      </trkpt>
      <trkpt lat="43.71792" lon="4.89407">
        <ele>143.197</ele>
        <time>2019-04-29T10:35:21Z</time>
      </trkpt>
      <trkpt lat="43.71801" lon="4.89363">
        <ele>144.472</ele>
        <time>2019-04-29T10:35:32Z</time>
      </trkpt>
      <trkpt lat="43.71807" lon="4.89326">
        <ele>145.73</ele>
        <time>2019-04-29T10:35:43Z</time>
      </trkpt>
      <trkpt lat="43.71818" lon="4.89294">
        <ele>147.083</ele>
        <time>2019-04-29T10:35:53Z</time>
      </trkpt>
      <trkpt lat="43.71842" lon="4.89269">
        <ele>149.792</ele>
        <time>2019-04-29T10:36:04Z</time>
      </trkpt>
      <trkpt lat="43.71858" lon="4.89252">
        <ele>150.799</ele>
        <time>2019-04-29T10:36:15Z</time>
      </trkpt>
      <trkpt lat="43.71871" lon="4.89235">
        <ele>151.603</ele>
        <time>2019-04-29T10:36:25Z</time>
      </trkpt>
      <trkpt lat="43.71874" lon="4.8921">
        <ele>152.436</ele>
        <time>2019-04-29T10:36:36Z</time>
      </trkpt>
      <trkpt lat="43.71888" lon="4.89182">
        <ele>153.193</ele>
        <time>2019-04-29T10:36:46Z</time>
      </trkpt>
      <trkpt lat="43.71898" lon="4.89148">
        <ele>154.05</ele>
        <time>2019-04-29T10:36:57Z</time>
      </trkpt>
      <trkpt lat="43.71906" lon="4.89115">
        <ele>155.44</ele>
        <time>2019-04-29T10:37:08Z</time>
      </trkpt>
      <trkpt lat="43.71912" lon="4.89086">
        <ele>156.619</ele>
        <time>2019-04-29T10:37:18Z</time>
      </trkpt>
      <trkpt lat="43.71923" lon="4.89049">
        <ele>157.879</ele>
        <time>2019-04-29T10:37:29Z</time>
      </trkpt>
      <trkpt lat="43.71926" lon="4.8902">
        <ele>159.559</ele>
        <time>2019-04-29T10:37:39Z</time>
      </trkpt>
      <trkpt lat="43.71934" lon="4.88985">
        <ele>160.825</ele>
        <time>2019-04-29T10:37:50Z</time>
      </trkpt>
      <trkpt lat="43.7194" lon="4.88953">
        <ele>161.735</ele>
        <time>2019-04-29T10:38:00Z</time>
      </trkpt>
      <trkpt lat="43.71944" lon="4.88919">
        <ele>163.764</ele>
        <time>2019-04-29T10:38:11Z</time>
      </trkpt>
      <trkpt lat="43.71954" lon="4.88889">
        <ele>165.22</ele>
        <time>2019-04-29T10:38:22Z</time>
      </trkpt>
      <trkpt lat="43.71981" lon="4.88857">
        <ele>166.201</ele>
        <time>2019-04-29T10:38:33Z</time>
      </trkpt>
      <trkpt lat="43.72002" lon="4.88819">
        <ele>166.324</ele>
        <time>2019-04-29T10:38:44Z</time>
      </trkpt>
      <trkpt lat="43.72016" lon="4.88775">
        <ele>166.443</ele>
        <time>2019-04-29T10:38:55Z</time>
      </trkpt>
      <trkpt lat="43.72027" lon="4.88729">
        <ele>166.638</ele>
        <time>2019-04-29T10:39:06Z</time>
      </trkpt>
      <trkpt lat="43.72035" lon="4.88683">
        <ele>166.825</ele>
        <time>2019-04-29T10:39:17Z</time>
      </trkpt>
      <trkpt lat="43.72043" lon="4.8864">
        <ele>167.077</ele>
        <time>2019-04-29T10:39:27Z</time>
      </trkpt>
      <trkpt lat="43.72051" lon="4.88599">
        <ele>167.407</ele>
        <time>2019-04-29T10:39:37Z</time>
      </trkpt>
      <trkpt lat="43.72057" lon="4.88557">
        <ele>167.877</ele>
        <time>2019-04-29T10:39:48Z</time>
      </trkpt>
      <trkpt lat="43.7206" lon="4.8852">
        <ele>168.315</ele>
        <time>2019-04-29T10:39:58Z</time>
      </trkpt>
      <trkpt lat="43.7207" lon="4.88477">
        <ele>169.354</ele>
        <time>2019-04-29T10:40:09Z</time>
      </trkpt>
      <trkpt lat="43.72075" lon="4.88437">
        <ele>169.964</ele>
        <time>2019-04-29T10:40:19Z</time>
      </trkpt>
      <trkpt lat="43.72076" lon="4.88394">
        <ele>171.317</ele>
        <time>2019-04-29T10:40:30Z</time>
      </trkpt>
      <trkpt lat="43.72084" lon="4.88351">
        <ele>172.407</ele>
        <time>2019-04-29T10:40:41Z</time>
      </trkpt>
      <trkpt lat="43.72091" lon="4.88304">
        <ele>172.295</ele>
        <time>2019-04-29T10:40:52Z</time>
      </trkpt>
      <trkpt lat="43.72099" lon="4.88253">
        <ele>171.606</ele>
        <time>2019-04-29T10:41:02Z</time>
      </trkpt>
      <trkpt lat="43.72094" lon="4.88159">
        <ele>170.678</ele>
        <time>2019-04-29T10:41:13Z</time>
      </trkpt>
      <trkpt lat="43.72085" lon="4.8806">
        <ele>167.106</ele>
        <time>2019-04-29T10:41:24Z</time>
      </trkpt>
      <trkpt lat="43.7208" lon="4.87965">
        <ele>165.608</ele>
        <time>2019-04-29T10:41:35Z</time>
      </trkpt>
      <trkpt lat="43.72078" lon="4.87873">
        <ele>164.533</ele>
        <time>2019-04-29T10:41:45Z</time>
      </trkpt>
      <trkpt lat="43.7207" lon="4.8777">
        <ele>162.837</ele>
        <time>2019-04-29T10:41:56Z</time>
      </trkpt>
      <trkpt lat="43.72054" lon="4.87687">
        <ele>161.5</ele>
        <time>2019-04-29T10:42:06Z</time>
      </trkpt>
      <trkpt lat="43.72032" lon="4.87599">
        <ele>160.235</ele>
        <time>2019-04-29T10:42:17Z</time>
      </trkpt>
      <trkpt lat="43.72032" lon="4.87507">
        <ele>159.641</ele>
        <time>2019-04-29T10:42:28Z</time>
      </trkpt>
      <trkpt lat="43.72032" lon="4.87416">
        <ele>157.335</ele>
        <time>2019-04-29T10:42:39Z</time>
      </trkpt>
      <trkpt lat="43.72025" lon="4.87336">
        <ele>155.572</ele>
        <time>2019-04-29T10:42:49Z</time>
      </trkpt>
      <trkpt lat="43.72028" lon="4.87249">
        <ele>153.944</ele>
        <time>2019-04-29T10:43:00Z</time>
      </trkpt>
      <trkpt lat="43.72054" lon="4.87222">
        <ele>153.5</ele>
        <time>2019-04-29T10:43:11Z</time>
      </trkpt>
      <trkpt lat="43.72074" lon="4.87204">
        <ele>153.212</ele>
        <time>2019-04-29T10:43:21Z</time>
      </trkpt>
      <trkpt lat="43.72083" lon="4.87172">
        <ele>152.996</ele>
        <time>2019-04-29T10:43:32Z</time>
      </trkpt>
      <trkpt lat="43.72087" lon="4.87145">
        <ele>152.451</ele>
        <time>2019-04-29T10:43:42Z</time>
      </trkpt>
      <trkpt lat="43.72082" lon="4.87095">
        <ele>154.679</ele>
        <time>2019-04-29T10:43:53Z</time>
      </trkpt>
      <trkpt lat="43.72081" lon="4.87056">
        <ele>155.131</ele>
        <time>2019-04-29T10:44:03Z</time>
      </trkpt>
      <trkpt lat="43.7208" lon="4.87013">
        <ele>155.356</ele>
        <time>2019-04-29T10:44:14Z</time>
      </trkpt>
      <trkpt lat="43.72076" lon="4.8696">
        <ele>156.051</ele>
        <time>2019-04-29T10:44:25Z</time>
      </trkpt>
      <trkpt lat="43.72067" lon="4.86913">
        <ele>156.509</ele>
        <time>2019-04-29T10:44:36Z</time>
      </trkpt>
      <trkpt lat="43.72059" lon="4.86879">
        <ele>156.85</ele>
        <time>2019-04-29T10:44:46Z</time>
      </trkpt>
      <trkpt lat="43.7205" lon="4.86843">
        <ele>157.573</ele>
        <time>2019-04-29T10:44:56Z</time>
      </trkpt>
      <trkpt lat="43.7205" lon="4.86813">
        <ele>158.386</ele>
        <time>2019-04-29T10:45:07Z</time>
      </trkpt>
      <trkpt lat="43.72046" lon="4.86787">
        <ele>159.023</ele>
        <time>2019-04-29T10:45:18Z</time>
      </trkpt>
      <trkpt lat="43.72043" lon="4.86746">
        <ele>159.724</ele>
        <time>2019-04-29T10:45:29Z</time>
      </trkpt>
      <trkpt lat="43.72043" lon="4.86709">
        <ele>160.669</ele>
        <time>2019-04-29T10:45:39Z</time>
      </trkpt>
      <trkpt lat="43.72041" lon="4.86675">
        <ele>161.662</ele>
        <time>2019-04-29T10:45:49Z</time>
      </trkpt>
      <trkpt lat="43.7204" lon="4.86646">
        <ele>162.663</ele>
        <time>2019-04-29T10:46:00Z</time>
      </trkpt>
      <trkpt lat="43.72043" lon="4.86598">
        <ele>163.772</ele>
        <time>2019-04-29T10:46:11Z</time>
      </trkpt>
      <trkpt lat="43.72053" lon="4.86555">
        <ele>164.866</ele>
        <time>2019-04-29T10:46:22Z</time>
      </trkpt>
      <trkpt lat="43.72061" lon="4.8652">
        <ele>165.906</ele>
        <time>2019-04-29T10:46:33Z</time>
      </trkpt>
      <trkpt lat="43.72067" lon="4.86493">
        <ele>166.837</ele>
        <time>2019-04-29T10:46:44Z</time>
      </trkpt>
      <trkpt lat="43.72067" lon="4.86493">
        <ele>166.933</ele>
        <time>2019-04-29T10:46:54Z</time>
      </trkpt>
      <trkpt lat="43.72067" lon="4.86493">
        <ele>167.044</ele>
        <time>2019-04-29T10:47:05Z</time>
      </trkpt>
      <trkpt lat="43.72067" lon="4.86493">
        <ele>167.16</ele>
        <time>2019-04-29T10:47:16Z</time>
      </trkpt>
      <trkpt lat="43.72067" lon="4.86493">
        <ele>167.269</ele>
        <time>2019-04-29T10:47:26Z</time>
      </trkpt>
      <trkpt lat="43.7207" lon="4.86487">
        <ele>167.702</ele>
        <time>2019-04-29T10:47:37Z</time>
      </trkpt>
      <trkpt lat="43.7207" lon="4.86487">
        <ele>167.789</ele>
        <time>2019-04-29T10:47:48Z</time>
      </trkpt>
      <trkpt lat="43.7207" lon="4.86487">
        <ele>168</ele>
        <time>2019-04-29T10:47:58Z</time>
      </trkpt>
      <trkpt lat="43.7207" lon="4.86484">
        <ele>168.169</ele>
        <time>2019-04-29T10:48:09Z</time>
      </trkpt>
      <trkpt lat="43.72069" lon="4.86421">
        <ele>166.7</ele>
        <time>2019-04-29T10:48:19Z</time>
      </trkpt>
      <trkpt lat="43.72097" lon="4.86314">
        <ele>161.592</ele>
        <time>2019-04-29T10:48:30Z</time>
      </trkpt>
      <trkpt lat="43.72119" lon="4.86216">
        <ele>160.308</ele>
        <time>2019-04-29T10:48:41Z</time>
      </trkpt>
      <trkpt lat="43.72128" lon="4.86162">
        <ele>160.479</ele>
        <time>2019-04-29T10:48:52Z</time>
      </trkpt>
      <trkpt lat="43.72131" lon="4.86125">
        <ele>160.689</ele>
        <time>2019-04-29T10:49:02Z</time>
      </trkpt>
      <trkpt lat="43.72133" lon="4.86081">
        <ele>161.111</ele>
        <time>2019-04-29T10:49:13Z</time>
      </trkpt>
      <trkpt lat="43.72137" lon="4.8605">
        <ele>161.676</ele>
        <time>2019-04-29T10:49:23Z</time>
      </trkpt>
      <trkpt lat="43.72141" lon="4.86014">
        <ele>162.631</ele>
        <time>2019-04-29T10:49:34Z</time>
      </trkpt>
      <trkpt lat="43.72143" lon="4.85981">
        <ele>163.675</ele>
        <time>2019-04-29T10:49:44Z</time>
      </trkpt>
      <trkpt lat="43.72146" lon="4.85948">
        <ele>164.797</ele>
        <time>2019-04-29T10:49:54Z</time>
      </trkpt>
      <trkpt lat="43.72146" lon="4.85912">
        <ele>166.026</ele>
        <time>2019-04-29T10:50:05Z</time>
      </trkpt>
      <trkpt lat="43.72147" lon="4.85876">
        <ele>167.249</ele>
        <time>2019-04-29T10:50:16Z</time>
      </trkpt>
      <trkpt lat="43.72147" lon="4.85843">
        <ele>168.324</ele>
        <time>2019-04-29T10:50:26Z</time>
      </trkpt>
      <trkpt lat="43.72148" lon="4.8581">
        <ele>169.331</ele>
        <time>2019-04-29T10:50:36Z</time>
      </trkpt>
      <trkpt lat="43.72147" lon="4.8578">
        <ele>170.812</ele>
        <time>2019-04-29T10:50:46Z</time>
      </trkpt>
      <trkpt lat="43.72149" lon="4.85719">
        <ele>171.483</ele>
        <time>2019-04-29T10:50:57Z</time>
      </trkpt>
      <trkpt lat="43.72189" lon="4.85661">
        <ele>170.933</ele>
        <time>2019-04-29T10:51:08Z</time>
      </trkpt>
      <trkpt lat="43.72207" lon="4.85573">
        <ele>171.187</ele>
        <time>2019-04-29T10:51:19Z</time>
      </trkpt>
      <trkpt lat="43.72194" lon="4.85477">
        <ele>167.07</ele>
        <time>2019-04-29T10:51:30Z</time>
      </trkpt>
      <trkpt lat="43.72184" lon="4.85435">
        <ele>162.776</ele>
        <time>2019-04-29T10:51:41Z</time>
      </trkpt>
      <trkpt lat="43.7215" lon="4.85425">
        <ele>157.219</ele>
        <time>2019-04-29T10:51:52Z</time>
      </trkpt>
      <trkpt lat="43.72106" lon="4.85301">
        <ele>151.357</ele>
        <time>2019-04-29T10:52:02Z</time>
      </trkpt>
      <trkpt lat="43.72052" lon="4.8516">
        <ele>145.38</ele>
        <time>2019-04-29T10:52:13Z</time>
      </trkpt>
      <trkpt lat="43.72026" lon="4.85002">
        <ele>140.246</ele>
        <time>2019-04-29T10:52:24Z</time>
      </trkpt>
      <trkpt lat="43.71985" lon="4.84878">
        <ele>136.683</ele>
        <time>2019-04-29T10:52:34Z</time>
      </trkpt>
      <trkpt lat="43.71975" lon="4.84742">
        <ele>131.822</ele>
        <time>2019-04-29T10:52:45Z</time>
      </trkpt>
      <trkpt lat="43.71993" lon="4.8463">
        <ele>128.681</ele>
        <time>2019-04-29T10:52:56Z</time>
      </trkpt>
      <trkpt lat="43.71997" lon="4.84514">
        <ele>124.894</ele>
        <time>2019-04-29T10:53:07Z</time>
      </trkpt>
      <trkpt lat="43.72" lon="4.84402">
        <ele>120.388</ele>
        <time>2019-04-29T10:53:17Z</time>
      </trkpt>
      <trkpt lat="43.71924" lon="4.84315">
        <ele>116.524</ele>
        <time>2019-04-29T10:53:28Z</time>
      </trkpt>
      <trkpt lat="43.71871" lon="4.84191">
        <ele>112.975</ele>
        <time>2019-04-29T10:53:39Z</time>
      </trkpt>
      <trkpt lat="43.71871" lon="4.8406">
        <ele>110.62</ele>
        <time>2019-04-29T10:53:50Z</time>
      </trkpt>
      <trkpt lat="43.71872" lon="4.83991">
        <ele>108.8</ele>
        <time>2019-04-29T10:54:00Z</time>
      </trkpt>
      <trkpt lat="43.7188" lon="4.83933">
        <ele>109.336</ele>
        <time>2019-04-29T10:54:11Z</time>
      </trkpt>
      <trkpt lat="43.71889" lon="4.83886">
        <ele>109.118</ele>
        <time>2019-04-29T10:54:22Z</time>
      </trkpt>
      <trkpt lat="43.71903" lon="4.83838">
        <ele>107.477</ele>
        <time>2019-04-29T10:54:32Z</time>
      </trkpt>
      <trkpt lat="43.71922" lon="4.83798">
        <ele>106.841</ele>
        <time>2019-04-29T10:54:42Z</time>
      </trkpt>
      <trkpt lat="43.71941" lon="4.8375">
        <ele>106.579</ele>
        <time>2019-04-29T10:54:53Z</time>
      </trkpt>
      <trkpt lat="43.7196" lon="4.83708">
        <ele>106.482</ele>
        <time>2019-04-29T10:55:03Z</time>
      </trkpt>
      <trkpt lat="43.71975" lon="4.83674">
        <ele>106.528</ele>
        <time>2019-04-29T10:55:13Z</time>
      </trkpt>
      <trkpt lat="43.71989" lon="4.83635">
        <ele>106.573</ele>
        <time>2019-04-29T10:55:24Z</time>
      </trkpt>
      <trkpt lat="43.72007" lon="4.83587">
        <ele>106.608</ele>
        <time>2019-04-29T10:55:35Z</time>
      </trkpt>
      <trkpt lat="43.72022" lon="4.83544">
        <ele>106.608</ele>
        <time>2019-04-29T10:55:45Z</time>
      </trkpt>
      <trkpt lat="43.72037" lon="4.83511">
        <ele>106.727</ele>
        <time>2019-04-29T10:55:55Z</time>
      </trkpt>
      <trkpt lat="43.72052" lon="4.83472">
        <ele>107.044</ele>
        <time>2019-04-29T10:56:06Z</time>
      </trkpt>
      <trkpt lat="43.72061" lon="4.83433">
        <ele>107.939</ele>
        <time>2019-04-29T10:56:17Z</time>
      </trkpt>
      <trkpt lat="43.72061" lon="4.83397">
        <ele>107.8</ele>
        <time>2019-04-29T10:56:27Z</time>
      </trkpt>
      <trkpt lat="43.72054" lon="4.8335">
        <ele>107.741</ele>
        <time>2019-04-29T10:56:37Z</time>
      </trkpt>
      <trkpt lat="43.72046" lon="4.83292">
        <ele>105.44</ele>
        <time>2019-04-29T10:56:47Z</time>
      </trkpt>
      <trkpt lat="43.72049" lon="4.83255">
        <ele>105.289</ele>
        <time>2019-04-29T10:56:57Z</time>
      </trkpt>
      <trkpt lat="43.72026" lon="4.83271">
        <ele>105.145</ele>
        <time>2019-04-29T10:57:08Z</time>
      </trkpt>
      <trkpt lat="43.72002" lon="4.83301">
        <ele>104.765</ele>
        <time>2019-04-29T10:57:19Z</time>
      </trkpt>
      <trkpt lat="43.71981" lon="4.83321">
        <ele>104.118</ele>
        <time>2019-04-29T10:57:29Z</time>
      </trkpt>
      <trkpt lat="43.71957" lon="4.8334">
        <ele>103.597</ele>
        <time>2019-04-29T10:57:40Z</time>
      </trkpt>
      <trkpt lat="43.71932" lon="4.83367">
        <ele>103.246</ele>
        <time>2019-04-29T10:57:51Z</time>
      </trkpt>
      <trkpt lat="43.71908" lon="4.83397">
        <ele>102.96</ele>
        <time>2019-04-29T10:58:02Z</time>
      </trkpt>
      <trkpt lat="43.7188" lon="4.83423">
        <ele>102.732</ele>
        <time>2019-04-29T10:58:13Z</time>
      </trkpt>
      <trkpt lat="43.71868" lon="4.83444">
        <ele>102.488</ele>
        <time>2019-04-29T10:58:23Z</time>
      </trkpt>
      <trkpt lat="43.71891" lon="4.83459">
        <ele>102.523</ele>
        <time>2019-04-29T10:58:34Z</time>
      </trkpt>
      <trkpt lat="43.71913" lon="4.83473">
        <ele>102.844</ele>
        <time>2019-04-29T10:58:44Z</time>
      </trkpt>
      <trkpt lat="43.7194" lon="4.83488">
        <ele>102.881</ele>
        <time>2019-04-29T10:58:55Z</time>
      </trkpt>
      <trkpt lat="43.71962" lon="4.83504">
        <ele>103.322</ele>
        <time>2019-04-29T10:59:05Z</time>
      </trkpt>
      <trkpt lat="43.71987" lon="4.83525">
        <ele>104.416</ele>
        <time>2019-04-29T10:59:16Z</time>
      </trkpt>
      <trkpt lat="43.72009" lon="4.83543">
        <ele>105.677</ele>
        <time>2019-04-29T10:59:27Z</time>
      </trkpt>
      <trkpt lat="43.72025" lon="4.8354">
        <ele>106.122</ele>
        <time>2019-04-29T10:59:38Z</time>
      </trkpt>
      <trkpt lat="43.72037" lon="4.8351">
        <ele>106.221</ele>
        <time>2019-04-29T10:59:49Z</time>
      </trkpt>
      <trkpt lat="43.7205" lon="4.83476">
        <ele>105.719</ele>
        <time>2019-04-29T11:00:00Z</time>
      </trkpt>
      <trkpt lat="43.72059" lon="4.83435">
        <ele>105.717</ele>
        <time>2019-04-29T11:00:11Z</time>
      </trkpt>
      <trkpt lat="43.72057" lon="4.83393">
        <ele>105.433</ele>
        <time>2019-04-29T11:00:22Z</time>
      </trkpt>
      <trkpt lat="43.72049" lon="4.83343">
        <ele>104.691</ele>
        <time>2019-04-29T11:00:32Z</time>
      </trkpt>
      <trkpt lat="43.72048" lon="4.83272">
        <ele>104.201</ele>
        <time>2019-04-29T11:00:43Z</time>
      </trkpt>
      <trkpt lat="43.72063" lon="4.83226">
        <ele>105.045</ele>
        <time>2019-04-29T11:00:53Z</time>
      </trkpt>
      <trkpt lat="43.72086" lon="4.8318">
        <ele>106.2</ele>
        <time>2019-04-29T11:01:04Z</time>
      </trkpt>
      <trkpt lat="43.72102" lon="4.83133">
        <ele>106.627</ele>
        <time>2019-04-29T11:01:15Z</time>
      </trkpt>
      <trkpt lat="43.72111" lon="4.83086">
        <ele>106.643</ele>
        <time>2019-04-29T11:01:26Z</time>
      </trkpt>
      <trkpt lat="43.72123" lon="4.83013">
        <ele>106.466</ele>
        <time>2019-04-29T11:01:36Z</time>
      </trkpt>
      <trkpt lat="43.7213" lon="4.82927">
        <ele>105.508</ele>
        <time>2019-04-29T11:01:47Z</time>
      </trkpt>
      <trkpt lat="43.7213" lon="4.82854">
        <ele>102.927</ele>
        <time>2019-04-29T11:01:58Z</time>
      </trkpt>
      <trkpt lat="43.72132" lon="4.82785">
        <ele>102.772</ele>
        <time>2019-04-29T11:02:09Z</time>
      </trkpt>
      <trkpt lat="43.72134" lon="4.82709">
        <ele>102.863</ele>
        <time>2019-04-29T11:02:20Z</time>
      </trkpt>
      <trkpt lat="43.72132" lon="4.82632">
        <ele>103.947</ele>
        <time>2019-04-29T11:02:31Z</time>
      </trkpt>
      <trkpt lat="43.72137" lon="4.82559">
        <ele>102.725</ele>
        <time>2019-04-29T11:02:42Z</time>
      </trkpt>
      <trkpt lat="43.72141" lon="4.82472">
        <ele>101.958</ele>
        <time>2019-04-29T11:02:53Z</time>
      </trkpt>
      <trkpt lat="43.72148" lon="4.82381">
        <ele>100.8</ele>
        <time>2019-04-29T11:03:04Z</time>
      </trkpt>
      <trkpt lat="43.72155" lon="4.82313">
        <ele>99.978</ele>
        <time>2019-04-29T11:03:15Z</time>
      </trkpt>
      <trkpt lat="43.72159" lon="4.82253">
        <ele>100.333</ele>
        <time>2019-04-29T11:03:26Z</time>
      </trkpt>
      <trkpt lat="43.72153" lon="4.82175">
        <ele>101.331</ele>
        <time>2019-04-29T11:03:36Z</time>
      </trkpt>
      <trkpt lat="43.72104" lon="4.82107">
        <ele>101.734</ele>
        <time>2019-04-29T11:03:47Z</time>
      </trkpt>
      <trkpt lat="43.72025" lon="4.82023">
        <ele>99.259</ele>
        <time>2019-04-29T11:03:58Z</time>
      </trkpt>
      <trkpt lat="43.72001" lon="4.81903">
        <ele>97.484</ele>
        <time>2019-04-29T11:04:09Z</time>
      </trkpt>
      <trkpt lat="43.71994" lon="4.81812">
        <ele>94.163</ele>
        <time>2019-04-29T11:04:19Z</time>
      </trkpt>
      <trkpt lat="43.71992" lon="4.81745">
        <ele>89.444</ele>
        <time>2019-04-29T11:04:29Z</time>
      </trkpt>
      <trkpt lat="43.7199" lon="4.81683">
        <ele>86.732</ele>
        <time>2019-04-29T11:04:40Z</time>
      </trkpt>
      <trkpt lat="43.71986" lon="4.81627">
        <ele>86.262</ele>
        <time>2019-04-29T11:04:51Z</time>
      </trkpt>
      <trkpt lat="43.71985" lon="4.81583">
        <ele>86.246</ele>
        <time>2019-04-29T11:05:02Z</time>
      </trkpt>
      <trkpt lat="43.71982" lon="4.81521">
        <ele>86.833</ele>
        <time>2019-04-29T11:05:13Z</time>
      </trkpt>
      <trkpt lat="43.71977" lon="4.8147">
        <ele>87.164</ele>
        <time>2019-04-29T11:05:24Z</time>
      </trkpt>
      <trkpt lat="43.71975" lon="4.81414">
        <ele>88.784</ele>
        <time>2019-04-29T11:05:34Z</time>
      </trkpt>
      <trkpt lat="43.71975" lon="4.81354">
        <ele>88.892</ele>
        <time>2019-04-29T11:05:44Z</time>
      </trkpt>
      <trkpt lat="43.71969" lon="4.81293">
        <ele>89.182</ele>
        <time>2019-04-29T11:05:55Z</time>
      </trkpt>
      <trkpt lat="43.71964" lon="4.81233">
        <ele>89.329</ele>
        <time>2019-04-29T11:06:05Z</time>
      </trkpt>
      <trkpt lat="43.71968" lon="4.81182">
        <ele>89.31</ele>
        <time>2019-04-29T11:06:15Z</time>
      </trkpt>
      <trkpt lat="43.71973" lon="4.81134">
        <ele>88.827</ele>
        <time>2019-04-29T11:06:25Z</time>
      </trkpt>
      <trkpt lat="43.71997" lon="4.81081">
        <ele>86.341</ele>
        <time>2019-04-29T11:06:36Z</time>
      </trkpt>
      <trkpt lat="43.72015" lon="4.81029">
        <ele>86.007</ele>
        <time>2019-04-29T11:06:46Z</time>
      </trkpt>
      <trkpt lat="43.72029" lon="4.80973">
        <ele>86.451</ele>
        <time>2019-04-29T11:06:57Z</time>
      </trkpt>
      <trkpt lat="43.72059" lon="4.80966">
        <ele>87.831</ele>
        <time>2019-04-29T11:07:08Z</time>
      </trkpt>
      <trkpt lat="43.72084" lon="4.80975">
        <ele>88.461</ele>
        <time>2019-04-29T11:07:18Z</time>
      </trkpt>
      <trkpt lat="43.72101" lon="4.80947">
        <ele>88.548</ele>
        <time>2019-04-29T11:07:29Z</time>
      </trkpt>
      <trkpt lat="43.72093" lon="4.80947">
        <ele>88.755</ele>
        <time>2019-04-29T11:07:40Z</time>
      </trkpt>
      <trkpt lat="43.72093" lon="4.80948">
        <ele>88.848</ele>
        <time>2019-04-29T11:07:50Z</time>
      </trkpt>
      <trkpt lat="43.72093" lon="4.80948">
        <ele>88.574</ele>
        <time>2019-04-29T11:08:01Z</time>
      </trkpt>
      <trkpt lat="43.7209" lon="4.80952">
        <ele>88.269</ele>
        <time>2019-04-29T11:08:12Z</time>
      </trkpt>
      <trkpt lat="43.72099" lon="4.8094">
        <ele>88.138</ele>
        <time>2019-04-29T11:08:22Z</time>
      </trkpt>
      <trkpt lat="43.72121" lon="4.809">
        <ele>88.656</ele>
        <time>2019-04-29T11:08:32Z</time>
      </trkpt>
      <trkpt lat="43.72145" lon="4.80851">
        <ele>89.881</ele>
        <time>2019-04-29T11:08:43Z</time>
      </trkpt>
      <trkpt lat="43.72166" lon="4.80808">
        <ele>90.52</ele>
        <time>2019-04-29T11:08:53Z</time>
      </trkpt>
      <trkpt lat="43.72185" lon="4.80762">
        <ele>90.894</ele>
        <time>2019-04-29T11:09:04Z</time>
      </trkpt>
      <trkpt lat="43.72209" lon="4.80711">
        <ele>90.644</ele>
        <time>2019-04-29T11:09:14Z</time>
      </trkpt>
      <trkpt lat="43.72229" lon="4.80642">
        <ele>90.381</ele>
        <time>2019-04-29T11:09:25Z</time>
      </trkpt>
      <trkpt lat="43.72247" lon="4.80567">
        <ele>91.232</ele>
        <time>2019-04-29T11:09:36Z</time>
      </trkpt>
      <trkpt lat="43.72237" lon="4.80544">
        <ele>90.721</ele>
        <time>2019-04-29T11:09:47Z</time>
      </trkpt>
      <trkpt lat="43.72196" lon="4.80532">
        <ele>90.144</ele>
        <time>2019-04-29T11:09:58Z</time>
      </trkpt>
      <trkpt lat="43.72149" lon="4.80512">
        <ele>88.203</ele>
        <time>2019-04-29T11:10:09Z</time>
      </trkpt>
      <trkpt lat="43.72146" lon="4.80526">
        <ele>87.586</ele>
        <time>2019-04-29T11:10:20Z</time>
      </trkpt>
      <trkpt lat="43.72149" lon="4.80575">
        <ele>87.468</ele>
        <time>2019-04-29T11:10:31Z</time>
      </trkpt>
      <trkpt lat="43.72128" lon="4.80591">
        <ele>87.651</ele>
        <time>2019-04-29T11:10:41Z</time>
      </trkpt>
      <trkpt lat="43.72108" lon="4.80581">
        <ele>87.294</ele>
        <time>2019-04-29T11:10:52Z</time>
      </trkpt>
      <trkpt lat="43.72107" lon="4.80558">
        <ele>87.02</ele>
        <time>2019-04-29T11:11:02Z</time>
      </trkpt>
      <trkpt lat="43.72108" lon="4.80565">
        <ele>87.25</ele>
        <time>2019-04-29T11:11:13Z</time>
      </trkpt>
      <trkpt lat="43.72105" lon="4.80585">
        <ele>88.067</ele>
        <time>2019-04-29T11:11:23Z</time>
      </trkpt>
      <trkpt lat="43.72124" lon="4.80589">
        <ele>89.306</ele>
        <time>2019-04-29T11:11:34Z</time>
      </trkpt>
      <trkpt lat="43.72129" lon="4.80613">
        <ele>93.113</ele>
        <time>2019-04-29T11:11:44Z</time>
      </trkpt>
      <trkpt lat="43.72127" lon="4.80652">
        <ele>93.141</ele>
        <time>2019-04-29T11:11:55Z</time>
      </trkpt>
      <trkpt lat="43.72126" lon="4.80682">
        <ele>91.135</ele>
        <time>2019-04-29T11:12:05Z</time>
      </trkpt>
      <trkpt lat="43.7213" lon="4.80706">
        <ele>91.757</ele>
        <time>2019-04-29T11:12:16Z</time>
      </trkpt>
      <trkpt lat="43.72107" lon="4.80722">
        <ele>92.364</ele>
        <time>2019-04-29T11:12:27Z</time>
      </trkpt>
      <trkpt lat="43.72084" lon="4.80727">
        <ele>92.424</ele>
        <time>2019-04-29T11:12:37Z</time>
      </trkpt>
      <trkpt lat="43.72057" lon="4.80745">
        <ele>91.989</ele>
        <time>2019-04-29T11:12:47Z</time>
      </trkpt>
      <trkpt lat="43.72041" lon="4.80755">
        <ele>91.813</ele>
        <time>2019-04-29T11:12:58Z</time>
      </trkpt>
      <trkpt lat="43.7204" lon="4.80759">
        <ele>92.467</ele>
        <time>2019-04-29T11:13:09Z</time>
      </trkpt>
      <trkpt lat="43.72041" lon="4.80757">
        <ele>93.257</ele>
        <time>2019-04-29T11:13:20Z</time>
      </trkpt>
      <trkpt lat="43.72045" lon="4.80757">
        <ele>93.564</ele>
        <time>2019-04-29T11:13:30Z</time>
      </trkpt>
      <trkpt lat="43.72045" lon="4.80757">
        <ele>93.466</ele>
        <time>2019-04-29T11:13:41Z</time>
      </trkpt>
      <trkpt lat="43.72046" lon="4.80757">
        <ele>93.347</ele>
        <time>2019-04-29T11:13:51Z</time>
      </trkpt>
      <trkpt lat="43.72047" lon="4.80759">
        <ele>92.791</ele>
        <time>2019-04-29T11:14:02Z</time>
      </trkpt>
      <trkpt lat="43.72048" lon="4.80759">
        <ele>92.613</ele>
        <time>2019-04-29T11:14:12Z</time>
      </trkpt>
      <trkpt lat="43.72048" lon="4.80759">
        <ele>92.451</ele>
        <time>2019-04-29T11:14:23Z</time>
      </trkpt>
      <trkpt lat="43.72048" lon="4.80759">
        <ele>92.337</ele>
        <time>2019-04-29T11:14:34Z</time>
      </trkpt>
      <trkpt lat="43.72048" lon="4.80759">
        <ele>92.234</ele>
        <time>2019-04-29T11:14:45Z</time>
      </trkpt>
      <trkpt lat="43.72047" lon="4.80759">
        <ele>92.193</ele>
        <time>2019-04-29T11:14:55Z</time>
      </trkpt>
      <trkpt lat="43.72047" lon="4.80759">
        <ele>92.204</ele>
        <time>2019-04-29T11:15:05Z</time>
      </trkpt>
      <trkpt lat="43.72046" lon="4.80758">
        <ele>92.189</ele>
        <time>2019-04-29T11:15:16Z</time>
      </trkpt>
      <trkpt lat="43.72046" lon="4.80758">
        <ele>92.119</ele>
        <time>2019-04-29T11:15:27Z</time>
      </trkpt>
      <trkpt lat="43.72046" lon="4.80758">
        <ele>92.001</ele>
        <time>2019-04-29T11:15:38Z</time>
      </trkpt>
      <trkpt lat="43.72046" lon="4.80758">
        <ele>91.866</ele>
        <time>2019-04-29T11:15:48Z</time>
      </trkpt>
      <trkpt lat="43.72045" lon="4.80758">
        <ele>91.733</ele>
        <time>2019-04-29T11:15:58Z</time>
      </trkpt>
      <trkpt lat="43.72045" lon="4.80757">
        <ele>91.645</ele>
        <time>2019-04-29T11:16:09Z</time>
      </trkpt>
      <trkpt lat="43.72045" lon="4.80757">
        <ele>91.582</ele>
        <time>2019-04-29T11:16:20Z</time>
      </trkpt>
      <trkpt lat="43.72044" lon="4.80757">
        <ele>91.563</ele>
        <time>2019-04-29T11:16:30Z</time>
      </trkpt>
      <trkpt lat="43.72044" lon="4.80756">
        <ele>91.624</ele>
        <time>2019-04-29T11:16:40Z</time>
      </trkpt>
      <trkpt lat="43.72043" lon="4.80756">
        <ele>91.7</ele>
        <time>2019-04-29T11:16:51Z</time>
      </trkpt>
      <trkpt lat="43.72043" lon="4.80756">
        <ele>91.713</ele>
        <time>2019-04-29T11:17:02Z</time>
      </trkpt>
      <trkpt lat="43.72043" lon="4.80756">
        <ele>91.685</ele>
        <time>2019-04-29T11:17:13Z</time>
      </trkpt>
      <trkpt lat="43.72043" lon="4.80755">
        <ele>91.637</ele>
        <time>2019-04-29T11:17:23Z</time>
      </trkpt>
      <trkpt lat="43.72042" lon="4.80755">
        <ele>91.573</ele>
        <time>2019-04-29T11:17:33Z</time>
      </trkpt>
      <trkpt lat="43.72042" lon="4.80755">
        <ele>91.485</ele>
        <time>2019-04-29T11:17:43Z</time>
      </trkpt>
      <trkpt lat="43.72042" lon="4.80755">
        <ele>91.389</ele>
        <time>2019-04-29T11:17:53Z</time>
      </trkpt>
      <trkpt lat="43.72042" lon="4.80755">
        <ele>91.305</ele>
        <time>2019-04-29T11:18:04Z</time>
      </trkpt>
      <trkpt lat="43.72042" lon="4.80755">
        <ele>91.235</ele>
        <time>2019-04-29T11:18:14Z</time>
      </trkpt>
      <trkpt lat="43.72042" lon="4.80755">
        <ele>91.158</ele>
        <time>2019-04-29T11:18:24Z</time>
      </trkpt>
      <trkpt lat="43.72042" lon="4.80755">
        <ele>91.105</ele>
        <time>2019-04-29T11:18:35Z</time>
      </trkpt>
      <trkpt lat="43.72041" lon="4.80755">
        <ele>91.07</ele>
        <time>2019-04-29T11:18:46Z</time>
      </trkpt>
      <trkpt lat="43.72041" lon="4.80755">
        <ele>91.013</ele>
        <time>2019-04-29T11:18:56Z</time>
      </trkpt>
      <trkpt lat="43.72041" lon="4.80754">
        <ele>90.925</ele>
        <time>2019-04-29T11:19:07Z</time>
      </trkpt>
      <trkpt lat="43.72041" lon="4.80755">
        <ele>90.827</ele>
        <time>2019-04-29T11:19:17Z</time>
      </trkpt>
      <trkpt lat="43.72044" lon="4.80758">
        <ele>89.891</ele>
        <time>2019-04-29T11:19:28Z</time>
      </trkpt>
      <trkpt lat="43.72042" lon="4.80752">
        <ele>89.113</ele>
        <time>2019-04-29T11:19:38Z</time>
      </trkpt>
      <trkpt lat="43.72041" lon="4.80756">
        <ele>86.271</ele>
        <time>2019-04-29T11:19:49Z</time>
      </trkpt>
      <trkpt lat="43.72041" lon="4.80757">
        <ele>85.727</ele>
        <time>2019-04-29T11:20:00Z</time>
      </trkpt>
      <trkpt lat="43.72044" lon="4.80756">
        <ele>84.614</ele>
        <time>2019-04-29T11:20:10Z</time>
      </trkpt>
      <trkpt lat="43.72044" lon="4.80757">
        <ele>82.746</ele>
        <time>2019-04-29T11:20:21Z</time>
      </trkpt>
      <trkpt lat="43.72044" lon="4.80758">
        <ele>81.318</ele>
        <time>2019-04-29T11:20:31Z</time>
      </trkpt>
      <trkpt lat="43.72044" lon="4.80758">
        <ele>81.329</ele>
        <time>2019-04-29T11:20:41Z</time>
      </trkpt>
      <trkpt lat="43.72043" lon="4.80758">
        <ele>81.334</ele>
        <time>2019-04-29T11:20:51Z</time>
      </trkpt>
      <trkpt lat="43.72043" lon="4.80758">
        <ele>81.349</ele>
        <time>2019-04-29T11:21:01Z</time>
      </trkpt>
      <trkpt lat="43.72042" lon="4.80758">
        <ele>81.428</ele>
        <time>2019-04-29T11:21:12Z</time>
      </trkpt>
      <trkpt lat="43.72042" lon="4.80757">
        <ele>81.553</ele>
        <time>2019-04-29T11:21:23Z</time>
      </trkpt>
      <trkpt lat="43.72041" lon="4.80756">
        <ele>82.066</ele>
        <time>2019-04-29T11:21:33Z</time>
      </trkpt>
      <trkpt lat="43.72042" lon="4.80757">
        <ele>83.021</ele>
        <time>2019-04-29T11:21:43Z</time>
      </trkpt>
      <trkpt lat="43.72042" lon="4.80757">
        <ele>83.617</ele>
        <time>2019-04-29T11:21:54Z</time>
      </trkpt>
      <trkpt lat="43.72044" lon="4.8076">
        <ele>83.932</ele>
        <time>2019-04-29T11:22:04Z</time>
      </trkpt>
      <trkpt lat="43.72045" lon="4.8076">
        <ele>84.022</ele>
        <time>2019-04-29T11:22:15Z</time>
      </trkpt>
      <trkpt lat="43.72045" lon="4.80757">
        <ele>83.706</ele>
        <time>2019-04-29T11:22:26Z</time>
      </trkpt>
      <trkpt lat="43.72044" lon="4.80757">
        <ele>83.563</ele>
        <time>2019-04-29T11:22:37Z</time>
      </trkpt>
      <trkpt lat="43.72042" lon="4.80755">
        <ele>83.716</ele>
        <time>2019-04-29T11:22:47Z</time>
      </trkpt>
      <trkpt lat="43.72041" lon="4.80755">
        <ele>83.915</ele>
        <time>2019-04-29T11:22:57Z</time>
      </trkpt>
      <trkpt lat="43.72043" lon="4.80755">
        <ele>84.138</ele>
        <time>2019-04-29T11:23:08Z</time>
      </trkpt>
      <trkpt lat="43.72048" lon="4.80752">
        <ele>83.493</ele>
        <time>2019-04-29T11:23:18Z</time>
      </trkpt>
      <trkpt lat="43.72048" lon="4.80754">
        <ele>82.72</ele>
        <time>2019-04-29T11:23:29Z</time>
      </trkpt>
      <trkpt lat="43.72046" lon="4.80756">
        <ele>82.848</ele>
        <time>2019-04-29T11:23:40Z</time>
      </trkpt>
      <trkpt lat="43.72048" lon="4.80761">
        <ele>83.38</ele>
        <time>2019-04-29T11:23:50Z</time>
      </trkpt>
      <trkpt lat="43.72048" lon="4.80757">
        <ele>82.888</ele>
        <time>2019-04-29T11:24:01Z</time>
      </trkpt>
      <trkpt lat="43.72047" lon="4.80758">
        <ele>82.041</ele>
        <time>2019-04-29T11:24:12Z</time>
      </trkpt>
      <trkpt lat="43.72047" lon="4.80758">
        <ele>82.13</ele>
        <time>2019-04-29T11:24:23Z</time>
      </trkpt>
      <trkpt lat="43.72051" lon="4.80761">
        <ele>82.167</ele>
        <time>2019-04-29T11:24:33Z</time>
      </trkpt>
      <trkpt lat="43.72051" lon="4.80762">
        <ele>81.954</ele>
        <time>2019-04-29T11:24:44Z</time>
      </trkpt>
      <trkpt lat="43.7205" lon="4.80761">
        <ele>81.781</ele>
        <time>2019-04-29T11:24:54Z</time>
      </trkpt>
      <trkpt lat="43.7205" lon="4.8076">
        <ele>81.151</ele>
        <time>2019-04-29T11:25:05Z</time>
      </trkpt>
      <trkpt lat="43.7205" lon="4.80759">
        <ele>81.21</ele>
        <time>2019-04-29T11:25:15Z</time>
      </trkpt>
      <trkpt lat="43.72049" lon="4.80757">
        <ele>81.987</ele>
        <time>2019-04-29T11:25:26Z</time>
      </trkpt>
      <trkpt lat="43.72049" lon="4.80758">
        <ele>82.058</ele>
        <time>2019-04-29T11:25:37Z</time>
      </trkpt>
      <trkpt lat="43.7205" lon="4.80759">
        <ele>83.151</ele>
        <time>2019-04-29T11:25:48Z</time>
      </trkpt>
      <trkpt lat="43.72048" lon="4.80758">
        <ele>83.121</ele>
        <time>2019-04-29T11:25:59Z</time>
      </trkpt>
      <trkpt lat="43.72046" lon="4.80756">
        <ele>83.2</ele>
        <time>2019-04-29T11:26:10Z</time>
      </trkpt>
      <trkpt lat="43.72046" lon="4.80755">
        <ele>83.433</ele>
        <time>2019-04-29T11:26:20Z</time>
      </trkpt>
      <trkpt lat="43.72048" lon="4.80756">
        <ele>82.861</ele>
        <time>2019-04-29T11:26:31Z</time>
      </trkpt>
      <trkpt lat="43.72048" lon="4.80756">
        <ele>82.71</ele>
        <time>2019-04-29T11:26:41Z</time>
      </trkpt>
      <trkpt lat="43.7205" lon="4.80756">
        <ele>81.747</ele>
        <time>2019-04-29T11:26:52Z</time>
      </trkpt>
      <trkpt lat="43.72049" lon="4.80757">
        <ele>81.778</ele>
        <time>2019-04-29T11:27:02Z</time>
      </trkpt>
      <trkpt lat="43.72048" lon="4.80757">
        <ele>81.895</ele>
        <time>2019-04-29T11:27:13Z</time>
      </trkpt>
      <trkpt lat="43.72045" lon="4.80757">
        <ele>81.898</ele>
        <time>2019-04-29T11:27:23Z</time>
      </trkpt>
      <trkpt lat="43.72045" lon="4.80757">
        <ele>82.133</ele>
        <time>2019-04-29T11:27:34Z</time>
      </trkpt>
      <trkpt lat="43.72045" lon="4.80755">
        <ele>83.032</ele>
        <time>2019-04-29T11:27:44Z</time>
      </trkpt>
      <trkpt lat="43.72044" lon="4.80754">
        <ele>83.283</ele>
        <time>2019-04-29T11:27:54Z</time>
      </trkpt>
      <trkpt lat="43.72045" lon="4.80754">
        <ele>83.255</ele>
        <time>2019-04-29T11:28:04Z</time>
      </trkpt>
      <trkpt lat="43.72045" lon="4.80755">
        <ele>82.513</ele>
        <time>2019-04-29T11:28:15Z</time>
      </trkpt>
      <trkpt lat="43.72046" lon="4.80756">
        <ele>82.149</ele>
        <time>2019-04-29T11:28:25Z</time>
      </trkpt>
      <trkpt lat="43.72046" lon="4.80756">
        <ele>82.374</ele>
        <time>2019-04-29T11:28:36Z</time>
      </trkpt>
      <trkpt lat="43.72049" lon="4.8076">
        <ele>83.203</ele>
        <time>2019-04-29T11:28:47Z</time>
      </trkpt>
      <trkpt lat="43.72049" lon="4.8076">
        <ele>83.412</ele>
        <time>2019-04-29T11:28:57Z</time>
      </trkpt>
      <trkpt lat="43.7205" lon="4.80757">
        <ele>84.237</ele>
        <time>2019-04-29T11:29:08Z</time>
      </trkpt>
      <trkpt lat="43.72049" lon="4.80753">
        <ele>86.591</ele>
        <time>2019-04-29T11:29:18Z</time>
      </trkpt>
      <trkpt lat="43.72048" lon="4.80755">
        <ele>86.65</ele>
        <time>2019-04-29T11:29:29Z</time>
      </trkpt>
      <trkpt lat="43.72047" lon="4.80754">
        <ele>88.203</ele>
        <time>2019-04-29T11:29:39Z</time>
      </trkpt>
      <trkpt lat="43.72047" lon="4.80757">
        <ele>88.261</ele>
        <time>2019-04-29T11:29:50Z</time>
      </trkpt>
      <trkpt lat="43.72047" lon="4.80756">
        <ele>88.429</ele>
        <time>2019-04-29T11:30:00Z</time>
      </trkpt>
      <trkpt lat="43.72044" lon="4.80755">
        <ele>89.462</ele>
        <time>2019-04-29T11:30:11Z</time>
      </trkpt>
      <trkpt lat="43.72044" lon="4.80755">
        <ele>89.5</ele>
        <time>2019-04-29T11:30:21Z</time>
      </trkpt>
      <trkpt lat="43.72043" lon="4.80754">
        <ele>89.426</ele>
        <time>2019-04-29T11:30:32Z</time>
      </trkpt>
      <trkpt lat="43.72043" lon="4.80754">
        <ele>89.897</ele>
        <time>2019-04-29T11:30:43Z</time>
      </trkpt>
      <trkpt lat="43.72043" lon="4.80754">
        <ele>90.127</ele>
        <time>2019-04-29T11:30:53Z</time>
      </trkpt>
      <trkpt lat="43.72043" lon="4.80756">
        <ele>90.569</ele>
        <time>2019-04-29T11:31:04Z</time>
      </trkpt>
      <trkpt lat="43.72044" lon="4.80755">
        <ele>90.535</ele>
        <time>2019-04-29T11:31:14Z</time>
      </trkpt>
      <trkpt lat="43.72044" lon="4.80755">
        <ele>90.548</ele>
        <time>2019-04-29T11:31:24Z</time>
      </trkpt>
      <trkpt lat="43.72041" lon="4.80751">
        <ele>90.186</ele>
        <time>2019-04-29T11:31:34Z</time>
      </trkpt>
      <trkpt lat="43.72044" lon="4.80755">
        <ele>89.941</ele>
        <time>2019-04-29T11:31:45Z</time>
      </trkpt>
      <trkpt lat="43.72044" lon="4.80758">
        <ele>89.615</ele>
        <time>2019-04-29T11:31:55Z</time>
      </trkpt>
      <trkpt lat="43.72046" lon="4.80757">
        <ele>88.101</ele>
        <time>2019-04-29T11:32:05Z</time>
      </trkpt>
      <trkpt lat="43.72046" lon="4.80756">
        <ele>87.952</ele>
        <time>2019-04-29T11:32:16Z</time>
      </trkpt>
      <trkpt lat="43.72044" lon="4.80756">
        <ele>87.172</ele>
        <time>2019-04-29T11:32:27Z</time>
      </trkpt>
      <trkpt lat="43.72043" lon="4.80757">
        <ele>87.406</ele>
        <time>2019-04-29T11:32:37Z</time>
      </trkpt>
      <trkpt lat="43.72043" lon="4.80757">
        <ele>87.606</ele>
        <time>2019-04-29T11:32:48Z</time>
      </trkpt>
      <trkpt lat="43.72041" lon="4.80757">
        <ele>88.602</ele>
        <time>2019-04-29T11:32:59Z</time>
      </trkpt>
      <trkpt lat="43.7204" lon="4.80756">
        <ele>88.923</ele>
        <time>2019-04-29T11:33:09Z</time>
      </trkpt>
      <trkpt lat="43.7204" lon="4.80756">
        <ele>89.84</ele>
        <time>2019-04-29T11:33:20Z</time>
      </trkpt>
      <trkpt lat="43.72041" lon="4.80758">
        <ele>91.406</ele>
        <time>2019-04-29T11:33:31Z</time>
      </trkpt>
      <trkpt lat="43.72041" lon="4.80758">
        <ele>91.627</ele>
        <time>2019-04-29T11:33:42Z</time>
      </trkpt>
      <trkpt lat="43.72042" lon="4.80757">
        <ele>92.429</ele>
        <time>2019-04-29T11:33:52Z</time>
      </trkpt>
      <trkpt lat="43.72045" lon="4.80754">
        <ele>92.744</ele>
        <time>2019-04-29T11:34:03Z</time>
      </trkpt>
      <trkpt lat="43.72046" lon="4.80754">
        <ele>92.741</ele>
        <time>2019-04-29T11:34:13Z</time>
      </trkpt>
      <trkpt lat="43.72045" lon="4.80756">
        <ele>92.712</ele>
        <time>2019-04-29T11:34:24Z</time>
      </trkpt>
      <trkpt lat="43.72045" lon="4.80757">
        <ele>93.043</ele>
        <time>2019-04-29T11:34:34Z</time>
      </trkpt>
      <trkpt lat="43.72044" lon="4.80755">
        <ele>94.125</ele>
        <time>2019-04-29T11:34:45Z</time>
      </trkpt>
      <trkpt lat="43.72042" lon="4.80755">
        <ele>95.258</ele>
        <time>2019-04-29T11:34:55Z</time>
      </trkpt>
      <trkpt lat="43.72042" lon="4.80755">
        <ele>95.573</ele>
        <time>2019-04-29T11:35:06Z</time>
      </trkpt>
      <trkpt lat="43.72041" lon="4.80755">
        <ele>97.42</ele>
        <time>2019-04-29T11:35:17Z</time>
      </trkpt>
      <trkpt lat="43.72044" lon="4.80754">
        <ele>97.806</ele>
        <time>2019-04-29T11:35:28Z</time>
      </trkpt>
      <trkpt lat="43.72045" lon="4.80754">
        <ele>97.761</ele>
        <time>2019-04-29T11:35:38Z</time>
      </trkpt>
      <trkpt lat="43.72045" lon="4.80757">
        <ele>97.651</ele>
        <time>2019-04-29T11:35:48Z</time>
      </trkpt>
      <trkpt lat="43.72044" lon="4.80757">
        <ele>97.491</ele>
        <time>2019-04-29T11:35:58Z</time>
      </trkpt>
      <trkpt lat="43.72045" lon="4.80757">
        <ele>97.04</ele>
        <time>2019-04-29T11:36:08Z</time>
      </trkpt>
      <trkpt lat="43.72046" lon="4.80758">
        <ele>96.015</ele>
        <time>2019-04-29T11:36:19Z</time>
      </trkpt>
      <trkpt lat="43.72046" lon="4.80758">
        <ele>95.793</ele>
        <time>2019-04-29T11:36:29Z</time>
      </trkpt>
      <trkpt lat="43.72045" lon="4.80756">
        <ele>95.248</ele>
        <time>2019-04-29T11:36:40Z</time>
      </trkpt>
      <trkpt lat="43.72044" lon="4.80753">
        <ele>94.912</ele>
        <time>2019-04-29T11:36:51Z</time>
      </trkpt>
      <trkpt lat="43.72044" lon="4.80753">
        <ele>94.688</ele>
        <time>2019-04-29T11:37:02Z</time>
      </trkpt>
      <trkpt lat="43.72048" lon="4.80755">
        <ele>93.754</ele>
        <time>2019-04-29T11:37:13Z</time>
      </trkpt>
      <trkpt lat="43.72049" lon="4.80755">
        <ele>93.556</ele>
        <time>2019-04-29T11:37:24Z</time>
      </trkpt>
      <trkpt lat="43.72047" lon="4.80753">
        <ele>90.568</ele>
        <time>2019-04-29T11:37:35Z</time>
      </trkpt>
      <trkpt lat="43.72048" lon="4.80752">
        <ele>88.363</ele>
        <time>2019-04-29T11:37:46Z</time>
      </trkpt>
      <trkpt lat="43.72048" lon="4.80753">
        <ele>88.322</ele>
        <time>2019-04-29T11:37:56Z</time>
      </trkpt>
      <trkpt lat="43.72047" lon="4.80757">
        <ele>87.374</ele>
        <time>2019-04-29T11:38:06Z</time>
      </trkpt>
      <trkpt lat="43.72049" lon="4.80758">
        <ele>87.7</ele>
        <time>2019-04-29T11:38:17Z</time>
      </trkpt>
      <trkpt lat="43.72047" lon="4.80759">
        <ele>87.878</ele>
        <time>2019-04-29T11:38:27Z</time>
      </trkpt>
      <trkpt lat="43.72044" lon="4.80758">
        <ele>87.83</ele>
        <time>2019-04-29T11:38:37Z</time>
      </trkpt>
      <trkpt lat="43.72044" lon="4.80757">
        <ele>87.689</ele>
        <time>2019-04-29T11:38:48Z</time>
      </trkpt>
      <trkpt lat="43.7205" lon="4.80754">
        <ele>86.594</ele>
        <time>2019-04-29T11:38:58Z</time>
      </trkpt>
      <trkpt lat="43.72047" lon="4.80758">
        <ele>82.656</ele>
        <time>2019-04-29T11:39:09Z</time>
      </trkpt>
      <trkpt lat="43.72047" lon="4.80757">
        <ele>81.753</ele>
        <time>2019-04-29T11:39:19Z</time>
      </trkpt>
      <trkpt lat="43.72044" lon="4.80753">
        <ele>81.462</ele>
        <time>2019-04-29T11:39:29Z</time>
      </trkpt>
      <trkpt lat="43.72045" lon="4.80754">
        <ele>81.91</ele>
        <time>2019-04-29T11:39:40Z</time>
      </trkpt>
      <trkpt lat="43.72044" lon="4.80755">
        <ele>82.156</ele>
        <time>2019-04-29T11:39:50Z</time>
      </trkpt>
      <trkpt lat="43.72044" lon="4.80755">
        <ele>82.311</ele>
        <time>2019-04-29T11:40:01Z</time>
      </trkpt>
      <trkpt lat="43.72043" lon="4.80755">
        <ele>82.524</ele>
        <time>2019-04-29T11:40:11Z</time>
      </trkpt>
      <trkpt lat="43.72042" lon="4.80755">
        <ele>82.664</ele>
        <time>2019-04-29T11:40:23Z</time>
      </trkpt>
      <trkpt lat="43.72045" lon="4.80755">
        <ele>83.265</ele>
        <time>2019-04-29T11:40:33Z</time>
      </trkpt>
      <trkpt lat="43.72042" lon="4.80754">
        <ele>83.163</ele>
        <time>2019-04-29T11:40:45Z</time>
      </trkpt>
      <trkpt lat="43.72046" lon="4.80761">
        <ele>83.442</ele>
        <time>2019-04-29T11:40:56Z</time>
      </trkpt>
      <trkpt lat="43.72046" lon="4.80757">
        <ele>83.592</ele>
        <time>2019-04-29T11:41:06Z</time>
      </trkpt>
      <trkpt lat="43.72043" lon="4.80754">
        <ele>83.102</ele>
        <time>2019-04-29T11:41:17Z</time>
      </trkpt>
      <trkpt lat="43.72044" lon="4.80755">
        <ele>82.325</ele>
        <time>2019-04-29T11:41:28Z</time>
      </trkpt>
      <trkpt lat="43.72047" lon="4.80759">
        <ele>80.106</ele>
        <time>2019-04-29T11:41:38Z</time>
      </trkpt>
      <trkpt lat="43.72047" lon="4.80758">
        <ele>79.263</ele>
        <time>2019-04-29T11:41:49Z</time>
      </trkpt>
      <trkpt lat="43.72048" lon="4.80755">
        <ele>77.063</ele>
        <time>2019-04-29T11:42:00Z</time>
      </trkpt>
      <trkpt lat="43.72052" lon="4.80763">
        <ele>76.605</ele>
        <time>2019-04-29T11:42:10Z</time>
      </trkpt>
      <trkpt lat="43.72052" lon="4.80763">
        <ele>76.481</ele>
        <time>2019-04-29T11:42:21Z</time>
      </trkpt>
      <trkpt lat="43.72051" lon="4.80762">
        <ele>76.044</ele>
        <time>2019-04-29T11:42:32Z</time>
      </trkpt>
      <trkpt lat="43.72051" lon="4.80761">
        <ele>75.89</ele>
        <time>2019-04-29T11:42:43Z</time>
      </trkpt>
      <trkpt lat="43.7205" lon="4.8076">
        <ele>75.812</ele>
        <time>2019-04-29T11:42:54Z</time>
      </trkpt>
      <trkpt lat="43.7205" lon="4.8076">
        <ele>75.775</ele>
        <time>2019-04-29T11:43:05Z</time>
      </trkpt>
      <trkpt lat="43.7205" lon="4.8076">
        <ele>75.787</ele>
        <time>2019-04-29T11:43:16Z</time>
      </trkpt>
      <trkpt lat="43.72049" lon="4.8076">
        <ele>75.846</ele>
        <time>2019-04-29T11:43:26Z</time>
      </trkpt>
      <trkpt lat="43.72049" lon="4.8076">
        <ele>75.918</ele>
        <time>2019-04-29T11:43:38Z</time>
      </trkpt>
      <trkpt lat="43.72049" lon="4.8076">
        <ele>76.004</ele>
        <time>2019-04-29T11:43:49Z</time>
      </trkpt>
      <trkpt lat="43.72048" lon="4.8076">
        <ele>76.115</ele>
        <time>2019-04-29T11:44:00Z</time>
      </trkpt>
      <trkpt lat="43.72048" lon="4.80759">
        <ele>76.243</ele>
        <time>2019-04-29T11:44:10Z</time>
      </trkpt>
      <trkpt lat="43.72048" lon="4.80759">
        <ele>76.376</ele>
        <time>2019-04-29T11:44:21Z</time>
      </trkpt>
      <trkpt lat="43.72048" lon="4.80759">
        <ele>76.533</ele>
        <time>2019-04-29T11:44:32Z</time>
      </trkpt>
      <trkpt lat="43.7205" lon="4.80759">
        <ele>77.294</ele>
        <time>2019-04-29T11:44:42Z</time>
      </trkpt>
      <trkpt lat="43.72049" lon="4.80758">
        <ele>77.372</ele>
        <time>2019-04-29T11:44:52Z</time>
      </trkpt>
      <trkpt lat="43.72046" lon="4.80757">
        <ele>77.744</ele>
        <time>2019-04-29T11:45:04Z</time>
      </trkpt>
      <trkpt lat="43.72046" lon="4.80756">
        <ele>77.836</ele>
        <time>2019-04-29T11:45:14Z</time>
      </trkpt>
      <trkpt lat="43.72049" lon="4.80753">
        <ele>77.903</ele>
        <time>2019-04-29T11:45:25Z</time>
      </trkpt>
      <trkpt lat="43.72051" lon="4.80753">
        <ele>77.911</ele>
        <time>2019-04-29T11:45:36Z</time>
      </trkpt>
      <trkpt lat="43.72051" lon="4.80753">
        <ele>77.929</ele>
        <time>2019-04-29T11:45:46Z</time>
      </trkpt>
      <trkpt lat="43.7205" lon="4.80758">
        <ele>78.168</ele>
        <time>2019-04-29T11:45:57Z</time>
      </trkpt>
      <trkpt lat="43.72051" lon="4.80757">
        <ele>78.475</ele>
        <time>2019-04-29T11:46:07Z</time>
      </trkpt>
      <trkpt lat="43.72048" lon="4.80757">
        <ele>78.802</ele>
        <time>2019-04-29T11:46:18Z</time>
      </trkpt>
      <trkpt lat="43.72045" lon="4.80757">
        <ele>79.499</ele>
        <time>2019-04-29T11:46:29Z</time>
      </trkpt>
      <trkpt lat="43.72044" lon="4.80761">
        <ele>79.933</ele>
        <time>2019-04-29T11:46:39Z</time>
      </trkpt>
      <trkpt lat="43.72044" lon="4.80762">
        <ele>80.064</ele>
        <time>2019-04-29T11:46:49Z</time>
      </trkpt>
      <trkpt lat="43.72044" lon="4.80761">
        <ele>80.228</ele>
        <time>2019-04-29T11:47:01Z</time>
      </trkpt>
      <trkpt lat="43.72044" lon="4.80761">
        <ele>80.455</ele>
        <time>2019-04-29T11:47:11Z</time>
      </trkpt>
      <trkpt lat="43.72044" lon="4.80761">
        <ele>80.631</ele>
        <time>2019-04-29T11:47:22Z</time>
      </trkpt>
      <trkpt lat="43.72044" lon="4.8076">
        <ele>80.842</ele>
        <time>2019-04-29T11:47:33Z</time>
      </trkpt>
      <trkpt lat="43.72044" lon="4.8076">
        <ele>81.085</ele>
        <time>2019-04-29T11:47:44Z</time>
      </trkpt>
      <trkpt lat="43.72044" lon="4.8076">
        <ele>81.324</ele>
        <time>2019-04-29T11:47:55Z</time>
      </trkpt>
      <trkpt lat="43.72044" lon="4.80759">
        <ele>81.538</ele>
        <time>2019-04-29T11:48:06Z</time>
      </trkpt>
      <trkpt lat="43.72043" lon="4.80758">
        <ele>81.828</ele>
        <time>2019-04-29T11:48:17Z</time>
      </trkpt>
      <trkpt lat="43.72042" lon="4.80764">
        <ele>84.178</ele>
        <time>2019-04-29T11:48:27Z</time>
      </trkpt>
      <trkpt lat="43.72031" lon="4.80766">
        <ele>85.428</ele>
        <time>2019-04-29T11:48:37Z</time>
      </trkpt>
      <trkpt lat="43.72026" lon="4.80762">
        <ele>85.331</ele>
        <time>2019-04-29T11:48:48Z</time>
      </trkpt>
      <trkpt lat="43.72024" lon="4.80757">
        <ele>85.395</ele>
        <time>2019-04-29T11:48:58Z</time>
      </trkpt>
      <trkpt lat="43.72023" lon="4.80754">
        <ele>85.453</ele>
        <time>2019-04-29T11:49:09Z</time>
      </trkpt>
      <trkpt lat="43.72019" lon="4.8076">
        <ele>85.691</ele>
        <time>2019-04-29T11:49:20Z</time>
      </trkpt>
      <trkpt lat="43.71992" lon="4.80745">
        <ele>88.391</ele>
        <time>2019-04-29T11:49:30Z</time>
      </trkpt>
      <trkpt lat="43.71944" lon="4.80736">
        <ele>86.19</ele>
        <time>2019-04-29T11:49:40Z</time>
      </trkpt>
      <trkpt lat="43.71892" lon="4.80726">
        <ele>79.202</ele>
        <time>2019-04-29T11:49:50Z</time>
      </trkpt>
      <trkpt lat="43.71841" lon="4.8071">
        <ele>77.582</ele>
        <time>2019-04-29T11:50:01Z</time>
      </trkpt>
      <trkpt lat="43.71777" lon="4.80695">
        <ele>72.947</ele>
        <time>2019-04-29T11:50:11Z</time>
      </trkpt>
      <trkpt lat="43.71727" lon="4.80668">
        <ele>71.267</ele>
        <time>2019-04-29T11:50:22Z</time>
      </trkpt>
      <trkpt lat="43.71667" lon="4.80638">
        <ele>71.427</ele>
        <time>2019-04-29T11:50:32Z</time>
      </trkpt>
      <trkpt lat="43.71648" lon="4.8063">
        <ele>70.884</ele>
        <time>2019-04-29T11:50:42Z</time>
      </trkpt>
      <trkpt lat="43.71627" lon="4.80615">
        <ele>71.218</ele>
        <time>2019-04-29T11:50:52Z</time>
      </trkpt>
      <trkpt lat="43.71621" lon="4.80609">
        <ele>71.549</ele>
        <time>2019-04-29T11:51:04Z</time>
      </trkpt>
      <trkpt lat="43.71614" lon="4.80607">
        <ele>72.148</ele>
        <time>2019-04-29T11:51:14Z</time>
      </trkpt>
      <trkpt lat="43.71594" lon="4.80583">
        <ele>72.605</ele>
        <time>2019-04-29T11:51:26Z</time>
      </trkpt>
      <trkpt lat="43.7156" lon="4.80554">
        <ele>71.528</ele>
        <time>2019-04-29T11:51:36Z</time>
      </trkpt>
      <trkpt lat="43.71548" lon="4.80547">
        <ele>70.52</ele>
        <time>2019-04-29T11:51:46Z</time>
      </trkpt>
      <trkpt lat="43.71517" lon="4.80528">
        <ele>69.554</ele>
        <time>2019-04-29T11:51:56Z</time>
      </trkpt>
      <trkpt lat="43.71484" lon="4.80502">
        <ele>69.169</ele>
        <time>2019-04-29T11:52:08Z</time>
      </trkpt>
      <trkpt lat="43.71441" lon="4.80461">
        <ele>68.494</ele>
        <time>2019-04-29T11:52:18Z</time>
      </trkpt>
      <trkpt lat="43.71407" lon="4.80429">
        <ele>67.124</ele>
        <time>2019-04-29T11:52:29Z</time>
      </trkpt>
      <trkpt lat="43.71363" lon="4.80399">
        <ele>64.999</ele>
        <time>2019-04-29T11:52:39Z</time>
      </trkpt>
      <trkpt lat="43.71322" lon="4.80359">
        <ele>65.014</ele>
        <time>2019-04-29T11:52:50Z</time>
      </trkpt>
      <trkpt lat="43.71293" lon="4.80341">
        <ele>66.538</ele>
        <time>2019-04-29T11:53:01Z</time>
      </trkpt>
      <trkpt lat="43.71313" lon="4.80346">
        <ele>65.236</ele>
        <time>2019-04-29T11:53:12Z</time>
      </trkpt>
      <trkpt lat="43.7132" lon="4.80296">
        <ele>63.67</ele>
        <time>2019-04-29T11:53:22Z</time>
      </trkpt>
      <trkpt lat="43.7134" lon="4.80242">
        <ele>57.495</ele>
        <time>2019-04-29T11:53:33Z</time>
      </trkpt>
      <trkpt lat="43.71358" lon="4.80188">
        <ele>58.67</ele>
        <time>2019-04-29T11:53:44Z</time>
      </trkpt>
      <trkpt lat="43.71377" lon="4.80132">
        <ele>58.302</ele>
        <time>2019-04-29T11:53:55Z</time>
      </trkpt>
      <trkpt lat="43.71403" lon="4.80081">
        <ele>60.013</ele>
        <time>2019-04-29T11:54:06Z</time>
      </trkpt>
      <trkpt lat="43.71425" lon="4.80045">
        <ele>59.141</ele>
        <time>2019-04-29T11:54:17Z</time>
      </trkpt>
      <trkpt lat="43.71442" lon="4.80001">
        <ele>60.191</ele>
        <time>2019-04-29T11:54:27Z</time>
      </trkpt>
      <trkpt lat="43.71458" lon="4.79944">
        <ele>64.889</ele>
        <time>2019-04-29T11:54:38Z</time>
      </trkpt>
      <trkpt lat="43.71476" lon="4.79885">
        <ele>64.896</ele>
        <time>2019-04-29T11:54:49Z</time>
      </trkpt>
      <trkpt lat="43.71499" lon="4.79829">
        <ele>63.184</ele>
        <time>2019-04-29T11:54:59Z</time>
      </trkpt>
      <trkpt lat="43.71517" lon="4.79798">
        <ele>62.059</ele>
        <time>2019-04-29T11:55:09Z</time>
      </trkpt>
      <trkpt lat="43.71537" lon="4.79746">
        <ele>61.069</ele>
        <time>2019-04-29T11:55:20Z</time>
      </trkpt>
      <trkpt lat="43.71558" lon="4.79701">
        <ele>57.236</ele>
        <time>2019-04-29T11:55:31Z</time>
      </trkpt>
      <trkpt lat="43.71594" lon="4.7964">
        <ele>53.913</ele>
        <time>2019-04-29T11:55:41Z</time>
      </trkpt>
      <trkpt lat="43.71615" lon="4.7957">
        <ele>51.567</ele>
        <time>2019-04-29T11:55:52Z</time>
      </trkpt>
      <trkpt lat="43.71626" lon="4.79502">
        <ele>55.576</ele>
        <time>2019-04-29T11:56:03Z</time>
      </trkpt>
      <trkpt lat="43.71612" lon="4.79427">
        <ele>61.04</ele>
        <time>2019-04-29T11:56:13Z</time>
      </trkpt>
      <trkpt lat="43.71622" lon="4.79373">
        <ele>59.534</ele>
        <time>2019-04-29T11:56:24Z</time>
      </trkpt>
      <trkpt lat="43.71636" lon="4.79319">
        <ele>56.75</ele>
        <time>2019-04-29T11:56:34Z</time>
      </trkpt>
      <trkpt lat="43.71652" lon="4.79261">
        <ele>55.138</ele>
        <time>2019-04-29T11:56:45Z</time>
      </trkpt>
      <trkpt lat="43.71669" lon="4.79194">
        <ele>53.555</ele>
        <time>2019-04-29T11:56:55Z</time>
      </trkpt>
      <trkpt lat="43.71686" lon="4.7913">
        <ele>56.118</ele>
        <time>2019-04-29T11:57:06Z</time>
      </trkpt>
      <trkpt lat="43.71702" lon="4.79073">
        <ele>57.775</ele>
        <time>2019-04-29T11:57:17Z</time>
      </trkpt>
      <trkpt lat="43.71714" lon="4.79034">
        <ele>58.215</ele>
        <time>2019-04-29T11:57:27Z</time>
      </trkpt>
      <trkpt lat="43.71725" lon="4.7899">
        <ele>58.515</ele>
        <time>2019-04-29T11:57:38Z</time>
      </trkpt>
      <trkpt lat="43.71739" lon="4.78951">
        <ele>58.51</ele>
        <time>2019-04-29T11:57:48Z</time>
      </trkpt>
      <trkpt lat="43.7175" lon="4.78913">
        <ele>58.391</ele>
        <time>2019-04-29T11:57:58Z</time>
      </trkpt>
      <trkpt lat="43.71763" lon="4.78871">
        <ele>57.864</ele>
        <time>2019-04-29T11:58:09Z</time>
      </trkpt>
      <trkpt lat="43.71775" lon="4.78823">
        <ele>57.853</ele>
        <time>2019-04-29T11:58:20Z</time>
      </trkpt>
      <trkpt lat="43.71786" lon="4.78771">
        <ele>57.939</ele>
        <time>2019-04-29T11:58:31Z</time>
      </trkpt>
      <trkpt lat="43.71788" lon="4.78719">
        <ele>58.886</ele>
        <time>2019-04-29T11:58:42Z</time>
      </trkpt>
      <trkpt lat="43.71787" lon="4.78673">
        <ele>58.792</ele>
        <time>2019-04-29T11:58:52Z</time>
      </trkpt>
      <trkpt lat="43.71782" lon="4.78605">
        <ele>63.96</ele>
        <time>2019-04-29T11:59:03Z</time>
      </trkpt>
      <trkpt lat="43.71783" lon="4.78548">
        <ele>65.276</ele>
        <time>2019-04-29T11:59:14Z</time>
      </trkpt>
      <trkpt lat="43.71786" lon="4.78491">
        <ele>64.109</ele>
        <time>2019-04-29T11:59:24Z</time>
      </trkpt>
      <trkpt lat="43.71787" lon="4.78449">
        <ele>63.387</ele>
        <time>2019-04-29T11:59:35Z</time>
      </trkpt>
      <trkpt lat="43.71798" lon="4.78415">
        <ele>62.929</ele>
        <time>2019-04-29T11:59:45Z</time>
      </trkpt>
      <trkpt lat="43.71776" lon="4.78387">
        <ele>62.677</ele>
        <time>2019-04-29T11:59:56Z</time>
      </trkpt>
      <trkpt lat="43.71735" lon="4.7836">
        <ele>63.413</ele>
        <time>2019-04-29T12:00:06Z</time>
      </trkpt>
      <trkpt lat="43.71694" lon="4.78332">
        <ele>66.47</ele>
        <time>2019-04-29T12:00:16Z</time>
      </trkpt>
      <trkpt lat="43.71637" lon="4.78305">
        <ele>67.321</ele>
        <time>2019-04-29T12:00:27Z</time>
      </trkpt>
      <trkpt lat="43.71573" lon="4.78274">
        <ele>63.408</ele>
        <time>2019-04-29T12:00:38Z</time>
      </trkpt>
      <trkpt lat="43.71514" lon="4.78234">
        <ele>63.168</ele>
        <time>2019-04-29T12:00:48Z</time>
      </trkpt>
      <trkpt lat="43.7147" lon="4.78157">
        <ele>55.761</ele>
        <time>2019-04-29T12:00:59Z</time>
      </trkpt>
      <trkpt lat="43.71434" lon="4.78074">
        <ele>58.975</ele>
        <time>2019-04-29T12:01:10Z</time>
      </trkpt>
      <trkpt lat="43.71411" lon="4.77987">
        <ele>51.357</ele>
        <time>2019-04-29T12:01:20Z</time>
      </trkpt>
      <trkpt lat="43.71386" lon="4.77904">
        <ele>51.213</ele>
        <time>2019-04-29T12:01:31Z</time>
      </trkpt>
      <trkpt lat="43.71354" lon="4.77841">
        <ele>51.859</ele>
        <time>2019-04-29T12:01:42Z</time>
      </trkpt>
      <trkpt lat="43.71319" lon="4.77779">
        <ele>56.348</ele>
        <time>2019-04-29T12:01:52Z</time>
      </trkpt>
      <trkpt lat="43.7127" lon="4.77724">
        <ele>57.042</ele>
        <time>2019-04-29T12:02:03Z</time>
      </trkpt>
      <trkpt lat="43.71229" lon="4.77674">
        <ele>56.694</ele>
        <time>2019-04-29T12:02:14Z</time>
      </trkpt>
      <trkpt lat="43.71189" lon="4.77619">
        <ele>57.592</ele>
        <time>2019-04-29T12:02:25Z</time>
      </trkpt>
      <trkpt lat="43.71142" lon="4.77572">
        <ele>57.561</ele>
        <time>2019-04-29T12:02:36Z</time>
      </trkpt>
      <trkpt lat="43.71105" lon="4.77517">
        <ele>54.829</ele>
        <time>2019-04-29T12:02:47Z</time>
      </trkpt>
      <trkpt lat="43.71075" lon="4.7745">
        <ele>53.822</ele>
        <time>2019-04-29T12:02:57Z</time>
      </trkpt>
      <trkpt lat="43.71046" lon="4.77376">
        <ele>55.498</ele>
        <time>2019-04-29T12:03:08Z</time>
      </trkpt>
      <trkpt lat="43.71038" lon="4.77299">
        <ele>54.966</ele>
        <time>2019-04-29T12:03:18Z</time>
      </trkpt>
      <trkpt lat="43.71037" lon="4.77219">
        <ele>56.113</ele>
        <time>2019-04-29T12:03:29Z</time>
      </trkpt>
      <trkpt lat="43.71034" lon="4.77143">
        <ele>55.547</ele>
        <time>2019-04-29T12:03:40Z</time>
      </trkpt>
      <trkpt lat="43.71026" lon="4.77077">
        <ele>55.826</ele>
        <time>2019-04-29T12:03:50Z</time>
      </trkpt>
      <trkpt lat="43.71016" lon="4.76999">
        <ele>55.004</ele>
        <time>2019-04-29T12:04:01Z</time>
      </trkpt>
      <trkpt lat="43.71005" lon="4.76936">
        <ele>53.066</ele>
        <time>2019-04-29T12:04:11Z</time>
      </trkpt>
      <trkpt lat="43.70986" lon="4.76882">
        <ele>50.647</ele>
        <time>2019-04-29T12:04:21Z</time>
      </trkpt>
      <trkpt lat="43.70961" lon="4.76814">
        <ele>46.773</ele>
        <time>2019-04-29T12:04:31Z</time>
      </trkpt>
      <trkpt lat="43.70944" lon="4.76746">
        <ele>43.923</ele>
        <time>2019-04-29T12:04:42Z</time>
      </trkpt>
      <trkpt lat="43.70924" lon="4.76681">
        <ele>45.051</ele>
        <time>2019-04-29T12:04:53Z</time>
      </trkpt>
      <trkpt lat="43.70905" lon="4.76613">
        <ele>48.355</ele>
        <time>2019-04-29T12:05:03Z</time>
      </trkpt>
      <trkpt lat="43.70895" lon="4.76544">
        <ele>49.231</ele>
        <time>2019-04-29T12:05:14Z</time>
      </trkpt>
      <trkpt lat="43.70892" lon="4.76473">
        <ele>49.983</ele>
        <time>2019-04-29T12:05:25Z</time>
      </trkpt>
      <trkpt lat="43.70884" lon="4.76407">
        <ele>49.753</ele>
        <time>2019-04-29T12:05:36Z</time>
      </trkpt>
      <trkpt lat="43.70876" lon="4.76347">
        <ele>49.475</ele>
        <time>2019-04-29T12:05:47Z</time>
      </trkpt>
      <trkpt lat="43.70875" lon="4.7629">
        <ele>48.832</ele>
        <time>2019-04-29T12:05:58Z</time>
      </trkpt>
      <trkpt lat="43.70876" lon="4.76252">
        <ele>49.208</ele>
        <time>2019-04-29T12:06:08Z</time>
      </trkpt>
      <trkpt lat="43.70876" lon="4.76212">
        <ele>49.658</ele>
        <time>2019-04-29T12:06:18Z</time>
      </trkpt>
      <trkpt lat="43.70869" lon="4.76165">
        <ele>50.415</ele>
        <time>2019-04-29T12:06:29Z</time>
      </trkpt>
      <trkpt lat="43.70855" lon="4.76113">
        <ele>50.945</ele>
        <time>2019-04-29T12:06:40Z</time>
      </trkpt>
      <trkpt lat="43.7084" lon="4.76069">
        <ele>51.302</ele>
        <time>2019-04-29T12:06:51Z</time>
      </trkpt>
      <trkpt lat="43.70827" lon="4.76024">
        <ele>51.135</ele>
        <time>2019-04-29T12:07:02Z</time>
      </trkpt>
      <trkpt lat="43.70822" lon="4.75987">
        <ele>50.78</ele>
        <time>2019-04-29T12:07:12Z</time>
      </trkpt>
      <trkpt lat="43.70818" lon="4.7594">
        <ele>50.467</ele>
        <time>2019-04-29T12:07:22Z</time>
      </trkpt>
      <trkpt lat="43.70802" lon="4.75875">
        <ele>48.794</ele>
        <time>2019-04-29T12:07:33Z</time>
      </trkpt>
      <trkpt lat="43.70775" lon="4.75806">
        <ele>50.361</ele>
        <time>2019-04-29T12:07:43Z</time>
      </trkpt>
      <trkpt lat="43.70744" lon="4.7573">
        <ele>50.812</ele>
        <time>2019-04-29T12:07:53Z</time>
      </trkpt>
      <trkpt lat="43.70712" lon="4.75637">
        <ele>50.992</ele>
        <time>2019-04-29T12:08:04Z</time>
      </trkpt>
      <trkpt lat="43.70694" lon="4.75555">
        <ele>50.379</ele>
        <time>2019-04-29T12:08:14Z</time>
      </trkpt>
      <trkpt lat="43.70726" lon="4.75532">
        <ele>50.638</ele>
        <time>2019-04-29T12:08:25Z</time>
      </trkpt>
      <trkpt lat="43.7075" lon="4.75517">
        <ele>51.929</ele>
        <time>2019-04-29T12:08:36Z</time>
      </trkpt>
      <trkpt lat="43.70777" lon="4.75498">
        <ele>53.089</ele>
        <time>2019-04-29T12:08:47Z</time>
      </trkpt>
      <trkpt lat="43.70794" lon="4.75488">
        <ele>53.5</ele>
        <time>2019-04-29T12:08:57Z</time>
      </trkpt>
      <trkpt lat="43.70822" lon="4.75474">
        <ele>54.08</ele>
        <time>2019-04-29T12:09:08Z</time>
      </trkpt>
      <trkpt lat="43.70847" lon="4.7546">
        <ele>56.059</ele>
        <time>2019-04-29T12:09:19Z</time>
      </trkpt>
      <trkpt lat="43.7087" lon="4.75454">
        <ele>56.775</ele>
        <time>2019-04-29T12:09:29Z</time>
      </trkpt>
      <trkpt lat="43.70894" lon="4.7544">
        <ele>57.668</ele>
        <time>2019-04-29T12:09:40Z</time>
      </trkpt>
      <trkpt lat="43.70913" lon="4.7543">
        <ele>58.087</ele>
        <time>2019-04-29T12:09:51Z</time>
      </trkpt>
      <trkpt lat="43.70919" lon="4.75412">
        <ele>59.565</ele>
        <time>2019-04-29T12:10:01Z</time>
      </trkpt>
      <trkpt lat="43.70922" lon="4.75359">
        <ele>62.151</ele>
        <time>2019-04-29T12:10:12Z</time>
      </trkpt>
      <trkpt lat="43.70904" lon="4.75293">
        <ele>63.584</ele>
        <time>2019-04-29T12:10:23Z</time>
      </trkpt>
      <trkpt lat="43.70893" lon="4.75227">
        <ele>64.049</ele>
        <time>2019-04-29T12:10:34Z</time>
      </trkpt>
      <trkpt lat="43.70871" lon="4.75145">
        <ele>63.633</ele>
        <time>2019-04-29T12:10:44Z</time>
      </trkpt>
      <trkpt lat="43.70842" lon="4.75074">
        <ele>63.87</ele>
        <time>2019-04-29T12:10:54Z</time>
      </trkpt>
      <trkpt lat="43.70808" lon="4.7499">
        <ele>62.975</ele>
        <time>2019-04-29T12:11:05Z</time>
      </trkpt>
      <trkpt lat="43.70781" lon="4.74922">
        <ele>61.947</ele>
        <time>2019-04-29T12:11:15Z</time>
      </trkpt>
      <trkpt lat="43.70749" lon="4.74854">
        <ele>60.55</ele>
        <time>2019-04-29T12:11:26Z</time>
      </trkpt>
      <trkpt lat="43.70739" lon="4.7479">
        <ele>57.867</ele>
        <time>2019-04-29T12:11:36Z</time>
      </trkpt>
      <trkpt lat="43.70729" lon="4.74733">
        <ele>55.97</ele>
        <time>2019-04-29T12:11:46Z</time>
      </trkpt>
      <trkpt lat="43.70721" lon="4.74664">
        <ele>55.547</ele>
        <time>2019-04-29T12:11:57Z</time>
      </trkpt>
      <trkpt lat="43.70716" lon="4.74648">
        <ele>55.749</ele>
        <time>2019-04-29T12:12:07Z</time>
      </trkpt>
      <trkpt lat="43.70716" lon="4.74648">
        <ele>55.831</ele>
        <time>2019-04-29T12:12:18Z</time>
      </trkpt>
      <trkpt lat="43.70716" lon="4.74648">
        <ele>55.91</ele>
        <time>2019-04-29T12:12:28Z</time>
      </trkpt>
      <trkpt lat="43.70716" lon="4.74648">
        <ele>56.009</ele>
        <time>2019-04-29T12:12:39Z</time>
      </trkpt>
      <trkpt lat="43.70716" lon="4.74648">
        <ele>56.092</ele>
        <time>2019-04-29T12:12:49Z</time>
      </trkpt>
      <trkpt lat="43.70716" lon="4.74648">
        <ele>56.194</ele>
        <time>2019-04-29T12:13:00Z</time>
      </trkpt>
      <trkpt lat="43.70716" lon="4.74648">
        <ele>56.286</ele>
        <time>2019-04-29T12:13:10Z</time>
      </trkpt>
      <trkpt lat="43.70716" lon="4.74648">
        <ele>56.38</ele>
        <time>2019-04-29T12:13:21Z</time>
      </trkpt>
      <trkpt lat="43.70716" lon="4.74648">
        <ele>56.461</ele>
        <time>2019-04-29T12:13:31Z</time>
      </trkpt>
      <trkpt lat="43.70716" lon="4.74648">
        <ele>56.54</ele>
        <time>2019-04-29T12:13:41Z</time>
      </trkpt>
      <trkpt lat="43.70717" lon="4.74645">
        <ele>57.224</ele>
        <time>2019-04-29T12:13:52Z</time>
      </trkpt>
      <trkpt lat="43.70717" lon="4.74645">
        <ele>57.519</ele>
        <time>2019-04-29T12:14:03Z</time>
      </trkpt>
      <trkpt lat="43.70718" lon="4.74644">
        <ele>57.933</ele>
        <time>2019-04-29T12:14:14Z</time>
      </trkpt>
      <trkpt lat="43.70716" lon="4.74644">
        <ele>58.484</ele>
        <time>2019-04-29T12:14:24Z</time>
      </trkpt>
      <trkpt lat="43.70709" lon="4.74611">
        <ele>59.441</ele>
        <time>2019-04-29T12:14:34Z</time>
      </trkpt>
      <trkpt lat="43.70699" lon="4.74558">
        <ele>61.105</ele>
        <time>2019-04-29T12:14:45Z</time>
      </trkpt>
      <trkpt lat="43.70687" lon="4.74504">
        <ele>61.921</ele>
        <time>2019-04-29T12:14:55Z</time>
      </trkpt>
      <trkpt lat="43.70667" lon="4.74445">
        <ele>62.713</ele>
        <time>2019-04-29T12:15:05Z</time>
      </trkpt>
      <trkpt lat="43.70649" lon="4.74379">
        <ele>63.756</ele>
        <time>2019-04-29T12:15:16Z</time>
      </trkpt>
      <trkpt lat="43.70641" lon="4.74316">
        <ele>62.85</ele>
        <time>2019-04-29T12:15:27Z</time>
      </trkpt>
      <trkpt lat="43.70634" lon="4.74256">
        <ele>62.459</ele>
        <time>2019-04-29T12:15:37Z</time>
      </trkpt>
      <trkpt lat="43.70627" lon="4.74201">
        <ele>61.938</ele>
        <time>2019-04-29T12:15:47Z</time>
      </trkpt>
      <trkpt lat="43.70619" lon="4.74132">
        <ele>63.404</ele>
        <time>2019-04-29T12:15:58Z</time>
      </trkpt>
      <trkpt lat="43.70613" lon="4.74077">
        <ele>64.047</ele>
        <time>2019-04-29T12:16:09Z</time>
      </trkpt>
      <trkpt lat="43.70612" lon="4.74032">
        <ele>64.083</ele>
        <time>2019-04-29T12:16:19Z</time>
      </trkpt>
      <trkpt lat="43.70607" lon="4.73984">
        <ele>63.955</ele>
        <time>2019-04-29T12:16:29Z</time>
      </trkpt>
      <trkpt lat="43.70609" lon="4.73948">
        <ele>65.686</ele>
        <time>2019-04-29T12:16:40Z</time>
      </trkpt>
      <trkpt lat="43.70602" lon="4.73902">
        <ele>65.633</ele>
        <time>2019-04-29T12:16:50Z</time>
      </trkpt>
      <trkpt lat="43.70598" lon="4.73844">
        <ele>66.223</ele>
        <time>2019-04-29T12:17:01Z</time>
      </trkpt>
      <trkpt lat="43.70592" lon="4.73793">
        <ele>66.224</ele>
        <time>2019-04-29T12:17:11Z</time>
      </trkpt>
      <trkpt lat="43.70588" lon="4.73736">
        <ele>66.337</ele>
        <time>2019-04-29T12:17:22Z</time>
      </trkpt>
      <trkpt lat="43.70584" lon="4.73678">
        <ele>65.76</ele>
        <time>2019-04-29T12:17:32Z</time>
      </trkpt>
      <trkpt lat="43.7058" lon="4.73618">
        <ele>65.229</ele>
        <time>2019-04-29T12:17:43Z</time>
      </trkpt>
      <trkpt lat="43.70577" lon="4.73556">
        <ele>64.972</ele>
        <time>2019-04-29T12:17:53Z</time>
      </trkpt>
      <trkpt lat="43.70569" lon="4.73475">
        <ele>65.589</ele>
        <time>2019-04-29T12:18:04Z</time>
      </trkpt>
      <trkpt lat="43.70563" lon="4.73398">
        <ele>65.042</ele>
        <time>2019-04-29T12:18:14Z</time>
      </trkpt>
      <trkpt lat="43.70556" lon="4.73325">
        <ele>64.293</ele>
        <time>2019-04-29T12:18:24Z</time>
      </trkpt>
      <trkpt lat="43.70553" lon="4.73256">
        <ele>64.57</ele>
        <time>2019-04-29T12:18:35Z</time>
      </trkpt>
      <trkpt lat="43.70547" lon="4.73183">
        <ele>63.992</ele>
        <time>2019-04-29T12:18:45Z</time>
      </trkpt>
      <trkpt lat="43.70543" lon="4.73111">
        <ele>62.903</ele>
        <time>2019-04-29T12:18:56Z</time>
      </trkpt>
      <trkpt lat="43.70538" lon="4.73039">
        <ele>64.478</ele>
        <time>2019-04-29T12:19:06Z</time>
      </trkpt>
      <trkpt lat="43.70534" lon="4.72969">
        <ele>63.927</ele>
        <time>2019-04-29T12:19:17Z</time>
      </trkpt>
      <trkpt lat="43.70529" lon="4.72911">
        <ele>63.733</ele>
        <time>2019-04-29T12:19:27Z</time>
      </trkpt>
      <trkpt lat="43.70522" lon="4.72846">
        <ele>62.896</ele>
        <time>2019-04-29T12:19:38Z</time>
      </trkpt>
      <trkpt lat="43.70519" lon="4.72778">
        <ele>62.122</ele>
        <time>2019-04-29T12:19:48Z</time>
      </trkpt>
      <trkpt lat="43.70517" lon="4.72716">
        <ele>61.845</ele>
        <time>2019-04-29T12:19:58Z</time>
      </trkpt>
      <trkpt lat="43.7051" lon="4.72643">
        <ele>61.003</ele>
        <time>2019-04-29T12:20:08Z</time>
      </trkpt>
      <trkpt lat="43.70503" lon="4.72574">
        <ele>61.633</ele>
        <time>2019-04-29T12:20:19Z</time>
      </trkpt>
      <trkpt lat="43.70496" lon="4.72511">
        <ele>61.209</ele>
        <time>2019-04-29T12:20:30Z</time>
      </trkpt>
      <trkpt lat="43.70495" lon="4.72461">
        <ele>61.56</ele>
        <time>2019-04-29T12:20:40Z</time>
      </trkpt>
      <trkpt lat="43.70493" lon="4.72399">
        <ele>61.121</ele>
        <time>2019-04-29T12:20:51Z</time>
      </trkpt>
      <trkpt lat="43.70489" lon="4.72342">
        <ele>61.074</ele>
        <time>2019-04-29T12:21:02Z</time>
      </trkpt>
      <trkpt lat="43.70493" lon="4.72265">
        <ele>58.215</ele>
        <time>2019-04-29T12:21:13Z</time>
      </trkpt>
      <trkpt lat="43.70495" lon="4.72218">
        <ele>57.907</ele>
        <time>2019-04-29T12:21:23Z</time>
      </trkpt>
      <trkpt lat="43.70495" lon="4.72176">
        <ele>57.509</ele>
        <time>2019-04-29T12:21:33Z</time>
      </trkpt>
      <trkpt lat="43.70497" lon="4.72134">
        <ele>57.471</ele>
        <time>2019-04-29T12:21:43Z</time>
      </trkpt>
      <trkpt lat="43.70499" lon="4.72117">
        <ele>57.638</ele>
        <time>2019-04-29T12:21:53Z</time>
      </trkpt>
      <trkpt lat="43.70497" lon="4.72149">
        <ele>58.209</ele>
        <time>2019-04-29T12:22:04Z</time>
      </trkpt>
      <trkpt lat="43.70494" lon="4.72175">
        <ele>58.582</ele>
        <time>2019-04-29T12:22:14Z</time>
      </trkpt>
      <trkpt lat="43.70483" lon="4.72169">
        <ele>59.387</ele>
        <time>2019-04-29T12:22:25Z</time>
      </trkpt>
      <trkpt lat="43.70463" lon="4.72164">
        <ele>60.425</ele>
        <time>2019-04-29T12:22:36Z</time>
      </trkpt>
      <trkpt lat="43.70436" lon="4.72167">
        <ele>60.645</ele>
        <time>2019-04-29T12:22:47Z</time>
      </trkpt>
      <trkpt lat="43.70422" lon="4.72163">
        <ele>60.719</ele>
        <time>2019-04-29T12:22:57Z</time>
      </trkpt>
      <trkpt lat="43.70405" lon="4.72164">
        <ele>61.228</ele>
        <time>2019-04-29T12:23:08Z</time>
      </trkpt>
      <trkpt lat="43.70403" lon="4.72158">
        <ele>60.734</ele>
        <time>2019-04-29T12:23:19Z</time>
      </trkpt>
      <trkpt lat="43.70403" lon="4.72154">
        <ele>60.787</ele>
        <time>2019-04-29T12:23:29Z</time>
      </trkpt>
      <trkpt lat="43.70396" lon="4.72153">
        <ele>61.066</ele>
        <time>2019-04-29T12:23:39Z</time>
      </trkpt>
      <trkpt lat="43.70371" lon="4.7215">
        <ele>61.5</ele>
        <time>2019-04-29T12:23:50Z</time>
      </trkpt>
      <trkpt lat="43.70372" lon="4.72151">
        <ele>62.596</ele>
        <time>2019-04-29T12:24:02Z</time>
      </trkpt>
      <trkpt lat="43.70369" lon="4.7215">
        <ele>62.197</ele>
        <time>2019-04-29T12:24:12Z</time>
      </trkpt>
      <trkpt lat="43.70369" lon="4.7215">
        <ele>62.175</ele>
        <time>2019-04-29T12:24:24Z</time>
      </trkpt>
      <trkpt lat="43.70369" lon="4.7215">
        <ele>62.177</ele>
        <time>2019-04-29T12:24:34Z</time>
      </trkpt>
      <trkpt lat="43.70369" lon="4.7215">
        <ele>62.196</ele>
        <time>2019-04-29T12:24:44Z</time>
      </trkpt>
      <trkpt lat="43.70369" lon="4.7215">
        <ele>62.218</ele>
        <time>2019-04-29T12:24:54Z</time>
      </trkpt>
      <trkpt lat="43.70369" lon="4.7215">
        <ele>62.227</ele>
        <time>2019-04-29T12:25:05Z</time>
      </trkpt>
      <trkpt lat="43.70369" lon="4.7215">
        <ele>62.256</ele>
        <time>2019-04-29T12:25:16Z</time>
      </trkpt>
      <trkpt lat="43.70369" lon="4.7215">
        <ele>62.279</ele>
        <time>2019-04-29T12:25:26Z</time>
      </trkpt>
      <trkpt lat="43.70369" lon="4.7215">
        <ele>62.318</ele>
        <time>2019-04-29T12:25:37Z</time>
      </trkpt>
      <trkpt lat="43.70369" lon="4.7215">
        <ele>62.369</ele>
        <time>2019-04-29T12:25:47Z</time>
      </trkpt>
      <trkpt lat="43.70369" lon="4.7215">
        <ele>62.433</ele>
        <time>2019-04-29T12:25:58Z</time>
      </trkpt>
      <trkpt lat="43.7037" lon="4.7215">
        <ele>62.487</ele>
        <time>2019-04-29T12:26:09Z</time>
      </trkpt>
      <trkpt lat="43.7037" lon="4.7215">
        <ele>62.526</ele>
        <time>2019-04-29T12:26:20Z</time>
      </trkpt>
      <trkpt lat="43.7037" lon="4.72149">
        <ele>62.559</ele>
        <time>2019-04-29T12:26:30Z</time>
      </trkpt>
      <trkpt lat="43.7037" lon="4.72149">
        <ele>62.604</ele>
        <time>2019-04-29T12:26:41Z</time>
      </trkpt>
      <trkpt lat="43.7037" lon="4.72149">
        <ele>62.639</ele>
        <time>2019-04-29T12:26:51Z</time>
      </trkpt>
      <trkpt lat="43.7037" lon="4.72149">
        <ele>62.66</ele>
        <time>2019-04-29T12:27:01Z</time>
      </trkpt>
      <trkpt lat="43.7037" lon="4.72149">
        <ele>62.674</ele>
        <time>2019-04-29T12:27:12Z</time>
      </trkpt>
      <trkpt lat="43.7037" lon="4.72149">
        <ele>62.675</ele>
        <time>2019-04-29T12:27:23Z</time>
      </trkpt>
      <trkpt lat="43.7037" lon="4.72149">
        <ele>62.671</ele>
        <time>2019-04-29T12:27:34Z</time>
      </trkpt>
      <trkpt lat="43.7037" lon="4.72149">
        <ele>62.655</ele>
        <time>2019-04-29T12:27:45Z</time>
      </trkpt>
      <trkpt lat="43.7037" lon="4.72149">
        <ele>62.639</ele>
        <time>2019-04-29T12:27:55Z</time>
      </trkpt>
      <trkpt lat="43.7037" lon="4.72149">
        <ele>62.616</ele>
        <time>2019-04-29T12:28:05Z</time>
      </trkpt>
      <trkpt lat="43.7037" lon="4.72149">
        <ele>62.621</ele>
        <time>2019-04-29T12:28:16Z</time>
      </trkpt>
      <trkpt lat="43.7037" lon="4.72149">
        <ele>62.613</ele>
        <time>2019-04-29T12:28:27Z</time>
      </trkpt>
      <trkpt lat="43.7037" lon="4.72149">
        <ele>62.585</ele>
        <time>2019-04-29T12:28:38Z</time>
      </trkpt>
      <trkpt lat="43.7037" lon="4.72149">
        <ele>62.567</ele>
        <time>2019-04-29T12:28:49Z</time>
      </trkpt>
      <trkpt lat="43.7037" lon="4.72149">
        <ele>62.552</ele>
        <time>2019-04-29T12:28:59Z</time>
      </trkpt>
      <trkpt lat="43.7037" lon="4.72149">
        <ele>62.537</ele>
        <time>2019-04-29T12:29:09Z</time>
      </trkpt>
      <trkpt lat="43.7037" lon="4.72149">
        <ele>62.527</ele>
        <time>2019-04-29T12:29:20Z</time>
      </trkpt>
      <trkpt lat="43.7037" lon="4.72149">
        <ele>62.524</ele>
        <time>2019-04-29T12:29:30Z</time>
      </trkpt>
      <trkpt lat="43.7037" lon="4.72149">
        <ele>62.506</ele>
        <time>2019-04-29T12:29:41Z</time>
      </trkpt>
      <trkpt lat="43.7037" lon="4.72149">
        <ele>62.499</ele>
        <time>2019-04-29T12:29:52Z</time>
      </trkpt>
      <trkpt lat="43.70371" lon="4.72149">
        <ele>62.507</ele>
        <time>2019-04-29T12:30:03Z</time>
      </trkpt>
      <trkpt lat="43.70372" lon="4.72149">
        <ele>62.397</ele>
        <time>2019-04-29T12:30:14Z</time>
      </trkpt>
      <trkpt lat="43.70396" lon="4.72154">
        <ele>62.032</ele>
        <time>2019-04-29T12:30:25Z</time>
      </trkpt>
      <trkpt lat="43.70425" lon="4.7217">
        <ele>62.148</ele>
        <time>2019-04-29T12:30:36Z</time>
      </trkpt>
      <trkpt lat="43.70451" lon="4.72164">
        <ele>62.487</ele>
        <time>2019-04-29T12:30:47Z</time>
      </trkpt>
      <trkpt lat="43.70476" lon="4.72165">
        <ele>62.774</ele>
        <time>2019-04-29T12:30:57Z</time>
      </trkpt>
      <trkpt lat="43.70491" lon="4.72177">
        <ele>62.944</ele>
        <time>2019-04-29T12:31:07Z</time>
      </trkpt>
      <trkpt lat="43.70495" lon="4.72178">
        <ele>62.947</ele>
        <time>2019-04-29T12:31:17Z</time>
      </trkpt>
      <trkpt lat="43.70498" lon="4.72138">
        <ele>63.025</ele>
        <time>2019-04-29T12:31:28Z</time>
      </trkpt>
      <trkpt lat="43.70507" lon="4.72081">
        <ele>65.275</ele>
        <time>2019-04-29T12:31:38Z</time>
      </trkpt>
      <trkpt lat="43.7052" lon="4.72057">
        <ele>65.238</ele>
        <time>2019-04-29T12:31:49Z</time>
      </trkpt>
      <trkpt lat="43.70523" lon="4.72067">
        <ele>64.428</ele>
        <time>2019-04-29T12:31:59Z</time>
      </trkpt>
      <trkpt lat="43.70523" lon="4.72067">
        <ele>64.422</ele>
        <time>2019-04-29T12:32:10Z</time>
      </trkpt>
      <trkpt lat="43.70523" lon="4.72067">
        <ele>64.495</ele>
        <time>2019-04-29T12:32:20Z</time>
      </trkpt>
      <trkpt lat="43.70523" lon="4.72068">
        <ele>64.635</ele>
        <time>2019-04-29T12:32:31Z</time>
      </trkpt>
      <trkpt lat="43.70522" lon="4.7207">
        <ele>64.808</ele>
        <time>2019-04-29T12:32:42Z</time>
      </trkpt>
      <trkpt lat="43.70526" lon="4.72073">
        <ele>69.882</ele>
        <time>2019-04-29T12:32:52Z</time>
      </trkpt>
      <trkpt lat="43.70526" lon="4.72068">
        <ele>69.837</ele>
        <time>2019-04-29T12:33:02Z</time>
      </trkpt>
      <trkpt lat="43.70522" lon="4.72067">
        <ele>69.883</ele>
        <time>2019-04-29T12:33:12Z</time>
      </trkpt>
      <trkpt lat="43.70521" lon="4.72057">
        <ele>69.202</ele>
        <time>2019-04-29T12:33:23Z</time>
      </trkpt>
      <trkpt lat="43.70524" lon="4.72004">
        <ele>68.548</ele>
        <time>2019-04-29T12:33:34Z</time>
      </trkpt>
      <trkpt lat="43.70532" lon="4.71941">
        <ele>66.291</ele>
        <time>2019-04-29T12:33:45Z</time>
      </trkpt>
      <trkpt lat="43.70545" lon="4.71869">
        <ele>60.825</ele>
        <time>2019-04-29T12:33:55Z</time>
      </trkpt>
      <trkpt lat="43.70555" lon="4.71799">
        <ele>61.746</ele>
        <time>2019-04-29T12:34:06Z</time>
      </trkpt>
      <trkpt lat="43.7056" lon="4.71743">
        <ele>61.91</ele>
        <time>2019-04-29T12:34:16Z</time>
      </trkpt>
      <trkpt lat="43.70573" lon="4.71682">
        <ele>62.623</ele>
        <time>2019-04-29T12:34:26Z</time>
      </trkpt>
      <trkpt lat="43.7059" lon="4.71594">
        <ele>66.491</ele>
        <time>2019-04-29T12:34:39Z</time>
      </trkpt>
      <trkpt lat="43.70599" lon="4.71524">
        <ele>64.617</ele>
        <time>2019-04-29T12:34:50Z</time>
      </trkpt>
      <trkpt lat="43.70602" lon="4.71456">
        <ele>63.04</ele>
        <time>2019-04-29T12:35:00Z</time>
      </trkpt>
      <trkpt lat="43.70602" lon="4.71384">
        <ele>61.196</ele>
        <time>2019-04-29T12:35:10Z</time>
      </trkpt>
      <trkpt lat="43.70612" lon="4.71322">
        <ele>58.183</ele>
        <time>2019-04-29T12:35:21Z</time>
      </trkpt>
      <trkpt lat="43.7062" lon="4.71265">
        <ele>60.177</ele>
        <time>2019-04-29T12:35:32Z</time>
      </trkpt>
      <trkpt lat="43.70629" lon="4.71209">
        <ele>61.108</ele>
        <time>2019-04-29T12:35:42Z</time>
      </trkpt>
      <trkpt lat="43.70639" lon="4.71153">
        <ele>61.342</ele>
        <time>2019-04-29T12:35:53Z</time>
      </trkpt>
      <trkpt lat="43.70648" lon="4.71094">
        <ele>62.092</ele>
        <time>2019-04-29T12:36:03Z</time>
      </trkpt>
      <trkpt lat="43.70658" lon="4.71032">
        <ele>61.433</ele>
        <time>2019-04-29T12:36:14Z</time>
      </trkpt>
      <trkpt lat="43.70657" lon="4.70969">
        <ele>65.214</ele>
        <time>2019-04-29T12:36:24Z</time>
      </trkpt>
      <trkpt lat="43.70659" lon="4.70899">
        <ele>64.116</ele>
        <time>2019-04-29T12:36:35Z</time>
      </trkpt>
      <trkpt lat="43.70673" lon="4.70845">
        <ele>64.155</ele>
        <time>2019-04-29T12:36:46Z</time>
      </trkpt>
      <trkpt lat="43.70688" lon="4.708">
        <ele>63.491</ele>
        <time>2019-04-29T12:36:56Z</time>
      </trkpt>
      <trkpt lat="43.7069" lon="4.70755">
        <ele>63.096</ele>
        <time>2019-04-29T12:37:07Z</time>
      </trkpt>
      <trkpt lat="43.7069" lon="4.70704">
        <ele>62.362</ele>
        <time>2019-04-29T12:37:18Z</time>
      </trkpt>
      <trkpt lat="43.70684" lon="4.70644">
        <ele>60.065</ele>
        <time>2019-04-29T12:37:28Z</time>
      </trkpt>
      <trkpt lat="43.70678" lon="4.70576">
        <ele>62.598</ele>
        <time>2019-04-29T12:37:39Z</time>
      </trkpt>
      <trkpt lat="43.70673" lon="4.70508">
        <ele>65.609</ele>
        <time>2019-04-29T12:37:49Z</time>
      </trkpt>
      <trkpt lat="43.70686" lon="4.70437">
        <ele>60.397</ele>
        <time>2019-04-29T12:37:59Z</time>
      </trkpt>
      <trkpt lat="43.7071" lon="4.70358">
        <ele>56.512</ele>
        <time>2019-04-29T12:38:10Z</time>
      </trkpt>
      <trkpt lat="43.7073" lon="4.70281">
        <ele>55.053</ele>
        <time>2019-04-29T12:38:21Z</time>
      </trkpt>
      <trkpt lat="43.70746" lon="4.70206">
        <ele>56.709</ele>
        <time>2019-04-29T12:38:32Z</time>
      </trkpt>
      <trkpt lat="43.70762" lon="4.70131">
        <ele>54.966</ele>
        <time>2019-04-29T12:38:42Z</time>
      </trkpt>
      <trkpt lat="43.70778" lon="4.70063">
        <ele>53.153</ele>
        <time>2019-04-29T12:38:52Z</time>
      </trkpt>
      <trkpt lat="43.70794" lon="4.6999">
        <ele>53.888</ele>
        <time>2019-04-29T12:39:03Z</time>
      </trkpt>
      <trkpt lat="43.70813" lon="4.69914">
        <ele>54.133</ele>
        <time>2019-04-29T12:39:14Z</time>
      </trkpt>
      <trkpt lat="43.70834" lon="4.69849">
        <ele>54.605</ele>
        <time>2019-04-29T12:39:24Z</time>
      </trkpt>
      <trkpt lat="43.70859" lon="4.69777">
        <ele>56.361</ele>
        <time>2019-04-29T12:39:35Z</time>
      </trkpt>
      <trkpt lat="43.70876" lon="4.69718">
        <ele>53.566</ele>
        <time>2019-04-29T12:39:45Z</time>
      </trkpt>
      <trkpt lat="43.70895" lon="4.69659">
        <ele>55.807</ele>
        <time>2019-04-29T12:39:56Z</time>
      </trkpt>
      <trkpt lat="43.70911" lon="4.69613">
        <ele>56.668</ele>
        <time>2019-04-29T12:40:07Z</time>
      </trkpt>
      <trkpt lat="43.70929" lon="4.69563">
        <ele>61.85</ele>
        <time>2019-04-29T12:40:17Z</time>
      </trkpt>
      <trkpt lat="43.70957" lon="4.6952">
        <ele>61.131</ele>
        <time>2019-04-29T12:40:27Z</time>
      </trkpt>
      <trkpt lat="43.71001" lon="4.69459">
        <ele>57.382</ele>
        <time>2019-04-29T12:40:39Z</time>
      </trkpt>
      <trkpt lat="43.71035" lon="4.69405">
        <ele>55.883</ele>
        <time>2019-04-29T12:40:50Z</time>
      </trkpt>
      <trkpt lat="43.71066" lon="4.69362">
        <ele>54.576</ele>
        <time>2019-04-29T12:41:01Z</time>
      </trkpt>
      <trkpt lat="43.71088" lon="4.69322">
        <ele>55.013</ele>
        <time>2019-04-29T12:41:11Z</time>
      </trkpt>
      <trkpt lat="43.71117" lon="4.69272">
        <ele>55.743</ele>
        <time>2019-04-29T12:41:22Z</time>
      </trkpt>
      <trkpt lat="43.71152" lon="4.69239">
        <ele>54.055</ele>
        <time>2019-04-29T12:41:32Z</time>
      </trkpt>
      <trkpt lat="43.71191" lon="4.69199">
        <ele>52.551</ele>
        <time>2019-04-29T12:41:42Z</time>
      </trkpt>
      <trkpt lat="43.71227" lon="4.69161">
        <ele>52.875</ele>
        <time>2019-04-29T12:41:53Z</time>
      </trkpt>
      <trkpt lat="43.71252" lon="4.69126">
        <ele>52.801</ele>
        <time>2019-04-29T12:42:03Z</time>
      </trkpt>
      <trkpt lat="43.71262" lon="4.69071">
        <ele>53.028</ele>
        <time>2019-04-29T12:42:14Z</time>
      </trkpt>
      <trkpt lat="43.71262" lon="4.69014">
        <ele>53.65</ele>
        <time>2019-04-29T12:42:25Z</time>
      </trkpt>
      <trkpt lat="43.71262" lon="4.68946">
        <ele>53.765</ele>
        <time>2019-04-29T12:42:35Z</time>
      </trkpt>
      <trkpt lat="43.71259" lon="4.68861">
        <ele>50.425</ele>
        <time>2019-04-29T12:42:46Z</time>
      </trkpt>
      <trkpt lat="43.71263" lon="4.68797">
        <ele>47.297</ele>
        <time>2019-04-29T12:42:56Z</time>
      </trkpt>
      <trkpt lat="43.7127" lon="4.68741">
        <ele>49.278</ele>
        <time>2019-04-29T12:43:06Z</time>
      </trkpt>
      <trkpt lat="43.71277" lon="4.68683">
        <ele>49.749</ele>
        <time>2019-04-29T12:43:16Z</time>
      </trkpt>
      <trkpt lat="43.71283" lon="4.6866">
        <ele>49.876</ele>
        <time>2019-04-29T12:43:27Z</time>
      </trkpt>
      <trkpt lat="43.71266" lon="4.68608">
        <ele>49.62</ele>
        <time>2019-04-29T12:43:37Z</time>
      </trkpt>
      <trkpt lat="43.71238" lon="4.68538">
        <ele>50.02</ele>
        <time>2019-04-29T12:43:48Z</time>
      </trkpt>
      <trkpt lat="43.71216" lon="4.68487">
        <ele>54.372</ele>
        <time>2019-04-29T12:43:58Z</time>
      </trkpt>
      <trkpt lat="43.71196" lon="4.68441">
        <ele>54.041</ele>
        <time>2019-04-29T12:44:09Z</time>
      </trkpt>
      <trkpt lat="43.71178" lon="4.68403">
        <ele>50.387</ele>
        <time>2019-04-29T12:44:20Z</time>
      </trkpt>
      <trkpt lat="43.7116" lon="4.68367">
        <ele>50.66</ele>
        <time>2019-04-29T12:44:30Z</time>
      </trkpt>
      <trkpt lat="43.71137" lon="4.6833">
        <ele>51.303</ele>
        <time>2019-04-29T12:44:41Z</time>
      </trkpt>
      <trkpt lat="43.71114" lon="4.68288">
        <ele>55.271</ele>
        <time>2019-04-29T12:44:51Z</time>
      </trkpt>
      <trkpt lat="43.71083" lon="4.68234">
        <ele>55.241</ele>
        <time>2019-04-29T12:45:02Z</time>
      </trkpt>
      <trkpt lat="43.71062" lon="4.68164">
        <ele>55.084</ele>
        <time>2019-04-29T12:45:13Z</time>
      </trkpt>
      <trkpt lat="43.71052" lon="4.68096">
        <ele>54.245</ele>
        <time>2019-04-29T12:45:23Z</time>
      </trkpt>
      <trkpt lat="43.71047" lon="4.6802">
        <ele>54.409</ele>
        <time>2019-04-29T12:45:34Z</time>
      </trkpt>
      <trkpt lat="43.71044" lon="4.67944">
        <ele>54.061</ele>
        <time>2019-04-29T12:45:45Z</time>
      </trkpt>
      <trkpt lat="43.71024" lon="4.67874">
        <ele>56.536</ele>
        <time>2019-04-29T12:45:56Z</time>
      </trkpt>
      <trkpt lat="43.70993" lon="4.67809">
        <ele>54.488</ele>
        <time>2019-04-29T12:46:06Z</time>
      </trkpt>
      <trkpt lat="43.70961" lon="4.67742">
        <ele>53.88</ele>
        <time>2019-04-29T12:46:17Z</time>
      </trkpt>
      <trkpt lat="43.70934" lon="4.67661">
        <ele>53.762</ele>
        <time>2019-04-29T12:46:27Z</time>
      </trkpt>
      <trkpt lat="43.70909" lon="4.67575">
        <ele>53.371</ele>
        <time>2019-04-29T12:46:38Z</time>
      </trkpt>
      <trkpt lat="43.70893" lon="4.67504">
        <ele>52.841</ele>
        <time>2019-04-29T12:46:48Z</time>
      </trkpt>
      <trkpt lat="43.70864" lon="4.67437">
        <ele>52.518</ele>
        <time>2019-04-29T12:46:59Z</time>
      </trkpt>
      <trkpt lat="43.70818" lon="4.67384">
        <ele>50.93</ele>
        <time>2019-04-29T12:47:09Z</time>
      </trkpt>
      <trkpt lat="43.70761" lon="4.67339">
        <ele>50.381</ele>
        <time>2019-04-29T12:47:19Z</time>
      </trkpt>
      <trkpt lat="43.70706" lon="4.67281">
        <ele>50.347</ele>
        <time>2019-04-29T12:47:29Z</time>
      </trkpt>
      <trkpt lat="43.70673" lon="4.67208">
        <ele>49.97</ele>
        <time>2019-04-29T12:47:39Z</time>
      </trkpt>
      <trkpt lat="43.70662" lon="4.67123">
        <ele>50.407</ele>
        <time>2019-04-29T12:47:50Z</time>
      </trkpt>
      <trkpt lat="43.70672" lon="4.67041">
        <ele>49.13</ele>
        <time>2019-04-29T12:48:01Z</time>
      </trkpt>
      <trkpt lat="43.70682" lon="4.66969">
        <ele>49.404</ele>
        <time>2019-04-29T12:48:11Z</time>
      </trkpt>
      <trkpt lat="43.70684" lon="4.66896">
        <ele>49.68</ele>
        <time>2019-04-29T12:48:22Z</time>
      </trkpt>
      <trkpt lat="43.70676" lon="4.66834">
        <ele>49.126</ele>
        <time>2019-04-29T12:48:32Z</time>
      </trkpt>
      <trkpt lat="43.70662" lon="4.66773">
        <ele>50.187</ele>
        <time>2019-04-29T12:48:43Z</time>
      </trkpt>
      <trkpt lat="43.70657" lon="4.66723">
        <ele>47.851</ele>
        <time>2019-04-29T12:48:54Z</time>
      </trkpt>
      <trkpt lat="43.70649" lon="4.66659">
        <ele>46.779</ele>
        <time>2019-04-29T12:49:04Z</time>
      </trkpt>
      <trkpt lat="43.70639" lon="4.66601">
        <ele>47.179</ele>
        <time>2019-04-29T12:49:15Z</time>
      </trkpt>
      <trkpt lat="43.70628" lon="4.66556">
        <ele>47.954</ele>
        <time>2019-04-29T12:49:25Z</time>
      </trkpt>
      <trkpt lat="43.70624" lon="4.66518">
        <ele>50.451</ele>
        <time>2019-04-29T12:49:36Z</time>
      </trkpt>
      <trkpt lat="43.70623" lon="4.66513">
        <ele>50.598</ele>
        <time>2019-04-29T12:49:46Z</time>
      </trkpt>
      <trkpt lat="43.7062" lon="4.6651">
        <ele>50.809</ele>
        <time>2019-04-29T12:49:57Z</time>
      </trkpt>
      <trkpt lat="43.7062" lon="4.6651">
        <ele>50.854</ele>
        <time>2019-04-29T12:50:07Z</time>
      </trkpt>
      <trkpt lat="43.70619" lon="4.66508">
        <ele>51.002</ele>
        <time>2019-04-29T12:50:18Z</time>
      </trkpt>
      <trkpt lat="43.70614" lon="4.66491">
        <ele>51.336</ele>
        <time>2019-04-29T12:50:29Z</time>
      </trkpt>
      <trkpt lat="43.70608" lon="4.66457">
        <ele>52.121</ele>
        <time>2019-04-29T12:50:40Z</time>
      </trkpt>
      <trkpt lat="43.70597" lon="4.66435">
        <ele>52.494</ele>
        <time>2019-04-29T12:50:50Z</time>
      </trkpt>
      <trkpt lat="43.70605" lon="4.66428">
        <ele>54.037</ele>
        <time>2019-04-29T12:51:00Z</time>
      </trkpt>
      <trkpt lat="43.70602" lon="4.66425">
        <ele>54.972</ele>
        <time>2019-04-29T12:51:11Z</time>
      </trkpt>
      <trkpt lat="43.70602" lon="4.66425">
        <ele>55.374</ele>
        <time>2019-04-29T12:51:22Z</time>
      </trkpt>
      <trkpt lat="43.70602" lon="4.66425">
        <ele>55.992</ele>
        <time>2019-04-29T12:51:33Z</time>
      </trkpt>
      <trkpt lat="43.70595" lon="4.66424">
        <ele>56.51</ele>
        <time>2019-04-29T12:51:44Z</time>
      </trkpt>
      <trkpt lat="43.70599" lon="4.66436">
        <ele>57.306</ele>
        <time>2019-04-29T12:51:55Z</time>
      </trkpt>
      <trkpt lat="43.70602" lon="4.66444">
        <ele>56.505</ele>
        <time>2019-04-29T12:52:06Z</time>
      </trkpt>
      <trkpt lat="43.70605" lon="4.66426">
        <ele>56.461</ele>
        <time>2019-04-29T12:52:16Z</time>
      </trkpt>
      <trkpt lat="43.7061" lon="4.66395">
        <ele>56.445</ele>
        <time>2019-04-29T12:52:27Z</time>
      </trkpt>
      <trkpt lat="43.70617" lon="4.66353">
        <ele>56.303</ele>
        <time>2019-04-29T12:52:38Z</time>
      </trkpt>
      <trkpt lat="43.70632" lon="4.66314">
        <ele>58.315</ele>
        <time>2019-04-29T12:52:48Z</time>
      </trkpt>
      <trkpt lat="43.7065" lon="4.66255">
        <ele>59.777</ele>
        <time>2019-04-29T12:52:58Z</time>
      </trkpt>
      <trkpt lat="43.70654" lon="4.66174">
        <ele>57.504</ele>
        <time>2019-04-29T12:53:08Z</time>
      </trkpt>
      <trkpt lat="43.70653" lon="4.6609">
        <ele>53.761</ele>
        <time>2019-04-29T12:53:19Z</time>
      </trkpt>
      <trkpt lat="43.70644" lon="4.65999">
        <ele>51.655</ele>
        <time>2019-04-29T12:53:30Z</time>
      </trkpt>
      <trkpt lat="43.70625" lon="4.65923">
        <ele>50.895</ele>
        <time>2019-04-29T12:53:41Z</time>
      </trkpt>
      <trkpt lat="43.70607" lon="4.6585">
        <ele>50.605</ele>
        <time>2019-04-29T12:53:51Z</time>
      </trkpt>
      <trkpt lat="43.70581" lon="4.65775">
        <ele>49.797</ele>
        <time>2019-04-29T12:54:02Z</time>
      </trkpt>
      <trkpt lat="43.70542" lon="4.65725">
        <ele>50.912</ele>
        <time>2019-04-29T12:54:12Z</time>
      </trkpt>
      <trkpt lat="43.70491" lon="4.65687">
        <ele>48.526</ele>
        <time>2019-04-29T12:54:23Z</time>
      </trkpt>
      <trkpt lat="43.70425" lon="4.65666">
        <ele>46.621</ele>
        <time>2019-04-29T12:54:34Z</time>
      </trkpt>
      <trkpt lat="43.70369" lon="4.6567">
        <ele>47.59</ele>
        <time>2019-04-29T12:54:44Z</time>
      </trkpt>
      <trkpt lat="43.70303" lon="4.65679">
        <ele>47.028</ele>
        <time>2019-04-29T12:54:55Z</time>
      </trkpt>
      <trkpt lat="43.70241" lon="4.65688">
        <ele>45.621</ele>
        <time>2019-04-29T12:55:06Z</time>
      </trkpt>
      <trkpt lat="43.70181" lon="4.65674">
        <ele>45.677</ele>
        <time>2019-04-29T12:55:16Z</time>
      </trkpt>
      <trkpt lat="43.70129" lon="4.6562">
        <ele>46.507</ele>
        <time>2019-04-29T12:55:26Z</time>
      </trkpt>
      <trkpt lat="43.70092" lon="4.65538">
        <ele>45.914</ele>
        <time>2019-04-29T12:55:37Z</time>
      </trkpt>
      <trkpt lat="43.70058" lon="4.65464">
        <ele>45.607</ele>
        <time>2019-04-29T12:55:48Z</time>
      </trkpt>
      <trkpt lat="43.70026" lon="4.65406">
        <ele>45.554</ele>
        <time>2019-04-29T12:55:58Z</time>
      </trkpt>
      <trkpt lat="43.69987" lon="4.65349">
        <ele>46.158</ele>
        <time>2019-04-29T12:56:09Z</time>
      </trkpt>
      <trkpt lat="43.6995" lon="4.65287">
        <ele>47.09</ele>
        <time>2019-04-29T12:56:20Z</time>
      </trkpt>
      <trkpt lat="43.69919" lon="4.65232">
        <ele>47.995</ele>
        <time>2019-04-29T12:56:30Z</time>
      </trkpt>
      <trkpt lat="43.69885" lon="4.65168">
        <ele>47.346</ele>
        <time>2019-04-29T12:56:41Z</time>
      </trkpt>
      <trkpt lat="43.69855" lon="4.65107">
        <ele>47.398</ele>
        <time>2019-04-29T12:56:52Z</time>
      </trkpt>
      <trkpt lat="43.69839" lon="4.65036">
        <ele>47.757</ele>
        <time>2019-04-29T12:57:03Z</time>
      </trkpt>
      <trkpt lat="43.6984" lon="4.64971">
        <ele>48.628</ele>
        <time>2019-04-29T12:57:14Z</time>
      </trkpt>
      <trkpt lat="43.69833" lon="4.64914">
        <ele>49.53</ele>
        <time>2019-04-29T12:57:25Z</time>
      </trkpt>
      <trkpt lat="43.69832" lon="4.64858">
        <ele>50.645</ele>
        <time>2019-04-29T12:57:35Z</time>
      </trkpt>
      <trkpt lat="43.69831" lon="4.648">
        <ele>50.444</ele>
        <time>2019-04-29T12:57:46Z</time>
      </trkpt>
      <trkpt lat="43.69831" lon="4.64744">
        <ele>50.116</ele>
        <time>2019-04-29T12:57:56Z</time>
      </trkpt>
      <trkpt lat="43.69834" lon="4.64692">
        <ele>50.228</ele>
        <time>2019-04-29T12:58:07Z</time>
      </trkpt>
      <trkpt lat="43.69849" lon="4.64665">
        <ele>50.274</ele>
        <time>2019-04-29T12:58:17Z</time>
      </trkpt>
      <trkpt lat="43.69868" lon="4.64635">
        <ele>50.233</ele>
        <time>2019-04-29T12:58:27Z</time>
      </trkpt>
      <trkpt lat="43.69866" lon="4.64584">
        <ele>50.104</ele>
        <time>2019-04-29T12:58:38Z</time>
      </trkpt>
      <trkpt lat="43.69837" lon="4.64546">
        <ele>49.583</ele>
        <time>2019-04-29T12:58:48Z</time>
      </trkpt>
      <trkpt lat="43.69831" lon="4.64492">
        <ele>49.196</ele>
        <time>2019-04-29T12:58:58Z</time>
      </trkpt>
      <trkpt lat="43.69833" lon="4.64446">
        <ele>49.197</ele>
        <time>2019-04-29T12:59:09Z</time>
      </trkpt>
      <trkpt lat="43.69833" lon="4.64446">
        <ele>49.215</ele>
        <time>2019-04-29T12:59:20Z</time>
      </trkpt>
      <trkpt lat="43.69832" lon="4.64445">
        <ele>49.305</ele>
        <time>2019-04-29T12:59:31Z</time>
      </trkpt>
      <trkpt lat="43.69832" lon="4.64445">
        <ele>49.362</ele>
        <time>2019-04-29T12:59:41Z</time>
      </trkpt>
      <trkpt lat="43.69832" lon="4.64445">
        <ele>49.439</ele>
        <time>2019-04-29T12:59:52Z</time>
      </trkpt>
      <trkpt lat="43.69832" lon="4.64445">
        <ele>49.52</ele>
        <time>2019-04-29T13:00:02Z</time>
      </trkpt>
      <trkpt lat="43.69832" lon="4.64435">
        <ele>49.845</ele>
        <time>2019-04-29T13:00:13Z</time>
      </trkpt>
      <trkpt lat="43.6983" lon="4.64388">
        <ele>50.034</ele>
        <time>2019-04-29T13:00:24Z</time>
      </trkpt>
      <trkpt lat="43.69839" lon="4.64333">
        <ele>50.262</ele>
        <time>2019-04-29T13:00:34Z</time>
      </trkpt>
      <trkpt lat="43.69864" lon="4.64287">
        <ele>51.523</ele>
        <time>2019-04-29T13:00:45Z</time>
      </trkpt>
      <trkpt lat="43.6986" lon="4.64234">
        <ele>50.941</ele>
        <time>2019-04-29T13:00:55Z</time>
      </trkpt>
      <trkpt lat="43.69813" lon="4.64239">
        <ele>48.433</ele>
        <time>2019-04-29T13:01:06Z</time>
      </trkpt>
      <trkpt lat="43.69764" lon="4.64208">
        <ele>47.248</ele>
        <time>2019-04-29T13:01:17Z</time>
      </trkpt>
      <trkpt lat="43.69713" lon="4.64175">
        <ele>46.426</ele>
        <time>2019-04-29T13:01:28Z</time>
      </trkpt>
      <trkpt lat="43.69667" lon="4.64143">
        <ele>47.393</ele>
        <time>2019-04-29T13:01:38Z</time>
      </trkpt>
      <trkpt lat="43.69619" lon="4.64113">
        <ele>47.078</ele>
        <time>2019-04-29T13:01:48Z</time>
      </trkpt>
      <trkpt lat="43.69563" lon="4.64077">
        <ele>47.645</ele>
        <time>2019-04-29T13:01:59Z</time>
      </trkpt>
      <trkpt lat="43.69511" lon="4.64042">
        <ele>49.327</ele>
        <time>2019-04-29T13:02:09Z</time>
      </trkpt>
      <trkpt lat="43.6946" lon="4.64007">
        <ele>46.464</ele>
        <time>2019-04-29T13:02:19Z</time>
      </trkpt>
      <trkpt lat="43.69399" lon="4.63968">
        <ele>47.081</ele>
        <time>2019-04-29T13:02:30Z</time>
      </trkpt>
      <trkpt lat="43.6934" lon="4.63931">
        <ele>47.457</ele>
        <time>2019-04-29T13:02:41Z</time>
      </trkpt>
      <trkpt lat="43.69284" lon="4.63894">
        <ele>48.231</ele>
        <time>2019-04-29T13:02:52Z</time>
      </trkpt>
      <trkpt lat="43.69246" lon="4.6387">
        <ele>48.403</ele>
        <time>2019-04-29T13:03:02Z</time>
      </trkpt>
      <trkpt lat="43.69214" lon="4.63849">
        <ele>48.75</ele>
        <time>2019-04-29T13:03:13Z</time>
      </trkpt>
      <trkpt lat="43.69172" lon="4.6382">
        <ele>48.152</ele>
        <time>2019-04-29T13:03:23Z</time>
      </trkpt>
      <trkpt lat="43.69127" lon="4.63792">
        <ele>51.062</ele>
        <time>2019-04-29T13:03:33Z</time>
      </trkpt>
      <trkpt lat="43.69073" lon="4.63756">
        <ele>51.42</ele>
        <time>2019-04-29T13:03:44Z</time>
      </trkpt>
      <trkpt lat="43.69022" lon="4.63724">
        <ele>51.073</ele>
        <time>2019-04-29T13:03:54Z</time>
      </trkpt>
      <trkpt lat="43.68966" lon="4.63686">
        <ele>49.891</ele>
        <time>2019-04-29T13:04:05Z</time>
      </trkpt>
      <trkpt lat="43.68916" lon="4.63653">
        <ele>48.836</ele>
        <time>2019-04-29T13:04:15Z</time>
      </trkpt>
      <trkpt lat="43.68864" lon="4.63618">
        <ele>49.146</ele>
        <time>2019-04-29T13:04:26Z</time>
      </trkpt>
      <trkpt lat="43.68813" lon="4.63584">
        <ele>48.956</ele>
        <time>2019-04-29T13:04:37Z</time>
      </trkpt>
      <trkpt lat="43.68764" lon="4.63554">
        <ele>49.89</ele>
        <time>2019-04-29T13:04:47Z</time>
      </trkpt>
      <trkpt lat="43.68709" lon="4.63518">
        <ele>47.705</ele>
        <time>2019-04-29T13:04:58Z</time>
      </trkpt>
      <trkpt lat="43.68657" lon="4.63488">
        <ele>49.256</ele>
        <time>2019-04-29T13:05:08Z</time>
      </trkpt>
      <trkpt lat="43.68612" lon="4.63455">
        <ele>48.727</ele>
        <time>2019-04-29T13:05:18Z</time>
      </trkpt>
      <trkpt lat="43.68582" lon="4.63435">
        <ele>49.182</ele>
        <time>2019-04-29T13:05:28Z</time>
      </trkpt>
      <trkpt lat="43.68562" lon="4.63412">
        <ele>49.576</ele>
        <time>2019-04-29T13:05:39Z</time>
      </trkpt>
      <trkpt lat="43.68538" lon="4.63379">
        <ele>48.965</ele>
        <time>2019-04-29T13:05:49Z</time>
      </trkpt>
      <trkpt lat="43.68499" lon="4.63337">
        <ele>52.174</ele>
        <time>2019-04-29T13:05:59Z</time>
      </trkpt>
      <trkpt lat="43.6846" lon="4.63285">
        <ele>51.676</ele>
        <time>2019-04-29T13:06:10Z</time>
      </trkpt>
      <trkpt lat="43.68409" lon="4.63285">
        <ele>54.019</ele>
        <time>2019-04-29T13:06:20Z</time>
      </trkpt>
      <trkpt lat="43.68367" lon="4.63291">
        <ele>59.166</ele>
        <time>2019-04-29T13:06:30Z</time>
      </trkpt>
      <trkpt lat="43.68322" lon="4.63259">
        <ele>62.174</ele>
        <time>2019-04-29T13:06:40Z</time>
      </trkpt>
      <trkpt lat="43.68264" lon="4.63226">
        <ele>57.693</ele>
        <time>2019-04-29T13:06:52Z</time>
      </trkpt>
      <trkpt lat="43.68224" lon="4.63199">
        <ele>55.046</ele>
        <time>2019-04-29T13:07:02Z</time>
      </trkpt>
      <trkpt lat="43.68191" lon="4.63161">
        <ele>57.266</ele>
        <time>2019-04-29T13:07:13Z</time>
      </trkpt>
      <trkpt lat="43.68213" lon="4.63126">
        <ele>56.545</ele>
        <time>2019-04-29T13:07:23Z</time>
      </trkpt>
      <trkpt lat="43.68243" lon="4.63115">
        <ele>56.607</ele>
        <time>2019-04-29T13:07:34Z</time>
      </trkpt>
      <trkpt lat="43.68269" lon="4.63134">
        <ele>57.153</ele>
        <time>2019-04-29T13:07:44Z</time>
      </trkpt>
      <trkpt lat="43.68309" lon="4.63153">
        <ele>57.995</ele>
        <time>2019-04-29T13:07:54Z</time>
      </trkpt>
      <trkpt lat="43.68345" lon="4.63166">
        <ele>59.217</ele>
        <time>2019-04-29T13:08:05Z</time>
      </trkpt>
      <trkpt lat="43.68382" lon="4.6318">
        <ele>61.673</ele>
        <time>2019-04-29T13:08:16Z</time>
      </trkpt>
      <trkpt lat="43.68421" lon="4.63179">
        <ele>63.747</ele>
        <time>2019-04-29T13:08:27Z</time>
      </trkpt>
      <trkpt lat="43.68446" lon="4.63186">
        <ele>65.527</ele>
        <time>2019-04-29T13:08:37Z</time>
      </trkpt>
      <trkpt lat="43.68476" lon="4.63185">
        <ele>64.811</ele>
        <time>2019-04-29T13:08:48Z</time>
      </trkpt>
      <trkpt lat="43.68484" lon="4.63192">
        <ele>64.603</ele>
        <time>2019-04-29T13:08:59Z</time>
      </trkpt>
      <trkpt lat="43.68484" lon="4.63192">
        <ele>63.983</ele>
        <time>2019-04-29T13:09:10Z</time>
      </trkpt>
      <trkpt lat="43.68484" lon="4.63192">
        <ele>63.015</ele>
        <time>2019-04-29T13:09:20Z</time>
      </trkpt>
      <trkpt lat="43.68484" lon="4.63192">
        <ele>62.346</ele>
        <time>2019-04-29T13:09:31Z</time>
      </trkpt>
      <trkpt lat="43.68481" lon="4.63198">
        <ele>61.993</ele>
        <time>2019-04-29T13:09:41Z</time>
      </trkpt>
      <trkpt lat="43.68482" lon="4.632">
        <ele>61.15</ele>
        <time>2019-04-29T13:09:52Z</time>
      </trkpt>
      <trkpt lat="43.68482" lon="4.632">
        <ele>60.74</ele>
        <time>2019-04-29T13:10:02Z</time>
      </trkpt>
      <trkpt lat="43.68482" lon="4.632">
        <ele>60.146</ele>
        <time>2019-04-29T13:10:13Z</time>
      </trkpt>
      <trkpt lat="43.68482" lon="4.632">
        <ele>59.521</ele>
        <time>2019-04-29T13:10:23Z</time>
      </trkpt>
      <trkpt lat="43.68482" lon="4.632">
        <ele>58.908</ele>
        <time>2019-04-29T13:10:34Z</time>
      </trkpt>
      <trkpt lat="43.68477" lon="4.63202">
        <ele>58.3</ele>
        <time>2019-04-29T13:10:45Z</time>
      </trkpt>
      <trkpt lat="43.68475" lon="4.63205">
        <ele>57.668</ele>
        <time>2019-04-29T13:10:56Z</time>
      </trkpt>
      <trkpt lat="43.68475" lon="4.63204">
        <ele>57.076</ele>
        <time>2019-04-29T13:11:06Z</time>
      </trkpt>
      <trkpt lat="43.68475" lon="4.63204">
        <ele>56.6</ele>
        <time>2019-04-29T13:11:17Z</time>
      </trkpt>
      <trkpt lat="43.68475" lon="4.63204">
        <ele>56.383</ele>
        <time>2019-04-29T13:11:27Z</time>
      </trkpt>
      <trkpt lat="43.68475" lon="4.63205">
        <ele>56.104</ele>
        <time>2019-04-29T13:11:38Z</time>
      </trkpt>
      <trkpt lat="43.68474" lon="4.63206">
        <ele>56.06</ele>
        <time>2019-04-29T13:11:48Z</time>
      </trkpt>
      <trkpt lat="43.68474" lon="4.63207">
        <ele>55.868</ele>
        <time>2019-04-29T13:11:59Z</time>
      </trkpt>
      <trkpt lat="43.68473" lon="4.63207">
        <ele>55.766</ele>
        <time>2019-04-29T13:12:09Z</time>
      </trkpt>
      <trkpt lat="43.68472" lon="4.63208">
        <ele>55.764</ele>
        <time>2019-04-29T13:12:19Z</time>
      </trkpt>
      <trkpt lat="43.68472" lon="4.63208">
        <ele>55.857</ele>
        <time>2019-04-29T13:12:30Z</time>
      </trkpt>
      <trkpt lat="43.68472" lon="4.63205">
        <ele>55.892</ele>
        <time>2019-04-29T13:12:40Z</time>
      </trkpt>
      <trkpt lat="43.68475" lon="4.63206">
        <ele>55.8</ele>
        <time>2019-04-29T13:12:51Z</time>
      </trkpt>
      <trkpt lat="43.68476" lon="4.63206">
        <ele>55.628</ele>
        <time>2019-04-29T13:13:01Z</time>
      </trkpt>
      <trkpt lat="43.68478" lon="4.63206">
        <ele>55.369</ele>
        <time>2019-04-29T13:13:12Z</time>
      </trkpt>
      <trkpt lat="43.6848" lon="4.63203">
        <ele>55.408</ele>
        <time>2019-04-29T13:13:22Z</time>
      </trkpt>
      <trkpt lat="43.68479" lon="4.63201">
        <ele>55.732</ele>
        <time>2019-04-29T13:13:33Z</time>
      </trkpt>
      <trkpt lat="43.68479" lon="4.63199">
        <ele>55.861</ele>
        <time>2019-04-29T13:13:44Z</time>
      </trkpt>
      <trkpt lat="43.68479" lon="4.63198">
        <ele>56.086</ele>
        <time>2019-04-29T13:13:55Z</time>
      </trkpt>
      <trkpt lat="43.6848" lon="4.63196">
        <ele>56.356</ele>
        <time>2019-04-29T13:14:05Z</time>
      </trkpt>
      <trkpt lat="43.68481" lon="4.63196">
        <ele>56.564</ele>
        <time>2019-04-29T13:14:15Z</time>
      </trkpt>
      <trkpt lat="43.68481" lon="4.63195">
        <ele>56.727</ele>
        <time>2019-04-29T13:14:25Z</time>
      </trkpt>
      <trkpt lat="43.68481" lon="4.63194">
        <ele>56.869</ele>
        <time>2019-04-29T13:14:35Z</time>
      </trkpt>
      <trkpt lat="43.68486" lon="4.63197">
        <ele>60.4</ele>
        <time>2019-04-29T13:14:46Z</time>
      </trkpt>
      <trkpt lat="43.68481" lon="4.63193">
        <ele>57.244</ele>
        <time>2019-04-29T13:14:56Z</time>
      </trkpt>
      <trkpt lat="43.68481" lon="4.63193">
        <ele>57.58</ele>
        <time>2019-04-29T13:15:07Z</time>
      </trkpt>
      <trkpt lat="43.68481" lon="4.63192">
        <ele>58.081</ele>
        <time>2019-04-29T13:15:17Z</time>
      </trkpt>
      <trkpt lat="43.68483" lon="4.63191">
        <ele>58.499</ele>
        <time>2019-04-29T13:15:28Z</time>
      </trkpt>
      <trkpt lat="43.68485" lon="4.6319">
        <ele>58.814</ele>
        <time>2019-04-29T13:15:39Z</time>
      </trkpt>
      <trkpt lat="43.68484" lon="4.6319">
        <ele>58.865</ele>
        <time>2019-04-29T13:15:46Z</time>
      </trkpt>
      <trkpt lat="43.68484" lon="4.63191">
        <ele>58.953</ele>
        <time>2019-04-29T13:15:52Z</time>
      </trkpt>
      <trkpt lat="43.68485" lon="4.63189">
        <ele>59.375</ele>
        <time>2019-04-29T13:15:57Z</time>
      </trkpt>
      <trkpt lat="43.68487" lon="4.63192">
        <ele>59.699</ele>
        <time>2019-04-29T13:16:02Z</time>
      </trkpt>
      <trkpt lat="43.68488" lon="4.63194">
        <ele>60.007</ele>
        <time>2019-04-29T13:16:08Z</time>
      </trkpt>
      <trkpt lat="43.68489" lon="4.63193">
        <ele>60.193</ele>
        <time>2019-04-29T13:16:14Z</time>
      </trkpt>
      <trkpt lat="43.68488" lon="4.63189">
        <ele>60.364</ele>
        <time>2019-04-29T13:16:20Z</time>
      </trkpt>
      <trkpt lat="43.68487" lon="4.63186">
        <ele>60.35</ele>
        <time>2019-04-29T13:16:25Z</time>
      </trkpt>
      <trkpt lat="43.68487" lon="4.63186">
        <ele>60.335</ele>
        <time>2019-04-29T13:16:31Z</time>
      </trkpt>
      <trkpt lat="43.68487" lon="4.63186">
        <ele>60.315</ele>
        <time>2019-04-29T13:16:36Z</time>
      </trkpt>
      <trkpt lat="43.68487" lon="4.63187">
        <ele>60.276</ele>
        <time>2019-04-29T13:16:42Z</time>
      </trkpt>
      <trkpt lat="43.68487" lon="4.63179">
        <ele>59.735</ele>
        <time>2019-04-29T13:16:48Z</time>
      </trkpt>
      <trkpt lat="43.68483" lon="4.63176">
        <ele>59.213</ele>
        <time>2019-04-29T13:16:53Z</time>
      </trkpt>
      <trkpt lat="43.68469" lon="4.63178">
        <ele>59.038</ele>
        <time>2019-04-29T13:16:58Z</time>
      </trkpt>
      <trkpt lat="43.68446" lon="4.63181">
        <ele>59.483</ele>
        <time>2019-04-29T13:17:04Z</time>
      </trkpt>
      <trkpt lat="43.68427" lon="4.63185">
        <ele>59.859</ele>
        <time>2019-04-29T13:17:09Z</time>
      </trkpt>
      <trkpt lat="43.68405" lon="4.63185">
        <ele>59.885</ele>
        <time>2019-04-29T13:17:15Z</time>
      </trkpt>
      <trkpt lat="43.68385" lon="4.6318">
        <ele>60.34</ele>
        <time>2019-04-29T13:17:20Z</time>
      </trkpt>
      <trkpt lat="43.68354" lon="4.63167">
        <ele>60.807</ele>
        <time>2019-04-29T13:17:26Z</time>
      </trkpt>
      <trkpt lat="43.68327" lon="4.63158">
        <ele>64.815</ele>
        <time>2019-04-29T13:17:31Z</time>
      </trkpt>
      <trkpt lat="43.68295" lon="4.63141">
        <ele>66.39</ele>
        <time>2019-04-29T13:17:37Z</time>
      </trkpt>
      <trkpt lat="43.68248" lon="4.63117">
        <ele>63.231</ele>
        <time>2019-04-29T13:17:43Z</time>
      </trkpt>
      <trkpt lat="43.68227" lon="4.63105">
        <ele>59.139</ele>
        <time>2019-04-29T13:17:48Z</time>
      </trkpt>
      <trkpt lat="43.68208" lon="4.63117">
        <ele>56.472</ele>
        <time>2019-04-29T13:17:53Z</time>
      </trkpt>
      <trkpt lat="43.6819" lon="4.63133">
        <ele>54.555</ele>
        <time>2019-04-29T13:17:58Z</time>
      </trkpt>
      <trkpt lat="43.6817" lon="4.63134">
        <ele>54.463</ele>
        <time>2019-04-29T13:18:04Z</time>
      </trkpt>
      <trkpt lat="43.6815" lon="4.63135">
        <ele>53.965</ele>
        <time>2019-04-29T13:18:10Z</time>
      </trkpt>
      <trkpt lat="43.6813" lon="4.63135">
        <ele>53.48</ele>
        <time>2019-04-29T13:18:15Z</time>
      </trkpt>
      <trkpt lat="43.68118" lon="4.63129">
        <ele>53.459</ele>
        <time>2019-04-29T13:18:21Z</time>
      </trkpt>
      <trkpt lat="43.6811" lon="4.63127">
        <ele>53.199</ele>
        <time>2019-04-29T13:18:27Z</time>
      </trkpt>
      <trkpt lat="43.68092" lon="4.63127">
        <ele>52.909</ele>
        <time>2019-04-29T13:18:33Z</time>
      </trkpt>
      <trkpt lat="43.68075" lon="4.63125">
        <ele>52.644</ele>
        <time>2019-04-29T13:18:39Z</time>
      </trkpt>
      <trkpt lat="43.68063" lon="4.63127">
        <ele>52.436</ele>
        <time>2019-04-29T13:18:44Z</time>
      </trkpt>
      <trkpt lat="43.68043" lon="4.63129">
        <ele>52.206</ele>
        <time>2019-04-29T13:18:50Z</time>
      </trkpt>
      <trkpt lat="43.6803" lon="4.63123">
        <ele>52.427</ele>
        <time>2019-04-29T13:18:55Z</time>
      </trkpt>
      <trkpt lat="43.68021" lon="4.63121">
        <ele>52.788</ele>
        <time>2019-04-29T13:19:00Z</time>
      </trkpt>
      <trkpt lat="43.68012" lon="4.6312">
        <ele>53.32</ele>
        <time>2019-04-29T13:19:06Z</time>
      </trkpt>
      <trkpt lat="43.68" lon="4.63118">
        <ele>53.686</ele>
        <time>2019-04-29T13:19:11Z</time>
      </trkpt>
      <trkpt lat="43.67989" lon="4.63115">
        <ele>54.008</ele>
        <time>2019-04-29T13:19:17Z</time>
      </trkpt>
      <trkpt lat="43.67976" lon="4.6311">
        <ele>54.246</ele>
        <time>2019-04-29T13:19:23Z</time>
      </trkpt>
      <trkpt lat="43.67964" lon="4.63106">
        <ele>54.239</ele>
        <time>2019-04-29T13:19:28Z</time>
      </trkpt>
      <trkpt lat="43.67952" lon="4.63105">
        <ele>53.953</ele>
        <time>2019-04-29T13:19:33Z</time>
      </trkpt>
      <trkpt lat="43.67942" lon="4.63101">
        <ele>52.317</ele>
        <time>2019-04-29T13:19:39Z</time>
      </trkpt>
      <trkpt lat="43.67937" lon="4.63098">
        <ele>51.948</ele>
        <time>2019-04-29T13:19:44Z</time>
      </trkpt>
      <trkpt lat="43.67926" lon="4.63092">
        <ele>51.504</ele>
        <time>2019-04-29T13:19:50Z</time>
      </trkpt>
      <trkpt lat="43.67915" lon="4.63089">
        <ele>50.396</ele>
        <time>2019-04-29T13:19:56Z</time>
      </trkpt>
      <trkpt lat="43.67897" lon="4.63086">
        <ele>49.321</ele>
        <time>2019-04-29T13:20:02Z</time>
      </trkpt>
      <trkpt lat="43.6788" lon="4.6308">
        <ele>48.946</ele>
        <time>2019-04-29T13:20:07Z</time>
      </trkpt>
      <trkpt lat="43.67871" lon="4.63072">
        <ele>48.661</ele>
        <time>2019-04-29T13:20:13Z</time>
      </trkpt>
      <trkpt lat="43.67864" lon="4.63073">
        <ele>48.087</ele>
        <time>2019-04-29T13:20:19Z</time>
      </trkpt>
      <trkpt lat="43.67861" lon="4.63074">
        <ele>48.881</ele>
        <time>2019-04-29T13:20:24Z</time>
      </trkpt>
      <trkpt lat="43.6786" lon="4.63066">
        <ele>50.607</ele>
        <time>2019-04-29T13:20:30Z</time>
      </trkpt>
      <trkpt lat="43.6786" lon="4.63055">
        <ele>52.046</ele>
        <time>2019-04-29T13:20:35Z</time>
      </trkpt>
      <trkpt lat="43.67855" lon="4.63048">
        <ele>53.575</ele>
        <time>2019-04-29T13:20:41Z</time>
      </trkpt>
      <trkpt lat="43.67857" lon="4.63045">
        <ele>54.486</ele>
        <time>2019-04-29T13:20:46Z</time>
      </trkpt>
      <trkpt lat="43.67861" lon="4.63051">
        <ele>55.069</ele>
        <time>2019-04-29T13:20:52Z</time>
      </trkpt>
      <trkpt lat="43.6786" lon="4.63055">
        <ele>55.588</ele>
        <time>2019-04-29T13:20:58Z</time>
      </trkpt>
      <trkpt lat="43.67862" lon="4.63065">
        <ele>56.495</ele>
        <time>2019-04-29T13:21:04Z</time>
      </trkpt>
      <trkpt lat="43.6786" lon="4.63081">
        <ele>58.518</ele>
        <time>2019-04-29T13:21:10Z</time>
      </trkpt>
      <trkpt lat="43.67859" lon="4.63088">
        <ele>59.857</ele>
        <time>2019-04-29T13:21:16Z</time>
      </trkpt>
      <trkpt lat="43.67854" lon="4.63109">
        <ele>60.625</ele>
        <time>2019-04-29T13:21:22Z</time>
      </trkpt>
      <trkpt lat="43.67848" lon="4.6313">
        <ele>61.129</ele>
        <time>2019-04-29T13:21:27Z</time>
      </trkpt>
      <trkpt lat="43.67847" lon="4.63141">
        <ele>61.183</ele>
        <time>2019-04-29T13:21:32Z</time>
      </trkpt>
      <trkpt lat="43.67834" lon="4.63152">
        <ele>61.291</ele>
        <time>2019-04-29T13:21:38Z</time>
      </trkpt>
      <trkpt lat="43.67819" lon="4.63156">
        <ele>61.567</ele>
        <time>2019-04-29T13:21:43Z</time>
      </trkpt>
      <trkpt lat="43.67805" lon="4.6316">
        <ele>62.356</ele>
        <time>2019-04-29T13:21:49Z</time>
      </trkpt>
      <trkpt lat="43.6779" lon="4.63163">
        <ele>62.853</ele>
        <time>2019-04-29T13:21:55Z</time>
      </trkpt>
      <trkpt lat="43.67781" lon="4.63169">
        <ele>64.538</ele>
        <time>2019-04-29T13:22:01Z</time>
      </trkpt>
      <trkpt lat="43.67768" lon="4.63175">
        <ele>64.727</ele>
        <time>2019-04-29T13:22:06Z</time>
      </trkpt>
      <trkpt lat="43.67756" lon="4.63181">
        <ele>64.857</ele>
        <time>2019-04-29T13:22:12Z</time>
      </trkpt>
      <trkpt lat="43.67747" lon="4.63178">
        <ele>65.108</ele>
        <time>2019-04-29T13:22:17Z</time>
      </trkpt>
      <trkpt lat="43.67739" lon="4.63175">
        <ele>65.442</ele>
        <time>2019-04-29T13:22:23Z</time>
      </trkpt>
      <trkpt lat="43.67745" lon="4.63179">
        <ele>65.641</ele>
        <time>2019-04-29T13:22:29Z</time>
      </trkpt>
      <trkpt lat="43.67744" lon="4.63183">
        <ele>65.873</ele>
        <time>2019-04-29T13:22:35Z</time>
      </trkpt>
      <trkpt lat="43.67743" lon="4.63185">
        <ele>66.065</ele>
        <time>2019-04-29T13:22:40Z</time>
      </trkpt>
      <trkpt lat="43.67746" lon="4.63194">
        <ele>66.739</ele>
        <time>2019-04-29T13:22:46Z</time>
      </trkpt>
      <trkpt lat="43.67747" lon="4.63211">
        <ele>67.379</ele>
        <time>2019-04-29T13:22:52Z</time>
      </trkpt>
      <trkpt lat="43.67751" lon="4.63232">
        <ele>68.809</ele>
        <time>2019-04-29T13:22:58Z</time>
      </trkpt>
      <trkpt lat="43.67756" lon="4.63251">
        <ele>71.417</ele>
        <time>2019-04-29T13:23:04Z</time>
      </trkpt>
      <trkpt lat="43.67735" lon="4.63245">
        <ele>73.259</ele>
        <time>2019-04-29T13:23:09Z</time>
      </trkpt>
      <trkpt lat="43.67719" lon="4.63243">
        <ele>73.491</ele>
        <time>2019-04-29T13:23:15Z</time>
      </trkpt>
      <trkpt lat="43.67703" lon="4.63239">
        <ele>73.737</ele>
        <time>2019-04-29T13:23:21Z</time>
      </trkpt>
      <trkpt lat="43.67688" lon="4.63234">
        <ele>73.859</ele>
        <time>2019-04-29T13:23:26Z</time>
      </trkpt>
      <trkpt lat="43.67675" lon="4.63227">
        <ele>74.139</ele>
        <time>2019-04-29T13:23:31Z</time>
      </trkpt>
      <trkpt lat="43.67661" lon="4.63221">
        <ele>74.507</ele>
        <time>2019-04-29T13:23:37Z</time>
      </trkpt>
      <trkpt lat="43.67652" lon="4.63215">
        <ele>74.836</ele>
        <time>2019-04-29T13:23:42Z</time>
      </trkpt>
      <trkpt lat="43.67644" lon="4.63208">
        <ele>75.075</ele>
        <time>2019-04-29T13:23:48Z</time>
      </trkpt>
      <trkpt lat="43.67637" lon="4.63199">
        <ele>75.049</ele>
        <time>2019-04-29T13:23:53Z</time>
      </trkpt>
      <trkpt lat="43.67628" lon="4.63184">
        <ele>74.865</ele>
        <time>2019-04-29T13:23:58Z</time>
      </trkpt>
      <trkpt lat="43.67626" lon="4.6317">
        <ele>74.624</ele>
        <time>2019-04-29T13:24:04Z</time>
      </trkpt>
      <trkpt lat="43.67623" lon="4.63167">
        <ele>74.365</ele>
        <time>2019-04-29T13:24:10Z</time>
      </trkpt>
      <trkpt lat="43.67627" lon="4.63165">
        <ele>74.089</ele>
        <time>2019-04-29T13:24:16Z</time>
      </trkpt>
      <trkpt lat="43.67634" lon="4.63167">
        <ele>74.217</ele>
        <time>2019-04-29T13:24:21Z</time>
      </trkpt>
      <trkpt lat="43.67646" lon="4.63167">
        <ele>74.513</ele>
        <time>2019-04-29T13:24:27Z</time>
      </trkpt>
      <trkpt lat="43.67655" lon="4.6317">
        <ele>75.068</ele>
        <time>2019-04-29T13:24:33Z</time>
      </trkpt>
      <trkpt lat="43.67657" lon="4.6317">
        <ele>74.997</ele>
        <time>2019-04-29T13:24:38Z</time>
      </trkpt>
      <trkpt lat="43.6765" lon="4.63166">
        <ele>74.759</ele>
        <time>2019-04-29T13:24:43Z</time>
      </trkpt>
      <trkpt lat="43.67647" lon="4.63163">
        <ele>73.826</ele>
        <time>2019-04-29T13:24:49Z</time>
      </trkpt>
      <trkpt lat="43.6765" lon="4.63147">
        <ele>72.602</ele>
        <time>2019-04-29T13:24:55Z</time>
      </trkpt>
      <trkpt lat="43.67651" lon="4.63132">
        <ele>71.602</ele>
        <time>2019-04-29T13:25:00Z</time>
      </trkpt>
      <trkpt lat="43.67651" lon="4.63111">
        <ele>68.509</ele>
        <time>2019-04-29T13:25:05Z</time>
      </trkpt>
      <trkpt lat="43.67651" lon="4.63089">
        <ele>67.142</ele>
        <time>2019-04-29T13:25:11Z</time>
      </trkpt>
      <trkpt lat="43.67659" lon="4.63069">
        <ele>66.108</ele>
        <time>2019-04-29T13:25:17Z</time>
      </trkpt>
      <trkpt lat="43.67657" lon="4.63054">
        <ele>65.524</ele>
        <time>2019-04-29T13:25:22Z</time>
      </trkpt>
      <trkpt lat="43.6766" lon="4.63047">
        <ele>65.071</ele>
        <time>2019-04-29T13:25:28Z</time>
      </trkpt>
      <trkpt lat="43.67669" lon="4.63045">
        <ele>65.286</ele>
        <time>2019-04-29T13:25:39Z</time>
      </trkpt>
      <trkpt lat="43.67669" lon="4.63045">
        <ele>65.392</ele>
        <time>2019-04-29T13:25:50Z</time>
      </trkpt>
      <trkpt lat="43.67671" lon="4.63046">
        <ele>66.287</ele>
        <time>2019-04-29T13:26:00Z</time>
      </trkpt>
      <trkpt lat="43.67675" lon="4.63043">
        <ele>67.472</ele>
        <time>2019-04-29T13:26:11Z</time>
      </trkpt>
      <trkpt lat="43.6768" lon="4.63041">
        <ele>68.74</ele>
        <time>2019-04-29T13:26:22Z</time>
      </trkpt>
      <trkpt lat="43.67683" lon="4.63042">
        <ele>69.675</ele>
        <time>2019-04-29T13:26:33Z</time>
      </trkpt>
      <trkpt lat="43.67683" lon="4.63042">
        <ele>69.86</ele>
        <time>2019-04-29T13:26:43Z</time>
      </trkpt>
      <trkpt lat="43.67683" lon="4.63042">
        <ele>70.1</ele>
        <time>2019-04-29T13:26:54Z</time>
      </trkpt>
      <trkpt lat="43.67683" lon="4.63042">
        <ele>70.32</ele>
        <time>2019-04-29T13:27:05Z</time>
      </trkpt>
      <trkpt lat="43.6768" lon="4.63037">
        <ele>72.985</ele>
        <time>2019-04-29T13:27:15Z</time>
      </trkpt>
      <trkpt lat="43.67681" lon="4.63039">
        <ele>75.054</ele>
        <time>2019-04-29T13:27:26Z</time>
      </trkpt>
      <trkpt lat="43.67685" lon="4.6303">
        <ele>75.751</ele>
        <time>2019-04-29T13:27:36Z</time>
      </trkpt>
      <trkpt lat="43.67697" lon="4.62992">
        <ele>76.959</ele>
        <time>2019-04-29T13:27:47Z</time>
      </trkpt>
      <trkpt lat="43.677" lon="4.62961">
        <ele>78.606</ele>
        <time>2019-04-29T13:27:58Z</time>
      </trkpt>
      <trkpt lat="43.67699" lon="4.62935">
        <ele>78.124</ele>
        <time>2019-04-29T13:28:08Z</time>
      </trkpt>
      <trkpt lat="43.67697" lon="4.62908">
        <ele>77.133</ele>
        <time>2019-04-29T13:28:18Z</time>
      </trkpt>
      <trkpt lat="43.67698" lon="4.62851">
        <ele>73.142</ele>
        <time>2019-04-29T13:28:29Z</time>
      </trkpt>
      <trkpt lat="43.67696" lon="4.62801">
        <ele>72.316</ele>
        <time>2019-04-29T13:28:40Z</time>
      </trkpt>
      <trkpt lat="43.67683" lon="4.62776">
        <ele>71.321</ele>
        <time>2019-04-29T13:28:51Z</time>
      </trkpt>
      <trkpt lat="43.67662" lon="4.62764">
        <ele>71.151</ele>
        <time>2019-04-29T13:29:01Z</time>
      </trkpt>
      <trkpt lat="43.67647" lon="4.62735">
        <ele>71.157</ele>
        <time>2019-04-29T13:29:12Z</time>
      </trkpt>
      <trkpt lat="43.67637" lon="4.62739">
        <ele>70.702</ele>
        <time>2019-04-29T13:29:23Z</time>
      </trkpt>
      <trkpt lat="43.67636" lon="4.62739">
        <ele>70.507</ele>
        <time>2019-04-29T13:29:34Z</time>
      </trkpt>
      <trkpt lat="43.67637" lon="4.6274">
        <ele>70.331</ele>
        <time>2019-04-29T13:29:44Z</time>
      </trkpt>
      <trkpt lat="43.67638" lon="4.62741">
        <ele>69.649</ele>
        <time>2019-04-29T13:29:55Z</time>
      </trkpt>
      <trkpt lat="43.67637" lon="4.62739">
        <ele>65.61</ele>
        <time>2019-04-29T13:30:05Z</time>
      </trkpt>
      <trkpt lat="43.67639" lon="4.62742">
        <ele>65.71</ele>
        <time>2019-04-29T13:30:15Z</time>
      </trkpt>
      <trkpt lat="43.67634" lon="4.62745">
        <ele>65.935</ele>
        <time>2019-04-29T13:30:26Z</time>
      </trkpt>
      <trkpt lat="43.67635" lon="4.62735">
        <ele>65.828</ele>
        <time>2019-04-29T13:30:36Z</time>
      </trkpt>
      <trkpt lat="43.67635" lon="4.62735">
        <ele>65.833</ele>
        <time>2019-04-29T13:30:47Z</time>
      </trkpt>
      <trkpt lat="43.67635" lon="4.62736">
        <ele>65.706</ele>
        <time>2019-04-29T13:30:57Z</time>
      </trkpt>
      <trkpt lat="43.67635" lon="4.62736">
        <ele>65.44</ele>
        <time>2019-04-29T13:31:07Z</time>
      </trkpt>
      <trkpt lat="43.67635" lon="4.62735">
        <ele>65.231</ele>
        <time>2019-04-29T13:31:17Z</time>
      </trkpt>
      <trkpt lat="43.67636" lon="4.62736">
        <ele>65.132</ele>
        <time>2019-04-29T13:31:28Z</time>
      </trkpt>
      <trkpt lat="43.67651" lon="4.62738">
        <ele>64.794</ele>
        <time>2019-04-29T13:31:39Z</time>
      </trkpt>
      <trkpt lat="43.67668" lon="4.62772">
        <ele>65.447</ele>
        <time>2019-04-29T13:31:50Z</time>
      </trkpt>
      <trkpt lat="43.67692" lon="4.62779">
        <ele>65.531</ele>
        <time>2019-04-29T13:32:01Z</time>
      </trkpt>
      <trkpt lat="43.67712" lon="4.62816">
        <ele>65.288</ele>
        <time>2019-04-29T13:32:12Z</time>
      </trkpt>
      <trkpt lat="43.67708" lon="4.62851">
        <ele>64.585</ele>
        <time>2019-04-29T13:32:23Z</time>
      </trkpt>
      <trkpt lat="43.67709" lon="4.62877">
        <ele>64.287</ele>
        <time>2019-04-29T13:32:33Z</time>
      </trkpt>
      <trkpt lat="43.67709" lon="4.62906">
        <ele>63.253</ele>
        <time>2019-04-29T13:32:43Z</time>
      </trkpt>
      <trkpt lat="43.67708" lon="4.62945">
        <ele>59.766</ele>
        <time>2019-04-29T13:32:54Z</time>
      </trkpt>
      <trkpt lat="43.67706" lon="4.62958">
        <ele>59.997</ele>
        <time>2019-04-29T13:33:04Z</time>
      </trkpt>
      <trkpt lat="43.6771" lon="4.62982">
        <ele>60.069</ele>
        <time>2019-04-29T13:33:15Z</time>
      </trkpt>
      <trkpt lat="43.677" lon="4.63023">
        <ele>60.39</ele>
        <time>2019-04-29T13:33:25Z</time>
      </trkpt>
      <trkpt lat="43.67686" lon="4.63046">
        <ele>61.892</ele>
        <time>2019-04-29T13:33:36Z</time>
      </trkpt>
      <trkpt lat="43.67684" lon="4.63045">
        <ele>62.257</ele>
        <time>2019-04-29T13:33:47Z</time>
      </trkpt>
      <trkpt lat="43.67684" lon="4.63038">
        <ele>66.497</ele>
        <time>2019-04-29T13:33:58Z</time>
      </trkpt>
      <trkpt lat="43.67682" lon="4.63044">
        <ele>68.075</ele>
        <time>2019-04-29T13:34:08Z</time>
      </trkpt>
      <trkpt lat="43.67685" lon="4.63027">
        <ele>71.411</ele>
        <time>2019-04-29T13:34:19Z</time>
      </trkpt>
      <trkpt lat="43.67683" lon="4.63028">
        <ele>75.352</ele>
        <time>2019-04-29T13:34:29Z</time>
      </trkpt>
      <trkpt lat="43.67677" lon="4.6304">
        <ele>77.105</ele>
        <time>2019-04-29T13:34:42Z</time>
      </trkpt>
      <trkpt lat="43.67692" lon="4.63031">
        <ele>79.15</ele>
        <time>2019-04-29T13:38:56Z</time>
      </trkpt>
      <trkpt lat="43.67681" lon="4.63043">
        <ele>78.74</ele>
        <time>2019-04-29T13:39:06Z</time>
      </trkpt>
      <trkpt lat="43.67676" lon="4.6304">
        <ele>78.088</ele>
        <time>2019-04-29T13:39:16Z</time>
      </trkpt>
      <trkpt lat="43.67662" lon="4.63046">
        <ele>76.742</ele>
        <time>2019-04-29T13:39:27Z</time>
      </trkpt>
      <trkpt lat="43.6766" lon="4.63067">
        <ele>75.736</ele>
        <time>2019-04-29T13:39:37Z</time>
      </trkpt>
      <trkpt lat="43.67661" lon="4.63073">
        <ele>76.159</ele>
        <time>2019-04-29T13:39:48Z</time>
      </trkpt>
      <trkpt lat="43.67665" lon="4.63083">
        <ele>77.044</ele>
        <time>2019-04-29T13:39:58Z</time>
      </trkpt>
      <trkpt lat="43.67664" lon="4.63088">
        <ele>77.884</ele>
        <time>2019-04-29T13:40:09Z</time>
      </trkpt>
      <trkpt lat="43.67664" lon="4.63088">
        <ele>77.873</ele>
        <time>2019-04-29T13:40:19Z</time>
      </trkpt>
      <trkpt lat="43.67663" lon="4.63088">
        <ele>77.777</ele>
        <time>2019-04-29T13:40:30Z</time>
      </trkpt>
      <trkpt lat="43.67664" lon="4.63088">
        <ele>77.384</ele>
        <time>2019-04-29T13:40:40Z</time>
      </trkpt>
      <trkpt lat="43.67662" lon="4.63088">
        <ele>77.019</ele>
        <time>2019-04-29T13:40:52Z</time>
      </trkpt>
      <trkpt lat="43.67662" lon="4.63088">
        <ele>76.87</ele>
        <time>2019-04-29T13:41:02Z</time>
      </trkpt>
      <trkpt lat="43.67662" lon="4.63088">
        <ele>76.699</ele>
        <time>2019-04-29T13:41:12Z</time>
      </trkpt>
      <trkpt lat="43.67662" lon="4.63088">
        <ele>76.5</ele>
        <time>2019-04-29T13:41:23Z</time>
      </trkpt>
      <trkpt lat="43.67662" lon="4.63088">
        <ele>76.312</ele>
        <time>2019-04-29T13:41:34Z</time>
      </trkpt>
      <trkpt lat="43.67663" lon="4.63088">
        <ele>76.175</ele>
        <time>2019-04-29T13:41:45Z</time>
      </trkpt>
      <trkpt lat="43.67663" lon="4.63088">
        <ele>76.082</ele>
        <time>2019-04-29T13:41:56Z</time>
      </trkpt>
      <trkpt lat="43.67663" lon="4.63089">
        <ele>75.786</ele>
        <time>2019-04-29T13:42:07Z</time>
      </trkpt>
      <trkpt lat="43.67663" lon="4.63089">
        <ele>75.683</ele>
        <time>2019-04-29T13:42:18Z</time>
      </trkpt>
      <trkpt lat="43.67663" lon="4.63089">
        <ele>75.577</ele>
        <time>2019-04-29T13:42:28Z</time>
      </trkpt>
      <trkpt lat="43.67664" lon="4.63089">
        <ele>75.532</ele>
        <time>2019-04-29T13:42:39Z</time>
      </trkpt>
      <trkpt lat="43.67664" lon="4.63089">
        <ele>75.503</ele>
        <time>2019-04-29T13:42:50Z</time>
      </trkpt>
      <trkpt lat="43.67664" lon="4.63089">
        <ele>75.46</ele>
        <time>2019-04-29T13:43:00Z</time>
      </trkpt>
      <trkpt lat="43.67664" lon="4.63089">
        <ele>75.378</ele>
        <time>2019-04-29T13:43:11Z</time>
      </trkpt>
      <trkpt lat="43.67664" lon="4.63089">
        <ele>75.271</ele>
        <time>2019-04-29T13:43:22Z</time>
      </trkpt>
      <trkpt lat="43.67664" lon="4.63088">
        <ele>75.175</ele>
        <time>2019-04-29T13:43:33Z</time>
      </trkpt>
      <trkpt lat="43.67663" lon="4.63087">
        <ele>75.024</ele>
        <time>2019-04-29T13:43:44Z</time>
      </trkpt>
      <trkpt lat="43.67664" lon="4.63087">
        <ele>74.9</ele>
        <time>2019-04-29T13:43:55Z</time>
      </trkpt>
      <trkpt lat="43.67664" lon="4.63087">
        <ele>74.784</ele>
        <time>2019-04-29T13:44:05Z</time>
      </trkpt>
      <trkpt lat="43.67664" lon="4.63087">
        <ele>74.671</ele>
        <time>2019-04-29T13:44:15Z</time>
      </trkpt>
      <trkpt lat="43.67664" lon="4.63087">
        <ele>74.469</ele>
        <time>2019-04-29T13:44:26Z</time>
      </trkpt>
      <trkpt lat="43.67665" lon="4.63088">
        <ele>74.242</ele>
        <time>2019-04-29T13:44:37Z</time>
      </trkpt>
      <trkpt lat="43.67665" lon="4.63089">
        <ele>74.197</ele>
        <time>2019-04-29T13:44:48Z</time>
      </trkpt>
      <trkpt lat="43.67664" lon="4.6309">
        <ele>74.092</ele>
        <time>2019-04-29T13:44:59Z</time>
      </trkpt>
      <trkpt lat="43.67664" lon="4.6309">
        <ele>73.944</ele>
        <time>2019-04-29T13:45:10Z</time>
      </trkpt>
      <trkpt lat="43.67664" lon="4.6309">
        <ele>73.683</ele>
        <time>2019-04-29T13:45:21Z</time>
      </trkpt>
      <trkpt lat="43.67665" lon="4.63089">
        <ele>73.022</ele>
        <time>2019-04-29T13:45:31Z</time>
      </trkpt>
      <trkpt lat="43.67665" lon="4.63089">
        <ele>72.697</ele>
        <time>2019-04-29T13:45:41Z</time>
      </trkpt>
      <trkpt lat="43.67666" lon="4.63085">
        <ele>72.081</ele>
        <time>2019-04-29T13:45:52Z</time>
      </trkpt>
      <trkpt lat="43.67662" lon="4.63074">
        <ele>73.144</ele>
        <time>2019-04-29T13:46:03Z</time>
      </trkpt>
      <trkpt lat="43.67654" lon="4.63087">
        <ele>75.118</ele>
        <time>2019-04-29T13:46:13Z</time>
      </trkpt>
      <trkpt lat="43.67651" lon="4.63083">
        <ele>77.798</ele>
        <time>2019-04-29T13:46:25Z</time>
      </trkpt>
      <trkpt lat="43.67653" lon="4.63074">
        <ele>79.304</ele>
        <time>2019-04-29T13:46:35Z</time>
      </trkpt>
      <trkpt lat="43.67658" lon="4.63073">
        <ele>81.847</ele>
        <time>2019-04-29T13:46:45Z</time>
      </trkpt>
      <trkpt lat="43.67643" lon="4.63096">
        <ele>82.231</ele>
        <time>2019-04-29T13:47:20Z</time>
      </trkpt>
      <trkpt lat="43.67646" lon="4.63096">
        <ele>80.643</ele>
        <time>2019-04-29T13:47:30Z</time>
      </trkpt>
      <trkpt lat="43.67644" lon="4.63099">
        <ele>79.827</ele>
        <time>2019-04-29T13:47:41Z</time>
      </trkpt>
      <trkpt lat="43.67641" lon="4.63098">
        <ele>79.307</ele>
        <time>2019-04-29T13:47:52Z</time>
      </trkpt>
      <trkpt lat="43.67641" lon="4.63096">
        <ele>78.109</ele>
        <time>2019-04-29T13:48:04Z</time>
      </trkpt>
      <trkpt lat="43.67641" lon="4.63096">
        <ele>77.997</ele>
        <time>2019-04-29T13:48:14Z</time>
      </trkpt>
      <trkpt lat="43.67641" lon="4.63095">
        <ele>77.927</ele>
        <time>2019-04-29T13:48:25Z</time>
      </trkpt>
      <trkpt lat="43.67642" lon="4.63095">
        <ele>77.862</ele>
        <time>2019-04-29T13:48:36Z</time>
      </trkpt>
      <trkpt lat="43.67642" lon="4.63095">
        <ele>77.781</ele>
        <time>2019-04-29T13:48:47Z</time>
      </trkpt>
      <trkpt lat="43.67642" lon="4.63095">
        <ele>77.702</ele>
        <time>2019-04-29T13:48:58Z</time>
      </trkpt>
      <trkpt lat="43.67642" lon="4.63094">
        <ele>77.627</ele>
        <time>2019-04-29T13:49:08Z</time>
      </trkpt>
      <trkpt lat="43.67642" lon="4.63094">
        <ele>77.57</ele>
        <time>2019-04-29T13:49:18Z</time>
      </trkpt>
      <trkpt lat="43.67642" lon="4.63094">
        <ele>77.52</ele>
        <time>2019-04-29T13:49:29Z</time>
      </trkpt>
      <trkpt lat="43.67642" lon="4.63094">
        <ele>77.466</ele>
        <time>2019-04-29T13:49:40Z</time>
      </trkpt>
      <trkpt lat="43.67643" lon="4.63093">
        <ele>77.403</ele>
        <time>2019-04-29T13:49:51Z</time>
      </trkpt>
      <trkpt lat="43.67643" lon="4.63093">
        <ele>77.309</ele>
        <time>2019-04-29T13:50:02Z</time>
      </trkpt>
      <trkpt lat="43.67643" lon="4.63093">
        <ele>77.264</ele>
        <time>2019-04-29T13:50:12Z</time>
      </trkpt>
      <trkpt lat="43.67644" lon="4.63092">
        <ele>77.454</ele>
        <time>2019-04-29T13:50:23Z</time>
      </trkpt>
      <trkpt lat="43.67645" lon="4.63092">
        <ele>77.695</ele>
        <time>2019-04-29T13:50:34Z</time>
      </trkpt>
      <trkpt lat="43.67645" lon="4.63092">
        <ele>77.981</ele>
        <time>2019-04-29T13:50:44Z</time>
      </trkpt>
      <trkpt lat="43.67645" lon="4.63092">
        <ele>78.69</ele>
        <time>2019-04-29T13:50:55Z</time>
      </trkpt>
      <trkpt lat="43.67645" lon="4.63092">
        <ele>79.043</ele>
        <time>2019-04-29T13:51:05Z</time>
      </trkpt>
      <trkpt lat="43.67645" lon="4.63092">
        <ele>79.329</ele>
        <time>2019-04-29T13:51:15Z</time>
      </trkpt>
      <trkpt lat="43.67647" lon="4.63092">
        <ele>79.316</ele>
        <time>2019-04-29T13:51:26Z</time>
      </trkpt>
      <trkpt lat="43.67642" lon="4.63094">
        <ele>79.353</ele>
        <time>2019-04-29T13:51:37Z</time>
      </trkpt>
      <trkpt lat="43.67641" lon="4.63094">
        <ele>79.265</ele>
        <time>2019-04-29T13:51:48Z</time>
      </trkpt>
      <trkpt lat="43.67641" lon="4.63094">
        <ele>79.301</ele>
        <time>2019-04-29T13:51:58Z</time>
      </trkpt>
      <trkpt lat="43.6764" lon="4.63093">
        <ele>79.352</ele>
        <time>2019-04-29T13:52:09Z</time>
      </trkpt>
      <trkpt lat="43.67641" lon="4.63093">
        <ele>79.335</ele>
        <time>2019-04-29T13:52:20Z</time>
      </trkpt>
      <trkpt lat="43.67641" lon="4.63093">
        <ele>79.304</ele>
        <time>2019-04-29T13:52:31Z</time>
      </trkpt>
      <trkpt lat="43.67641" lon="4.63093">
        <ele>79.271</ele>
        <time>2019-04-29T13:52:41Z</time>
      </trkpt>
      <trkpt lat="43.67641" lon="4.63093">
        <ele>79.261</ele>
        <time>2019-04-29T13:52:52Z</time>
      </trkpt>
      <trkpt lat="43.67641" lon="4.63094">
        <ele>79.18</ele>
        <time>2019-04-29T13:53:02Z</time>
      </trkpt>
      <trkpt lat="43.67641" lon="4.63094">
        <ele>79.112</ele>
        <time>2019-04-29T13:53:13Z</time>
      </trkpt>
      <trkpt lat="43.67641" lon="4.63094">
        <ele>79.077</ele>
        <time>2019-04-29T13:53:24Z</time>
      </trkpt>
      <trkpt lat="43.67641" lon="4.63094">
        <ele>79.085</ele>
        <time>2019-04-29T13:53:34Z</time>
      </trkpt>
      <trkpt lat="43.67641" lon="4.63095">
        <ele>79.095</ele>
        <time>2019-04-29T13:53:45Z</time>
      </trkpt>
      <trkpt lat="43.67641" lon="4.63096">
        <ele>79.061</ele>
        <time>2019-04-29T13:53:55Z</time>
      </trkpt>
      <trkpt lat="43.6764" lon="4.63097">
        <ele>79.008</ele>
        <time>2019-04-29T13:54:05Z</time>
      </trkpt>
      <trkpt lat="43.6764" lon="4.63097">
        <ele>78.872</ele>
        <time>2019-04-29T13:54:16Z</time>
      </trkpt>
      <trkpt lat="43.6764" lon="4.63098">
        <ele>78.704</ele>
        <time>2019-04-29T13:54:26Z</time>
      </trkpt>
      <trkpt lat="43.6764" lon="4.63098">
        <ele>78.528</ele>
        <time>2019-04-29T13:54:37Z</time>
      </trkpt>
      <trkpt lat="43.6764" lon="4.63098">
        <ele>78.38</ele>
        <time>2019-04-29T13:54:48Z</time>
      </trkpt>
      <trkpt lat="43.6764" lon="4.63097">
        <ele>78.287</ele>
        <time>2019-04-29T13:54:58Z</time>
      </trkpt>
      <trkpt lat="43.6764" lon="4.63097">
        <ele>78.069</ele>
        <time>2019-04-29T13:55:08Z</time>
      </trkpt>
      <trkpt lat="43.6764" lon="4.63097">
        <ele>77.866</ele>
        <time>2019-04-29T13:55:19Z</time>
      </trkpt>
      <trkpt lat="43.6764" lon="4.63096">
        <ele>77.784</ele>
        <time>2019-04-29T13:55:30Z</time>
      </trkpt>
      <trkpt lat="43.6764" lon="4.63096">
        <ele>77.832</ele>
        <time>2019-04-29T13:55:41Z</time>
      </trkpt>
      <trkpt lat="43.6764" lon="4.63095">
        <ele>77.987</ele>
        <time>2019-04-29T13:55:51Z</time>
      </trkpt>
      <trkpt lat="43.6764" lon="4.63095">
        <ele>78.146</ele>
        <time>2019-04-29T13:56:02Z</time>
      </trkpt>
      <trkpt lat="43.6764" lon="4.63095">
        <ele>78.182</ele>
        <time>2019-04-29T13:56:12Z</time>
      </trkpt>
      <trkpt lat="43.6764" lon="4.63095">
        <ele>78.256</ele>
        <time>2019-04-29T13:56:23Z</time>
      </trkpt>
      <trkpt lat="43.6764" lon="4.63096">
        <ele>78.431</ele>
        <time>2019-04-29T13:56:33Z</time>
      </trkpt>
      <trkpt lat="43.6764" lon="4.63096">
        <ele>78.901</ele>
        <time>2019-04-29T13:56:43Z</time>
      </trkpt>
      <trkpt lat="43.67641" lon="4.63097">
        <ele>79.664</ele>
        <time>2019-04-29T13:56:53Z</time>
      </trkpt>
      <trkpt lat="43.67642" lon="4.63097">
        <ele>80.046</ele>
        <time>2019-04-29T13:57:04Z</time>
      </trkpt>
      <trkpt lat="43.67643" lon="4.63097">
        <ele>80.06</ele>
        <time>2019-04-29T13:57:15Z</time>
      </trkpt>
      <trkpt lat="43.67642" lon="4.63096">
        <ele>79.973</ele>
        <time>2019-04-29T13:57:25Z</time>
      </trkpt>
      <trkpt lat="43.67641" lon="4.63095">
        <ele>79.669</ele>
        <time>2019-04-29T13:57:36Z</time>
      </trkpt>
      <trkpt lat="43.6764" lon="4.63095">
        <ele>78.955</ele>
        <time>2019-04-29T13:57:47Z</time>
      </trkpt>
      <trkpt lat="43.6764" lon="4.63095">
        <ele>78.419</ele>
        <time>2019-04-29T13:57:58Z</time>
      </trkpt>
      <trkpt lat="43.6764" lon="4.63095">
        <ele>78.136</ele>
        <time>2019-04-29T13:58:09Z</time>
      </trkpt>
      <trkpt lat="43.6764" lon="4.63095">
        <ele>77.934</ele>
        <time>2019-04-29T13:58:20Z</time>
      </trkpt>
      <trkpt lat="43.6764" lon="4.63096">
        <ele>77.597</ele>
        <time>2019-04-29T13:58:31Z</time>
      </trkpt>
      <trkpt lat="43.6764" lon="4.63096">
        <ele>77.453</ele>
        <time>2019-04-29T13:58:42Z</time>
      </trkpt>
      <trkpt lat="43.67641" lon="4.63095">
        <ele>77.092</ele>
        <time>2019-04-29T13:58:53Z</time>
      </trkpt>
      <trkpt lat="43.67641" lon="4.63095">
        <ele>77.043</ele>
        <time>2019-04-29T13:59:03Z</time>
      </trkpt>
      <trkpt lat="43.67641" lon="4.63095">
        <ele>77.059</ele>
        <time>2019-04-29T13:59:14Z</time>
      </trkpt>
      <trkpt lat="43.67642" lon="4.63096">
        <ele>77.078</ele>
        <time>2019-04-29T13:59:25Z</time>
      </trkpt>
      <trkpt lat="43.6764" lon="4.63096">
        <ele>76.906</ele>
        <time>2019-04-29T13:59:35Z</time>
      </trkpt>
      <trkpt lat="43.67642" lon="4.63096">
        <ele>76.875</ele>
        <time>2019-04-29T13:59:45Z</time>
      </trkpt>
      <trkpt lat="43.67643" lon="4.63096">
        <ele>76.894</ele>
        <time>2019-04-29T13:59:55Z</time>
      </trkpt>
      <trkpt lat="43.67644" lon="4.63097">
        <ele>77.858</ele>
        <time>2019-04-29T14:00:06Z</time>
      </trkpt>
      <trkpt lat="43.67642" lon="4.63096">
        <ele>78.217</ele>
        <time>2019-04-29T14:00:17Z</time>
      </trkpt>
      <trkpt lat="43.67642" lon="4.63093">
        <ele>78.334</ele>
        <time>2019-04-29T14:00:28Z</time>
      </trkpt>
      <trkpt lat="43.67641" lon="4.63093">
        <ele>78.362</ele>
        <time>2019-04-29T14:00:38Z</time>
      </trkpt>
      <trkpt lat="43.6764" lon="4.63093">
        <ele>78.5</ele>
        <time>2019-04-29T14:00:48Z</time>
      </trkpt>
      <trkpt lat="43.6764" lon="4.63095">
        <ele>78.506</ele>
        <time>2019-04-29T14:00:59Z</time>
      </trkpt>
      <trkpt lat="43.67641" lon="4.63095">
        <ele>78.162</ele>
        <time>2019-04-29T14:01:10Z</time>
      </trkpt>
      <trkpt lat="43.67642" lon="4.63096">
        <ele>77.851</ele>
        <time>2019-04-29T14:01:20Z</time>
      </trkpt>
      <trkpt lat="43.67642" lon="4.63096">
        <ele>77.256</ele>
        <time>2019-04-29T14:01:31Z</time>
      </trkpt>
      <trkpt lat="43.6764" lon="4.63096">
        <ele>76.703</ele>
        <time>2019-04-29T14:01:42Z</time>
      </trkpt>
      <trkpt lat="43.67639" lon="4.63098">
        <ele>76.152</ele>
        <time>2019-04-29T14:01:53Z</time>
      </trkpt>
      <trkpt lat="43.67642" lon="4.63096">
        <ele>75.867</ele>
        <time>2019-04-29T14:02:03Z</time>
      </trkpt>
      <trkpt lat="43.67642" lon="4.63095">
        <ele>75.784</ele>
        <time>2019-04-29T14:02:13Z</time>
      </trkpt>
      <trkpt lat="43.67637" lon="4.63093">
        <ele>74.908</ele>
        <time>2019-04-29T14:02:23Z</time>
      </trkpt>
      <trkpt lat="43.67636" lon="4.63094">
        <ele>73.893</ele>
        <time>2019-04-29T14:02:34Z</time>
      </trkpt>
      <trkpt lat="43.67637" lon="4.63094">
        <ele>73.16</ele>
        <time>2019-04-29T14:02:45Z</time>
      </trkpt>
      <trkpt lat="43.67638" lon="4.63094">
        <ele>72.739</ele>
        <time>2019-04-29T14:02:56Z</time>
      </trkpt>
      <trkpt lat="43.67638" lon="4.63095">
        <ele>72.645</ele>
        <time>2019-04-29T14:03:06Z</time>
      </trkpt>
      <trkpt lat="43.67641" lon="4.63096">
        <ele>72.272</ele>
        <time>2019-04-29T14:03:17Z</time>
      </trkpt>
      <trkpt lat="43.67643" lon="4.63099">
        <ele>71.995</ele>
        <time>2019-04-29T14:03:28Z</time>
      </trkpt>
      <trkpt lat="43.6764" lon="4.631">
        <ele>71.876</ele>
        <time>2019-04-29T14:03:38Z</time>
      </trkpt>
    </trkseg>
  </trk>
</gpx>